<?xml version="1.0" encoding="UTF-8"?>
<gpx
  version="1.1"
  creator="RunKeeper - http://www.runkeeper.com"
  xmlns:xsi="http://www.w3.org/2001/XMLSchema-instance"
  xmlns="http://www.topografix.com/GPX/1/1"
  xsi:schemaLocation="http://www.topografix.com/GPX/1/1 http://www.topografix.com/GPX/1/1/gpx.xsd"
  xmlns:gpxtpx="http://www.garmin.com/xmlschemas/TrackPointExtension/v1">
<trk>
  <name><![CDATA[Mountain Biking 7/16/13 6:36 pm]]></name>
  <time>2013-07-16T18:36:16Z</time>
<trkseg>
<trkpt lat="57.123255000" lon="12.565359000"><ele>156.7</ele><time>2013-07-16T18:36:16Z</time></trkpt>
<trkpt lat="57.123205000" lon="12.565218000"><ele>157.0</ele><time>2013-07-16T18:36:19Z</time></trkpt>
<trkpt lat="57.123136000" lon="12.565111000"><ele>157.3</ele><time>2013-07-16T18:36:20Z</time></trkpt>
<trkpt lat="57.123093000" lon="12.564978000"><ele>157.4</ele><time>2013-07-16T18:36:22Z</time></trkpt>
<trkpt lat="57.123047000" lon="12.564841000"><ele>157.6</ele><time>2013-07-16T18:36:24Z</time></trkpt>
<trkpt lat="57.122977000" lon="12.564748000"><ele>157.3</ele><time>2013-07-16T18:36:25Z</time></trkpt>
<trkpt lat="57.122913000" lon="12.564636000"><ele>157.2</ele><time>2013-07-16T18:36:27Z</time></trkpt>
<trkpt lat="57.122859000" lon="12.564509000"><ele>157.0</ele><time>2013-07-16T18:36:30Z</time></trkpt>
<trkpt lat="57.122822000" lon="12.564370000"><ele>156.5</ele><time>2013-07-16T18:36:33Z</time></trkpt>
<trkpt lat="57.122760000" lon="12.564501000"><ele>155.8</ele><time>2013-07-16T18:36:39Z</time></trkpt>
<trkpt lat="57.122798000" lon="12.564685000"><ele>155.0</ele><time>2013-07-16T18:36:43Z</time></trkpt>
<trkpt lat="57.122862000" lon="12.564782000"><ele>153.9</ele><time>2013-07-16T18:36:44Z</time></trkpt>
<trkpt lat="57.122897000" lon="12.564921000"><ele>152.5</ele><time>2013-07-16T18:36:46Z</time></trkpt>
<trkpt lat="57.122926000" lon="12.565063000"><ele>151.1</ele><time>2013-07-16T18:36:48Z</time></trkpt>
<trkpt lat="57.123010000" lon="12.565233000"><ele>149.6</ele><time>2013-07-16T18:36:50Z</time></trkpt>
<trkpt lat="57.123087000" lon="12.565382000"><ele>147.9</ele><time>2013-07-16T18:36:52Z</time></trkpt>
<trkpt lat="57.123145000" lon="12.565527000"><ele>146.6</ele><time>2013-07-16T18:36:54Z</time></trkpt>
<trkpt lat="57.123209000" lon="12.565673000"><ele>145.4</ele><time>2013-07-16T18:36:56Z</time></trkpt>
<trkpt lat="57.123243000" lon="12.565809000"><ele>144.3</ele><time>2013-07-16T18:36:58Z</time></trkpt>
<trkpt lat="57.123270000" lon="12.566002000"><ele>143.0</ele><time>2013-07-16T18:37:01Z</time></trkpt>
<trkpt lat="57.123283000" lon="12.566168000"><ele>141.7</ele><time>2013-07-16T18:37:04Z</time></trkpt>
<trkpt lat="57.123272000" lon="12.566360000"><ele>140.8</ele><time>2013-07-16T18:37:10Z</time></trkpt>
<trkpt lat="57.123254000" lon="12.566528000"><ele>139.9</ele><time>2013-07-16T18:37:13Z</time></trkpt>
<trkpt lat="57.123261000" lon="12.566676000"><ele>139.3</ele><time>2013-07-16T18:37:15Z</time></trkpt>
<trkpt lat="57.123298000" lon="12.566834000"><ele>138.7</ele><time>2013-07-16T18:37:17Z</time></trkpt>
<trkpt lat="57.123306000" lon="12.567028000"><ele>137.8</ele><time>2013-07-16T18:37:20Z</time></trkpt>
<trkpt lat="57.123315000" lon="12.567215000"><ele>137.0</ele><time>2013-07-16T18:37:23Z</time></trkpt>
<trkpt lat="57.123353000" lon="12.567416000"><ele>135.9</ele><time>2013-07-16T18:37:26Z</time></trkpt>
<trkpt lat="57.123357000" lon="12.567584000"><ele>134.6</ele><time>2013-07-16T18:37:29Z</time></trkpt>
<trkpt lat="57.123365000" lon="12.567742000"><ele>133.2</ele><time>2013-07-16T18:37:32Z</time></trkpt>
<trkpt lat="57.123362000" lon="12.567903000"><ele>132.1</ele><time>2013-07-16T18:37:35Z</time></trkpt>
<trkpt lat="57.123367000" lon="12.568053000"><ele>131.1</ele><time>2013-07-16T18:37:38Z</time></trkpt>
<trkpt lat="57.123385000" lon="12.568229000"><ele>129.7</ele><time>2013-07-16T18:37:41Z</time></trkpt>
<trkpt lat="57.123411000" lon="12.568373000"><ele>127.9</ele><time>2013-07-16T18:37:43Z</time></trkpt>
<trkpt lat="57.123435000" lon="12.568565000"><ele>125.7</ele><time>2013-07-16T18:37:46Z</time></trkpt>
<trkpt lat="57.123472000" lon="12.568718000"><ele>123.6</ele><time>2013-07-16T18:37:51Z</time></trkpt>
<trkpt lat="57.123554000" lon="12.568759000"><ele>122.5</ele><time>2013-07-16T18:37:55Z</time></trkpt>
<trkpt lat="57.123649000" lon="12.568789000"><ele>122.4</ele><time>2013-07-16T18:37:59Z</time></trkpt>
<trkpt lat="57.123721000" lon="12.568867000"><ele>121.9</ele><time>2013-07-16T18:38:03Z</time></trkpt>
<trkpt lat="57.123697000" lon="12.569010000"><ele>121.5</ele><time>2013-07-16T18:38:07Z</time></trkpt>
<trkpt lat="57.123632000" lon="12.569156000"><ele>121.2</ele><time>2013-07-16T18:38:12Z</time></trkpt>
<trkpt lat="57.123290000" lon="12.568999000"><ele>120.6</ele><time>2013-07-16T18:38:15Z</time></trkpt>
<trkpt lat="57.123001000" lon="12.568807000"><ele>120.2</ele><time>2013-07-16T18:38:18Z</time></trkpt>
<trkpt lat="57.122920000" lon="12.568904000"><ele>120.0</ele><time>2013-07-16T18:38:30Z</time></trkpt>
<trkpt lat="57.122905000" lon="12.569080000"><ele>120.4</ele><time>2013-07-16T18:38:33Z</time></trkpt>
<trkpt lat="57.122905000" lon="12.569245000"><ele>121.2</ele><time>2013-07-16T18:38:36Z</time></trkpt>
<trkpt lat="57.122985000" lon="12.569351000"><ele>122.3</ele><time>2013-07-16T18:38:40Z</time></trkpt>
<trkpt lat="57.123073000" lon="12.569354000"><ele>122.5</ele><time>2013-07-16T18:38:43Z</time></trkpt>
<trkpt lat="57.123144000" lon="12.569229000"><ele>121.8</ele><time>2013-07-16T18:38:47Z</time></trkpt>
<trkpt lat="57.123179000" lon="12.569046000"><ele>121.7</ele><time>2013-07-16T18:38:50Z</time></trkpt>
<trkpt lat="57.123204000" lon="12.568898000"><ele>121.7</ele><time>2013-07-16T18:38:52Z</time></trkpt>
<trkpt lat="57.123226000" lon="12.568748000"><ele>121.8</ele><time>2013-07-16T18:38:54Z</time></trkpt>
<trkpt lat="57.123290000" lon="12.568573000"><ele>122.2</ele><time>2013-07-16T18:38:57Z</time></trkpt>
<trkpt lat="57.123341000" lon="12.568454000"><ele>122.7</ele><time>2013-07-16T18:38:59Z</time></trkpt>
<trkpt lat="57.123311000" lon="12.568278000"><ele>123.2</ele><time>2013-07-16T18:39:01Z</time></trkpt>
<trkpt lat="57.123594000" lon="12.568338000"><ele>123.7</ele><time>2013-07-16T18:39:02Z</time></trkpt>
<trkpt lat="57.123671000" lon="12.568219000"><ele>124.2</ele><time>2013-07-16T18:39:04Z</time></trkpt>
<trkpt lat="57.123663000" lon="12.568034000"><ele>124.8</ele><time>2013-07-16T18:39:06Z</time></trkpt>
<trkpt lat="57.123692000" lon="12.567870000"><ele>125.5</ele><time>2013-07-16T18:39:08Z</time></trkpt>
<trkpt lat="57.123691000" lon="12.567688000"><ele>126.4</ele><time>2013-07-16T18:39:10Z</time></trkpt>
<trkpt lat="57.123710000" lon="12.567532000"><ele>127.2</ele><time>2013-07-16T18:39:12Z</time></trkpt>
<trkpt lat="57.123725000" lon="12.567382000"><ele>128.4</ele><time>2013-07-16T18:39:14Z</time></trkpt>
<trkpt lat="57.123722000" lon="12.567205000"><ele>129.4</ele><time>2013-07-16T18:39:16Z</time></trkpt>
<trkpt lat="57.123659000" lon="12.567083000"><ele>130.2</ele><time>2013-07-16T18:39:17Z</time></trkpt>
<trkpt lat="57.123730000" lon="12.566961000"><ele>130.7</ele><time>2013-07-16T18:39:19Z</time></trkpt>
<trkpt lat="57.123790000" lon="12.566835000"><ele>131.1</ele><time>2013-07-16T18:39:21Z</time></trkpt>
<trkpt lat="57.123776000" lon="12.566669000"><ele>131.4</ele><time>2013-07-16T18:39:23Z</time></trkpt>
<trkpt lat="57.123878000" lon="12.566587000"><ele>131.8</ele><time>2013-07-16T18:39:25Z</time></trkpt>
<trkpt lat="57.124009000" lon="12.566704000"><ele>131.9</ele><time>2013-07-16T18:39:29Z</time></trkpt>
<trkpt lat="57.124054000" lon="12.566867000"><ele>132.0</ele><time>2013-07-16T18:39:31Z</time></trkpt>
<trkpt lat="57.124068000" lon="12.567023000"><ele>132.3</ele><time>2013-07-16T18:39:33Z</time></trkpt>
<trkpt lat="57.124075000" lon="12.567180000"><ele>132.6</ele><time>2013-07-16T18:39:35Z</time></trkpt>
<trkpt lat="57.124072000" lon="12.567344000"><ele>132.8</ele><time>2013-07-16T18:39:37Z</time></trkpt>
<trkpt lat="57.124096000" lon="12.567528000"><ele>133.1</ele><time>2013-07-16T18:39:39Z</time></trkpt>
<trkpt lat="57.124114000" lon="12.567698000"><ele>133.5</ele><time>2013-07-16T18:39:41Z</time></trkpt>
<trkpt lat="57.124148000" lon="12.567911000"><ele>134.1</ele><time>2013-07-16T18:39:44Z</time></trkpt>
<trkpt lat="57.124183000" lon="12.568128000"><ele>134.7</ele><time>2013-07-16T18:39:47Z</time></trkpt>
<trkpt lat="57.124231000" lon="12.568371000"><ele>135.3</ele><time>2013-07-16T18:39:49Z</time></trkpt>
<trkpt lat="57.124275000" lon="12.568559000"><ele>135.7</ele><time>2013-07-16T18:39:52Z</time></trkpt>
<trkpt lat="57.124337000" lon="12.568726000"><ele>135.9</ele><time>2013-07-16T18:39:55Z</time></trkpt>
<trkpt lat="57.124405000" lon="12.568883000"><ele>136.0</ele><time>2013-07-16T18:39:58Z</time></trkpt>
<trkpt lat="57.124485000" lon="12.569064000"><ele>135.7</ele><time>2013-07-16T18:40:01Z</time></trkpt>
<trkpt lat="57.124545000" lon="12.569192000"><ele>135.1</ele><time>2013-07-16T18:40:03Z</time></trkpt>
<trkpt lat="57.124595000" lon="12.569318000"><ele>134.7</ele><time>2013-07-16T18:40:05Z</time></trkpt>
<trkpt lat="57.124671000" lon="12.569530000"><ele>134.1</ele><time>2013-07-16T18:40:08Z</time></trkpt>
<trkpt lat="57.124707000" lon="12.569711000"><ele>133.6</ele><time>2013-07-16T18:40:10Z</time></trkpt>
<trkpt lat="57.124710000" lon="12.569937000"><ele>132.9</ele><time>2013-07-16T18:40:13Z</time></trkpt>
<trkpt lat="57.124693000" lon="12.570096000"><ele>132.1</ele><time>2013-07-16T18:40:15Z</time></trkpt>
<trkpt lat="57.124614000" lon="12.570229000"><ele>131.1</ele><time>2013-07-16T18:40:18Z</time></trkpt>
<trkpt lat="57.124561000" lon="12.570345000"><ele>129.9</ele><time>2013-07-16T18:40:21Z</time></trkpt>
<trkpt lat="57.124552000" lon="12.570504000"><ele>128.8</ele><time>2013-07-16T18:40:24Z</time></trkpt>
<trkpt lat="57.124560000" lon="12.570713000"><ele>128.0</ele><time>2013-07-16T18:40:27Z</time></trkpt>
<trkpt lat="57.124565000" lon="12.570871000"><ele>127.8</ele><time>2013-07-16T18:40:29Z</time></trkpt>
<trkpt lat="57.124543000" lon="12.571058000"><ele>127.7</ele><time>2013-07-16T18:40:32Z</time></trkpt>
<trkpt lat="57.124496000" lon="12.571216000"><ele>127.6</ele><time>2013-07-16T18:40:36Z</time></trkpt>
<trkpt lat="57.124459000" lon="12.571396000"><ele>127.6</ele><time>2013-07-16T18:40:40Z</time></trkpt>
<trkpt lat="57.124448000" lon="12.571550000"><ele>127.6</ele><time>2013-07-16T18:40:42Z</time></trkpt>
<trkpt lat="57.124465000" lon="12.571766000"><ele>127.7</ele><time>2013-07-16T18:40:45Z</time></trkpt>
<trkpt lat="57.124489000" lon="12.571964000"><ele>127.8</ele><time>2013-07-16T18:40:48Z</time></trkpt>
<trkpt lat="57.124513000" lon="12.572129000"><ele>128.2</ele><time>2013-07-16T18:40:50Z</time></trkpt>
<trkpt lat="57.124551000" lon="12.572320000"><ele>128.9</ele><time>2013-07-16T18:40:53Z</time></trkpt>
<trkpt lat="57.124590000" lon="12.572479000"><ele>129.8</ele><time>2013-07-16T18:40:55Z</time></trkpt>
<trkpt lat="57.124616000" lon="12.572635000"><ele>130.5</ele><time>2013-07-16T18:40:57Z</time></trkpt>
<trkpt lat="57.124642000" lon="12.572809000"><ele>130.7</ele><time>2013-07-16T18:40:59Z</time></trkpt>
<trkpt lat="57.124647000" lon="12.572990000"><ele>130.8</ele><time>2013-07-16T18:41:01Z</time></trkpt>
<trkpt lat="57.124631000" lon="12.573148000"><ele>130.9</ele><time>2013-07-16T18:41:03Z</time></trkpt>
<trkpt lat="57.124625000" lon="12.573310000"><ele>130.8</ele><time>2013-07-16T18:41:06Z</time></trkpt>
<trkpt lat="57.124612000" lon="12.573460000"><ele>130.7</ele><time>2013-07-16T18:41:09Z</time></trkpt>
<trkpt lat="57.124630000" lon="12.573634000"><ele>130.8</ele><time>2013-07-16T18:41:13Z</time></trkpt>
<trkpt lat="57.124696000" lon="12.573746000"><ele>131.3</ele><time>2013-07-16T18:41:17Z</time></trkpt>
<trkpt lat="57.124759000" lon="12.573898000"><ele>131.9</ele><time>2013-07-16T18:41:19Z</time></trkpt>
<trkpt lat="57.124830000" lon="12.574115000"><ele>132.3</ele><time>2013-07-16T18:41:21Z</time></trkpt>
<trkpt lat="57.124863000" lon="12.574288000"><ele>133.0</ele><time>2013-07-16T18:41:24Z</time></trkpt>
<trkpt lat="57.124904000" lon="12.574441000"><ele>134.1</ele><time>2013-07-16T18:41:29Z</time></trkpt>
<trkpt lat="57.124899000" lon="12.574596000"><ele>136.0</ele><time>2013-07-16T18:41:35Z</time></trkpt>
<trkpt lat="57.124888000" lon="12.574757000"><ele>138.2</ele><time>2013-07-16T18:41:41Z</time></trkpt>
<trkpt lat="57.124935000" lon="12.574885000"><ele>140.5</ele><time>2013-07-16T18:41:45Z</time></trkpt>
<trkpt lat="57.124929000" lon="12.575060000"><ele>142.7</ele><time>2013-07-16T18:41:51Z</time></trkpt>
<trkpt lat="57.124844000" lon="12.575143000"><ele>144.8</ele><time>2013-07-16T18:41:54Z</time></trkpt>
<trkpt lat="57.124895000" lon="12.575264000"><ele>146.8</ele><time>2013-07-16T18:42:11Z</time></trkpt>
<trkpt lat="57.124964000" lon="12.575352000"><ele>148.4</ele><time>2013-07-16T18:42:16Z</time></trkpt>
<trkpt lat="57.125011000" lon="12.575500000"><ele>149.8</ele><time>2013-07-16T18:42:18Z</time></trkpt>
<trkpt lat="57.125022000" lon="12.575679000"><ele>151.1</ele><time>2013-07-16T18:42:21Z</time></trkpt>
<trkpt lat="57.125014000" lon="12.575831000"><ele>152.1</ele><time>2013-07-16T18:42:25Z</time></trkpt>
<trkpt lat="57.125031000" lon="12.575988000"><ele>152.6</ele><time>2013-07-16T18:42:30Z</time></trkpt>
<trkpt lat="57.125056000" lon="12.576160000"><ele>152.3</ele><time>2013-07-16T18:42:33Z</time></trkpt>
<trkpt lat="57.125077000" lon="12.576318000"><ele>151.7</ele><time>2013-07-16T18:42:35Z</time></trkpt>
<trkpt lat="57.125120000" lon="12.576482000"><ele>151.0</ele><time>2013-07-16T18:42:38Z</time></trkpt>
<trkpt lat="57.125176000" lon="12.576624000"><ele>150.3</ele><time>2013-07-16T18:42:41Z</time></trkpt>
<trkpt lat="57.125222000" lon="12.576757000"><ele>149.7</ele><time>2013-07-16T18:42:45Z</time></trkpt>
<trkpt lat="57.125289000" lon="12.576900000"><ele>149.3</ele><time>2013-07-16T18:42:47Z</time></trkpt>
<trkpt lat="57.125338000" lon="12.577024000"><ele>148.9</ele><time>2013-07-16T18:42:50Z</time></trkpt>
<trkpt lat="57.125354000" lon="12.577187000"><ele>148.5</ele><time>2013-07-16T18:42:53Z</time></trkpt>
<trkpt lat="57.125371000" lon="12.577351000"><ele>148.2</ele><time>2013-07-16T18:42:57Z</time></trkpt>
<trkpt lat="57.125353000" lon="12.577531000"><ele>148.1</ele><time>2013-07-16T18:43:03Z</time></trkpt>
<trkpt lat="57.125314000" lon="12.577672000"><ele>148.2</ele><time>2013-07-16T18:43:07Z</time></trkpt>
<trkpt lat="57.125323000" lon="12.577837000"><ele>148.4</ele><time>2013-07-16T18:43:10Z</time></trkpt>
<trkpt lat="57.125356000" lon="12.577994000"><ele>148.7</ele><time>2013-07-16T18:43:12Z</time></trkpt>
<trkpt lat="57.125386000" lon="12.578150000"><ele>149.1</ele><time>2013-07-16T18:43:14Z</time></trkpt>
<trkpt lat="57.125404000" lon="12.578310000"><ele>149.4</ele><time>2013-07-16T18:43:17Z</time></trkpt>
<trkpt lat="57.125394000" lon="12.578479000"><ele>149.2</ele><time>2013-07-16T18:43:23Z</time></trkpt>
<trkpt lat="57.125471000" lon="12.578551000"><ele>148.9</ele><time>2013-07-16T18:43:28Z</time></trkpt>
<trkpt lat="57.125555000" lon="12.578466000"><ele>148.6</ele><time>2013-07-16T18:43:37Z</time></trkpt>
<trkpt lat="57.125655000" lon="12.578446000"><ele>148.6</ele><time>2013-07-16T18:43:41Z</time></trkpt>
<trkpt lat="57.125746000" lon="12.578398000"><ele>148.4</ele><time>2013-07-16T18:43:46Z</time></trkpt>
<trkpt lat="57.125802000" lon="12.578523000"><ele>148.2</ele><time>2013-07-16T18:43:55Z</time></trkpt>
<trkpt lat="57.125847000" lon="12.578715000"><ele>147.7</ele><time>2013-07-16T18:43:59Z</time></trkpt>
<trkpt lat="57.125847000" lon="12.578891000"><ele>146.9</ele><time>2013-07-16T18:44:03Z</time></trkpt>
<trkpt lat="57.125858000" lon="12.579057000"><ele>146.0</ele><time>2013-07-16T18:44:08Z</time></trkpt>
<trkpt lat="57.125921000" lon="12.579233000"><ele>145.2</ele><time>2013-07-16T18:44:11Z</time></trkpt>
<trkpt lat="57.125933000" lon="12.579390000"><ele>144.6</ele><time>2013-07-16T18:44:15Z</time></trkpt>
<trkpt lat="57.126035000" lon="12.579531000"><ele>144.3</ele><time>2013-07-16T18:44:19Z</time></trkpt>
<trkpt lat="57.126118000" lon="12.579593000"><ele>144.2</ele><time>2013-07-16T18:44:26Z</time></trkpt>
<trkpt lat="57.126196000" lon="12.579639000"><ele>143.8</ele><time>2013-07-16T18:44:31Z</time></trkpt>
<trkpt lat="57.126279000" lon="12.579641000"><ele>142.9</ele><time>2013-07-16T18:44:39Z</time></trkpt>
<trkpt lat="57.126353000" lon="12.579563000"><ele>141.8</ele><time>2013-07-16T18:44:47Z</time></trkpt>
<trkpt lat="57.126418000" lon="12.579419000"><ele>140.2</ele><time>2013-07-16T18:44:52Z</time></trkpt>
<trkpt lat="57.126490000" lon="12.579300000"><ele>138.6</ele><time>2013-07-16T18:44:56Z</time></trkpt>
<trkpt lat="57.126528000" lon="12.579138000"><ele>137.3</ele><time>2013-07-16T18:45:00Z</time></trkpt>
<trkpt lat="57.126611000" lon="12.579051000"><ele>136.3</ele><time>2013-07-16T18:45:03Z</time></trkpt>
<trkpt lat="57.126693000" lon="12.578981000"><ele>135.2</ele><time>2013-07-16T18:45:08Z</time></trkpt>
<trkpt lat="57.126786000" lon="12.578938000"><ele>134.2</ele><time>2013-07-16T18:45:15Z</time></trkpt>
<trkpt lat="57.126885000" lon="12.578950000"><ele>133.1</ele><time>2013-07-16T18:45:19Z</time></trkpt>
<trkpt lat="57.126972000" lon="12.579010000"><ele>131.8</ele><time>2013-07-16T18:45:24Z</time></trkpt>
<trkpt lat="57.127027000" lon="12.578826000"><ele>130.8</ele><time>2013-07-16T18:45:31Z</time></trkpt>
<trkpt lat="57.127063000" lon="12.578690000"><ele>130.0</ele><time>2013-07-16T18:45:33Z</time></trkpt>
<trkpt lat="57.127092000" lon="12.578535000"><ele>129.4</ele><time>2013-07-16T18:45:36Z</time></trkpt>
<trkpt lat="57.127103000" lon="12.578366000"><ele>129.2</ele><time>2013-07-16T18:45:41Z</time></trkpt>
<trkpt lat="57.127081000" lon="12.578186000"><ele>129.1</ele><time>2013-07-16T18:45:46Z</time></trkpt>
<trkpt lat="57.127058000" lon="12.578014000"><ele>129.2</ele><time>2013-07-16T18:45:48Z</time></trkpt>
<trkpt lat="57.127042000" lon="12.577857000"><ele>129.1</ele><time>2013-07-16T18:45:50Z</time></trkpt>
<trkpt lat="57.127018000" lon="12.577699000"><ele>128.9</ele><time>2013-07-16T18:45:52Z</time></trkpt>
<trkpt lat="57.126991000" lon="12.577521000"><ele>128.8</ele><time>2013-07-16T18:45:56Z</time></trkpt>
<trkpt lat="57.126965000" lon="12.577367000"><ele>128.8</ele><time>2013-07-16T18:46:01Z</time></trkpt>
<trkpt lat="57.126903000" lon="12.577259000"><ele>128.5</ele><time>2013-07-16T18:46:08Z</time></trkpt>
<trkpt lat="57.126860000" lon="12.577131000"><ele>128.4</ele><time>2013-07-16T18:46:16Z</time></trkpt>
<trkpt lat="57.126796000" lon="12.576985000"><ele>128.0</ele><time>2013-07-16T18:46:22Z</time></trkpt>
<trkpt lat="57.126768000" lon="12.576806000"><ele>127.5</ele><time>2013-07-16T18:46:28Z</time></trkpt>
<trkpt lat="57.126772000" lon="12.576646000"><ele>127.0</ele><time>2013-07-16T18:46:33Z</time></trkpt>
<trkpt lat="57.126816000" lon="12.576493000"><ele>126.4</ele><time>2013-07-16T18:46:36Z</time></trkpt>
<trkpt lat="57.126884000" lon="12.576394000"><ele>125.6</ele><time>2013-07-16T18:46:38Z</time></trkpt>
<trkpt lat="57.126966000" lon="12.576257000"><ele>124.5</ele><time>2013-07-16T18:46:42Z</time></trkpt>
<trkpt lat="57.127010000" lon="12.576131000"><ele>122.9</ele><time>2013-07-16T18:46:44Z</time></trkpt>
<trkpt lat="57.127065000" lon="12.576019000"><ele>120.9</ele><time>2013-07-16T18:46:46Z</time></trkpt>
<trkpt lat="57.127141000" lon="12.575930000"><ele>118.4</ele><time>2013-07-16T18:46:49Z</time></trkpt>
<trkpt lat="57.127228000" lon="12.575886000"><ele>115.8</ele><time>2013-07-16T18:46:51Z</time></trkpt>
<trkpt lat="57.127320000" lon="12.575959000"><ele>113.1</ele><time>2013-07-16T18:46:56Z</time></trkpt>
<trkpt lat="57.127397000" lon="12.576050000"><ele>110.6</ele><time>2013-07-16T18:47:01Z</time></trkpt>
<trkpt lat="57.127496000" lon="12.576008000"><ele>108.0</ele><time>2013-07-16T18:47:06Z</time></trkpt>
<trkpt lat="57.127585000" lon="12.576039000"><ele>105.1</ele><time>2013-07-16T18:47:12Z</time></trkpt>
<trkpt lat="57.127653000" lon="12.576144000"><ele>102.7</ele><time>2013-07-16T18:47:17Z</time></trkpt>
<trkpt lat="57.127717000" lon="12.576260000"><ele>100.5</ele><time>2013-07-16T18:47:20Z</time></trkpt>
<trkpt lat="57.127717000" lon="12.576457000"><ele>98.8</ele><time>2013-07-16T18:47:24Z</time></trkpt>
<trkpt lat="57.127741000" lon="12.576630000"><ele>97.9</ele><time>2013-07-16T18:47:28Z</time></trkpt>
<trkpt lat="57.127753000" lon="12.576822000"><ele>97.3</ele><time>2013-07-16T18:47:32Z</time></trkpt>
<trkpt lat="57.127835000" lon="12.577015000"><ele>97.4</ele><time>2013-07-16T18:47:35Z</time></trkpt>
<trkpt lat="57.127898000" lon="12.577146000"><ele>98.0</ele><time>2013-07-16T18:47:37Z</time></trkpt>
<trkpt lat="57.127943000" lon="12.577286000"><ele>98.8</ele><time>2013-07-16T18:47:39Z</time></trkpt>
<trkpt lat="57.127990000" lon="12.577420000"><ele>99.9</ele><time>2013-07-16T18:47:41Z</time></trkpt>
<trkpt lat="57.128028000" lon="12.577556000"><ele>101.4</ele><time>2013-07-16T18:47:43Z</time></trkpt>
<trkpt lat="57.128084000" lon="12.577685000"><ele>103.2</ele><time>2013-07-16T18:47:45Z</time></trkpt>
<trkpt lat="57.128140000" lon="12.577802000"><ele>104.9</ele><time>2013-07-16T18:47:47Z</time></trkpt>
<trkpt lat="57.128228000" lon="12.577928000"><ele>106.7</ele><time>2013-07-16T18:47:49Z</time></trkpt>
<trkpt lat="57.128307000" lon="12.578054000"><ele>108.4</ele><time>2013-07-16T18:47:51Z</time></trkpt>
<trkpt lat="57.128364000" lon="12.578163000"><ele>110.1</ele><time>2013-07-16T18:47:53Z</time></trkpt>
<trkpt lat="57.128427000" lon="12.578271000"><ele>111.9</ele><time>2013-07-16T18:47:55Z</time></trkpt>
<trkpt lat="57.128497000" lon="12.578361000"><ele>113.7</ele><time>2013-07-16T18:47:57Z</time></trkpt>
<trkpt lat="57.128561000" lon="12.578461000"><ele>115.7</ele><time>2013-07-16T18:48:00Z</time></trkpt>
<trkpt lat="57.128589000" lon="12.578611000"><ele>117.6</ele><time>2013-07-16T18:48:03Z</time></trkpt>
<trkpt lat="57.128568000" lon="12.578761000"><ele>119.7</ele><time>2013-07-16T18:48:09Z</time></trkpt>
<trkpt lat="57.128479000" lon="12.578796000"><ele>121.6</ele><time>2013-07-16T18:48:15Z</time></trkpt>
<trkpt lat="57.128383000" lon="12.578793000"><ele>123.5</ele><time>2013-07-16T18:48:20Z</time></trkpt>
<trkpt lat="57.128302000" lon="12.578859000"><ele>125.3</ele><time>2013-07-16T18:48:25Z</time></trkpt>
<trkpt lat="57.128227000" lon="12.578921000"><ele>126.8</ele><time>2013-07-16T18:48:28Z</time></trkpt>
<trkpt lat="57.128200000" lon="12.579084000"><ele>128.3</ele><time>2013-07-16T18:48:33Z</time></trkpt>
<trkpt lat="57.128144000" lon="12.579245000"><ele>129.5</ele><time>2013-07-16T18:48:37Z</time></trkpt>
<trkpt lat="57.128094000" lon="12.579384000"><ele>130.3</ele><time>2013-07-16T18:48:41Z</time></trkpt>
<trkpt lat="57.128040000" lon="12.579537000"><ele>130.7</ele><time>2013-07-16T18:48:46Z</time></trkpt>
<trkpt lat="57.128019000" lon="12.579687000"><ele>130.7</ele><time>2013-07-16T18:48:49Z</time></trkpt>
<trkpt lat="57.127997000" lon="12.579841000"><ele>130.3</ele><time>2013-07-16T18:48:52Z</time></trkpt>
<trkpt lat="57.127930000" lon="12.579968000"><ele>129.5</ele><time>2013-07-16T18:48:56Z</time></trkpt>
<trkpt lat="57.127853000" lon="12.580097000"><ele>128.6</ele><time>2013-07-16T18:49:00Z</time></trkpt>
<trkpt lat="57.127767000" lon="12.580194000"><ele>127.5</ele><time>2013-07-16T18:49:04Z</time></trkpt>
<trkpt lat="57.127700000" lon="12.580311000"><ele>126.3</ele><time>2013-07-16T18:49:09Z</time></trkpt>
<trkpt lat="57.127627000" lon="12.580384000"><ele>124.8</ele><time>2013-07-16T18:49:13Z</time></trkpt>
<trkpt lat="57.127551000" lon="12.580487000"><ele>123.1</ele><time>2013-07-16T18:49:17Z</time></trkpt>
<trkpt lat="57.127489000" lon="12.580593000"><ele>121.4</ele><time>2013-07-16T18:49:20Z</time></trkpt>
<trkpt lat="57.127413000" lon="12.580716000"><ele>119.6</ele><time>2013-07-16T18:49:24Z</time></trkpt>
<trkpt lat="57.127333000" lon="12.580749000"><ele>117.9</ele><time>2013-07-16T18:49:27Z</time></trkpt>
<trkpt lat="57.127233000" lon="12.580767000"><ele>116.4</ele><time>2013-07-16T18:49:30Z</time></trkpt>
<trkpt lat="57.127152000" lon="12.580800000"><ele>115.2</ele><time>2013-07-16T18:49:33Z</time></trkpt>
<trkpt lat="57.127071000" lon="12.580931000"><ele>114.2</ele><time>2013-07-16T18:49:37Z</time></trkpt>
<trkpt lat="57.126978000" lon="12.580923000"><ele>113.4</ele><time>2013-07-16T18:49:43Z</time></trkpt>
<trkpt lat="57.126903000" lon="12.580822000"><ele>112.7</ele><time>2013-07-16T18:49:46Z</time></trkpt>
<trkpt lat="57.126826000" lon="12.580676000"><ele>112.1</ele><time>2013-07-16T18:49:48Z</time></trkpt>
<trkpt lat="57.126762000" lon="12.580574000"><ele>111.9</ele><time>2013-07-16T18:49:49Z</time></trkpt>
<trkpt lat="57.126681000" lon="12.580415000"><ele>112.0</ele><time>2013-07-16T18:49:51Z</time></trkpt>
<trkpt lat="57.126623000" lon="12.580296000"><ele>112.1</ele><time>2013-07-16T18:49:53Z</time></trkpt>
<trkpt lat="57.126550000" lon="12.580222000"><ele>112.3</ele><time>2013-07-16T18:49:56Z</time></trkpt>
<trkpt lat="57.126442000" lon="12.580282000"><ele>112.5</ele><time>2013-07-16T18:49:59Z</time></trkpt>
<trkpt lat="57.126355000" lon="12.580292000"><ele>112.4</ele><time>2013-07-16T18:50:01Z</time></trkpt>
<trkpt lat="57.126267000" lon="12.580307000"><ele>112.0</ele><time>2013-07-16T18:50:03Z</time></trkpt>
<trkpt lat="57.126186000" lon="12.580298000"><ele>111.6</ele><time>2013-07-16T18:50:06Z</time></trkpt>
<trkpt lat="57.126099000" lon="12.580303000"><ele>110.9</ele><time>2013-07-16T18:50:09Z</time></trkpt>
<trkpt lat="57.126011000" lon="12.580342000"><ele>110.0</ele><time>2013-07-16T18:50:12Z</time></trkpt>
<trkpt lat="57.125916000" lon="12.580375000"><ele>109.0</ele><time>2013-07-16T18:50:16Z</time></trkpt>
<trkpt lat="57.125789000" lon="12.580346000"><ele>107.8</ele><time>2013-07-16T18:50:20Z</time></trkpt>
<trkpt lat="57.125695000" lon="12.580266000"><ele>106.6</ele><time>2013-07-16T18:50:22Z</time></trkpt>
<trkpt lat="57.125620000" lon="12.580187000"><ele>105.5</ele><time>2013-07-16T18:50:24Z</time></trkpt>
<trkpt lat="57.125495000" lon="12.580216000"><ele>104.8</ele><time>2013-07-16T18:50:27Z</time></trkpt>
<trkpt lat="57.125391000" lon="12.580212000"><ele>104.3</ele><time>2013-07-16T18:50:29Z</time></trkpt>
<trkpt lat="57.125274000" lon="12.580108000"><ele>104.2</ele><time>2013-07-16T18:50:31Z</time></trkpt>
<trkpt lat="57.125200000" lon="12.579934000"><ele>104.2</ele><time>2013-07-16T18:50:33Z</time></trkpt>
<trkpt lat="57.125199000" lon="12.579760000"><ele>104.1</ele><time>2013-07-16T18:50:35Z</time></trkpt>
<trkpt lat="57.125203000" lon="12.579555000"><ele>105.5</ele><time>2013-07-16T18:50:38Z</time></trkpt>
<trkpt lat="57.125246000" lon="12.579398000"><ele>107.9</ele><time>2013-07-16T18:50:41Z</time></trkpt>
<trkpt lat="57.125236000" lon="12.579248000"><ele>111.6</ele><time>2013-07-16T18:50:44Z</time></trkpt>
<trkpt lat="57.125237000" lon="12.579035000"><ele>116.1</ele><time>2013-07-16T18:50:48Z</time></trkpt>
<trkpt lat="57.125299000" lon="12.578916000"><ele>120.8</ele><time>2013-07-16T18:50:53Z</time></trkpt>
<trkpt lat="57.125457000" lon="12.578819000"><ele>125.7</ele><time>2013-07-16T18:50:54Z</time></trkpt>
<trkpt lat="57.125528000" lon="12.578721000"><ele>130.1</ele><time>2013-07-16T18:50:55Z</time></trkpt>
<trkpt lat="57.125595000" lon="12.578549000"><ele>134.3</ele><time>2013-07-16T18:50:57Z</time></trkpt>
<trkpt lat="57.125622000" lon="12.578342000"><ele>138.2</ele><time>2013-07-16T18:51:00Z</time></trkpt>
<trkpt lat="57.125625000" lon="12.578163000"><ele>141.5</ele><time>2013-07-16T18:51:03Z</time></trkpt>
<trkpt lat="57.125629000" lon="12.577968000"><ele>144.8</ele><time>2013-07-16T18:51:08Z</time></trkpt>
<trkpt lat="57.125646000" lon="12.577801000"><ele>146.6</ele><time>2013-07-16T18:51:11Z</time></trkpt>
<trkpt lat="57.125610000" lon="12.577633000"><ele>147.5</ele><time>2013-07-16T18:51:14Z</time></trkpt>
<trkpt lat="57.125526000" lon="12.577625000"><ele>147.0</ele><time>2013-07-16T18:51:17Z</time></trkpt>
<trkpt lat="57.125446000" lon="12.577719000"><ele>145.4</ele><time>2013-07-16T18:51:20Z</time></trkpt>
<trkpt lat="57.125360000" lon="12.577880000"><ele>143.3</ele><time>2013-07-16T18:51:22Z</time></trkpt>
<trkpt lat="57.125274000" lon="12.578050000"><ele>140.8</ele><time>2013-07-16T18:51:24Z</time></trkpt>
<trkpt lat="57.125191000" lon="12.578178000"><ele>138.3</ele><time>2013-07-16T18:51:26Z</time></trkpt>
<trkpt lat="57.125091000" lon="12.578209000"><ele>135.8</ele><time>2013-07-16T18:51:28Z</time></trkpt>
<trkpt lat="57.124980000" lon="12.578197000"><ele>133.6</ele><time>2013-07-16T18:51:31Z</time></trkpt>
<trkpt lat="57.124866000" lon="12.578216000"><ele>132.1</ele><time>2013-07-16T18:51:33Z</time></trkpt>
<trkpt lat="57.124782000" lon="12.578274000"><ele>130.6</ele><time>2013-07-16T18:51:35Z</time></trkpt>
<trkpt lat="57.124729000" lon="12.578487000"><ele>129.3</ele><time>2013-07-16T18:51:38Z</time></trkpt>
<trkpt lat="57.124680000" lon="12.578652000"><ele>128.2</ele><time>2013-07-16T18:51:40Z</time></trkpt>
<trkpt lat="57.124603000" lon="12.578760000"><ele>127.3</ele><time>2013-07-16T18:51:42Z</time></trkpt>
<trkpt lat="57.124527000" lon="12.578864000"><ele>126.8</ele><time>2013-07-16T18:51:44Z</time></trkpt>
<trkpt lat="57.124417000" lon="12.578977000"><ele>126.3</ele><time>2013-07-16T18:51:46Z</time></trkpt>
<trkpt lat="57.124302000" lon="12.579023000"><ele>125.8</ele><time>2013-07-16T18:51:49Z</time></trkpt>
<trkpt lat="57.124206000" lon="12.579039000"><ele>125.4</ele><time>2013-07-16T18:51:52Z</time></trkpt>
<trkpt lat="57.124096000" lon="12.579044000"><ele>124.9</ele><time>2013-07-16T18:51:54Z</time></trkpt>
<trkpt lat="57.123990000" lon="12.579054000"><ele>124.2</ele><time>2013-07-16T18:51:56Z</time></trkpt>
<trkpt lat="57.123889000" lon="12.579159000"><ele>123.4</ele><time>2013-07-16T18:51:58Z</time></trkpt>
<trkpt lat="57.123775000" lon="12.579287000"><ele>122.9</ele><time>2013-07-16T18:52:01Z</time></trkpt>
<trkpt lat="57.123681000" lon="12.579370000"><ele>122.5</ele><time>2013-07-16T18:52:03Z</time></trkpt>
<trkpt lat="57.123572000" lon="12.579446000"><ele>121.7</ele><time>2013-07-16T18:52:05Z</time></trkpt>
<trkpt lat="57.123450000" lon="12.579522000"><ele>120.8</ele><time>2013-07-16T18:52:07Z</time></trkpt>
<trkpt lat="57.123376000" lon="12.579616000"><ele>119.8</ele><time>2013-07-16T18:52:09Z</time></trkpt>
<trkpt lat="57.123322000" lon="12.579799000"><ele>118.9</ele><time>2013-07-16T18:52:12Z</time></trkpt>
<trkpt lat="57.123281000" lon="12.579937000"><ele>118.2</ele><time>2013-07-16T18:52:15Z</time></trkpt>
<trkpt lat="57.123168000" lon="12.580024000"><ele>117.7</ele><time>2013-07-16T18:52:18Z</time></trkpt>
<trkpt lat="57.123101000" lon="12.580130000"><ele>117.6</ele><time>2013-07-16T18:52:22Z</time></trkpt>
<trkpt lat="57.122983000" lon="12.580202000"><ele>117.8</ele><time>2013-07-16T18:52:25Z</time></trkpt>
<trkpt lat="57.122902000" lon="12.580226000"><ele>118.3</ele><time>2013-07-16T18:52:27Z</time></trkpt>
<trkpt lat="57.122801000" lon="12.580230000"><ele>118.8</ele><time>2013-07-16T18:52:29Z</time></trkpt>
<trkpt lat="57.122706000" lon="12.580243000"><ele>119.3</ele><time>2013-07-16T18:52:31Z</time></trkpt>
<trkpt lat="57.122624000" lon="12.580248000"><ele>120.2</ele><time>2013-07-16T18:52:32Z</time></trkpt>
<trkpt lat="57.122512000" lon="12.580273000"><ele>121.1</ele><time>2013-07-16T18:52:34Z</time></trkpt>
<trkpt lat="57.122409000" lon="12.580352000"><ele>122.3</ele><time>2013-07-16T18:52:36Z</time></trkpt>
<trkpt lat="57.122309000" lon="12.580424000"><ele>123.3</ele><time>2013-07-16T18:52:38Z</time></trkpt>
<trkpt lat="57.122217000" lon="12.580497000"><ele>124.5</ele><time>2013-07-16T18:52:40Z</time></trkpt>
<trkpt lat="57.122130000" lon="12.580561000"><ele>125.7</ele><time>2013-07-16T18:52:42Z</time></trkpt>
<trkpt lat="57.122043000" lon="12.580626000"><ele>126.6</ele><time>2013-07-16T18:52:44Z</time></trkpt>
<trkpt lat="57.121989000" lon="12.580788000"><ele>127.5</ele><time>2013-07-16T18:52:46Z</time></trkpt>
<trkpt lat="57.121952000" lon="12.580972000"><ele>128.1</ele><time>2013-07-16T18:52:48Z</time></trkpt>
<trkpt lat="57.121874000" lon="12.581119000"><ele>128.5</ele><time>2013-07-16T18:52:50Z</time></trkpt>
<trkpt lat="57.121798000" lon="12.581225000"><ele>128.9</ele><time>2013-07-16T18:52:52Z</time></trkpt>
<trkpt lat="57.121726000" lon="12.581301000"><ele>129.2</ele><time>2013-07-16T18:52:54Z</time></trkpt>
<trkpt lat="57.121657000" lon="12.581392000"><ele>129.7</ele><time>2013-07-16T18:52:56Z</time></trkpt>
<trkpt lat="57.121579000" lon="12.581477000"><ele>130.1</ele><time>2013-07-16T18:52:58Z</time></trkpt>
<trkpt lat="57.121507000" lon="12.581557000"><ele>130.5</ele><time>2013-07-16T18:53:00Z</time></trkpt>
<trkpt lat="57.121431000" lon="12.581643000"><ele>130.9</ele><time>2013-07-16T18:53:02Z</time></trkpt>
<trkpt lat="57.121354000" lon="12.581728000"><ele>131.2</ele><time>2013-07-16T18:53:04Z</time></trkpt>
<trkpt lat="57.121276000" lon="12.581813000"><ele>131.4</ele><time>2013-07-16T18:53:06Z</time></trkpt>
<trkpt lat="57.121201000" lon="12.581897000"><ele>131.5</ele><time>2013-07-16T18:53:08Z</time></trkpt>
<trkpt lat="57.121126000" lon="12.581986000"><ele>131.6</ele><time>2013-07-16T18:53:10Z</time></trkpt>
<trkpt lat="57.121057000" lon="12.582084000"><ele>131.7</ele><time>2013-07-16T18:53:12Z</time></trkpt>
<trkpt lat="57.120972000" lon="12.582170000"><ele>131.7</ele><time>2013-07-16T18:53:14Z</time></trkpt>
<trkpt lat="57.120894000" lon="12.582253000"><ele>131.6</ele><time>2013-07-16T18:53:16Z</time></trkpt>
<trkpt lat="57.120816000" lon="12.582341000"><ele>131.3</ele><time>2013-07-16T18:53:18Z</time></trkpt>
<trkpt lat="57.120741000" lon="12.582431000"><ele>130.9</ele><time>2013-07-16T18:53:20Z</time></trkpt>
<trkpt lat="57.120663000" lon="12.582519000"><ele>130.3</ele><time>2013-07-16T18:53:22Z</time></trkpt>
<trkpt lat="57.120578000" lon="12.582600000"><ele>129.5</ele><time>2013-07-16T18:53:24Z</time></trkpt>
<trkpt lat="57.120496000" lon="12.582663000"><ele>128.4</ele><time>2013-07-16T18:53:26Z</time></trkpt>
<trkpt lat="57.120411000" lon="12.582692000"><ele>127.2</ele><time>2013-07-16T18:53:28Z</time></trkpt>
<trkpt lat="57.120329000" lon="12.582712000"><ele>126.3</ele><time>2013-07-16T18:53:30Z</time></trkpt>
<trkpt lat="57.120216000" lon="12.582749000"><ele>126.0</ele><time>2013-07-16T18:53:33Z</time></trkpt>
<trkpt lat="57.120134000" lon="12.582757000"><ele>126.0</ele><time>2013-07-16T18:53:35Z</time></trkpt>
<trkpt lat="57.120025000" lon="12.582773000"><ele>126.1</ele><time>2013-07-16T18:53:38Z</time></trkpt>
<trkpt lat="57.119943000" lon="12.582793000"><ele>126.6</ele><time>2013-07-16T18:53:41Z</time></trkpt>
<trkpt lat="57.119860000" lon="12.582784000"><ele>127.2</ele><time>2013-07-16T18:53:45Z</time></trkpt>
<trkpt lat="57.119780000" lon="12.582821000"><ele>127.8</ele><time>2013-07-16T18:53:52Z</time></trkpt>
<trkpt lat="57.119687000" lon="12.582856000"><ele>128.8</ele><time>2013-07-16T18:53:58Z</time></trkpt>
<trkpt lat="57.119679000" lon="12.582664000"><ele>129.9</ele><time>2013-07-16T18:54:03Z</time></trkpt>
<trkpt lat="57.119692000" lon="12.582451000"><ele>131.3</ele><time>2013-07-16T18:54:06Z</time></trkpt>
<trkpt lat="57.119715000" lon="12.582306000"><ele>133.0</ele><time>2013-07-16T18:54:08Z</time></trkpt>
<trkpt lat="57.119747000" lon="12.582154000"><ele>134.2</ele><time>2013-07-16T18:54:10Z</time></trkpt>
<trkpt lat="57.119782000" lon="12.581998000"><ele>134.8</ele><time>2013-07-16T18:54:12Z</time></trkpt>
<trkpt lat="57.119807000" lon="12.581832000"><ele>135.1</ele><time>2013-07-16T18:54:14Z</time></trkpt>
<trkpt lat="57.119840000" lon="12.581661000"><ele>135.2</ele><time>2013-07-16T18:54:16Z</time></trkpt>
<trkpt lat="57.119916000" lon="12.581526000"><ele>135.1</ele><time>2013-07-16T18:54:18Z</time></trkpt>
<trkpt lat="57.119994000" lon="12.581398000"><ele>135.0</ele><time>2013-07-16T18:54:20Z</time></trkpt>
<trkpt lat="57.120047000" lon="12.581225000"><ele>134.8</ele><time>2013-07-16T18:54:22Z</time></trkpt>
<trkpt lat="57.120098000" lon="12.581058000"><ele>134.4</ele><time>2013-07-16T18:54:24Z</time></trkpt>
<trkpt lat="57.120155000" lon="12.580911000"><ele>134.0</ele><time>2013-07-16T18:54:26Z</time></trkpt>
<trkpt lat="57.120195000" lon="12.580771000"><ele>133.5</ele><time>2013-07-16T18:54:28Z</time></trkpt>
<trkpt lat="57.120223000" lon="12.580601000"><ele>132.9</ele><time>2013-07-16T18:54:30Z</time></trkpt>
<trkpt lat="57.120240000" lon="12.580403000"><ele>132.3</ele><time>2013-07-16T18:54:32Z</time></trkpt>
<trkpt lat="57.120262000" lon="12.580240000"><ele>131.8</ele><time>2013-07-16T18:54:34Z</time></trkpt>
<trkpt lat="57.120272000" lon="12.580089000"><ele>131.3</ele><time>2013-07-16T18:54:36Z</time></trkpt>
<trkpt lat="57.120307000" lon="12.579944000"><ele>131.2</ele><time>2013-07-16T18:54:39Z</time></trkpt>
<trkpt lat="57.120384000" lon="12.580006000"><ele>131.3</ele><time>2013-07-16T18:54:43Z</time></trkpt>
<trkpt lat="57.120468000" lon="12.580108000"><ele>131.4</ele><time>2013-07-16T18:54:46Z</time></trkpt>
<trkpt lat="57.120550000" lon="12.580128000"><ele>131.7</ele><time>2013-07-16T18:54:48Z</time></trkpt>
<trkpt lat="57.120652000" lon="12.580073000"><ele>132.1</ele><time>2013-07-16T18:54:51Z</time></trkpt>
<trkpt lat="57.120770000" lon="12.579978000"><ele>132.8</ele><time>2013-07-16T18:54:54Z</time></trkpt>
<trkpt lat="57.120876000" lon="12.579956000"><ele>133.5</ele><time>2013-07-16T18:54:57Z</time></trkpt>
<trkpt lat="57.120982000" lon="12.579980000"><ele>134.2</ele><time>2013-07-16T18:55:00Z</time></trkpt>
<trkpt lat="57.121087000" lon="12.580019000"><ele>134.8</ele><time>2013-07-16T18:55:03Z</time></trkpt>
<trkpt lat="57.121183000" lon="12.580018000"><ele>135.3</ele><time>2013-07-16T18:55:06Z</time></trkpt>
<trkpt lat="57.121283000" lon="12.579999000"><ele>136.1</ele><time>2013-07-16T18:55:09Z</time></trkpt>
<trkpt lat="57.121382000" lon="12.579996000"><ele>136.5</ele><time>2013-07-16T18:55:13Z</time></trkpt>
<trkpt lat="57.121488000" lon="12.579954000"><ele>136.9</ele><time>2013-07-16T18:55:17Z</time></trkpt>
<trkpt lat="57.121547000" lon="12.579812000"><ele>137.2</ele><time>2013-07-16T18:55:20Z</time></trkpt>
<trkpt lat="57.121603000" lon="12.579639000"><ele>137.3</ele><time>2013-07-16T18:55:23Z</time></trkpt>
<trkpt lat="57.121704000" lon="12.579590000"><ele>137.3</ele><time>2013-07-16T18:55:24Z</time></trkpt>
<trkpt lat="57.121765000" lon="12.579477000"><ele>137.3</ele><time>2013-07-16T18:55:26Z</time></trkpt>
<trkpt lat="57.121903000" lon="12.579403000"><ele>137.4</ele><time>2013-07-16T18:55:28Z</time></trkpt>
<trkpt lat="57.121985000" lon="12.579309000"><ele>137.7</ele><time>2013-07-16T18:55:30Z</time></trkpt>
<trkpt lat="57.122072000" lon="12.579166000"><ele>138.1</ele><time>2013-07-16T18:55:33Z</time></trkpt>
<trkpt lat="57.122142000" lon="12.579045000"><ele>138.6</ele><time>2013-07-16T18:55:36Z</time></trkpt>
<trkpt lat="57.122203000" lon="12.578940000"><ele>138.9</ele><time>2013-07-16T18:55:38Z</time></trkpt>
<trkpt lat="57.122270000" lon="12.578822000"><ele>139.4</ele><time>2013-07-16T18:55:40Z</time></trkpt>
<trkpt lat="57.122330000" lon="12.578652000"><ele>139.9</ele><time>2013-07-16T18:55:43Z</time></trkpt>
<trkpt lat="57.122358000" lon="12.578422000"><ele>140.5</ele><time>2013-07-16T18:55:46Z</time></trkpt>
<trkpt lat="57.122407000" lon="12.578228000"><ele>141.3</ele><time>2013-07-16T18:55:48Z</time></trkpt>
<trkpt lat="57.122484000" lon="12.578037000"><ele>142.1</ele><time>2013-07-16T18:55:50Z</time></trkpt>
<trkpt lat="57.122576000" lon="12.577868000"><ele>142.7</ele><time>2013-07-16T18:55:52Z</time></trkpt>
<trkpt lat="57.122679000" lon="12.577689000"><ele>142.8</ele><time>2013-07-16T18:55:54Z</time></trkpt>
<trkpt lat="57.122753000" lon="12.577571000"><ele>142.6</ele><time>2013-07-16T18:55:56Z</time></trkpt>
<trkpt lat="57.122827000" lon="12.577479000"><ele>142.3</ele><time>2013-07-16T18:55:58Z</time></trkpt>
<trkpt lat="57.122890000" lon="12.577361000"><ele>141.9</ele><time>2013-07-16T18:56:00Z</time></trkpt>
<trkpt lat="57.122907000" lon="12.577178000"><ele>141.3</ele><time>2013-07-16T18:56:02Z</time></trkpt>
<trkpt lat="57.122958000" lon="12.577009000"><ele>140.6</ele><time>2013-07-16T18:56:04Z</time></trkpt>
<trkpt lat="57.123006000" lon="12.576805000"><ele>139.7</ele><time>2013-07-16T18:56:06Z</time></trkpt>
<trkpt lat="57.123047000" lon="12.576592000"><ele>138.6</ele><time>2013-07-16T18:56:08Z</time></trkpt>
<trkpt lat="57.123082000" lon="12.576406000"><ele>137.4</ele><time>2013-07-16T18:56:10Z</time></trkpt>
<trkpt lat="57.123114000" lon="12.576222000"><ele>136.3</ele><time>2013-07-16T18:56:12Z</time></trkpt>
<trkpt lat="57.123130000" lon="12.576045000"><ele>135.7</ele><time>2013-07-16T18:56:14Z</time></trkpt>
<trkpt lat="57.123137000" lon="12.575890000"><ele>135.2</ele><time>2013-07-16T18:56:16Z</time></trkpt>
<trkpt lat="57.123100000" lon="12.575694000"><ele>134.9</ele><time>2013-07-16T18:56:18Z</time></trkpt>
<trkpt lat="57.123081000" lon="12.575497000"><ele>134.6</ele><time>2013-07-16T18:56:20Z</time></trkpt>
<trkpt lat="57.123102000" lon="12.575318000"><ele>134.6</ele><time>2013-07-16T18:56:22Z</time></trkpt>
<trkpt lat="57.123125000" lon="12.575160000"><ele>134.6</ele><time>2013-07-16T18:56:24Z</time></trkpt>
<trkpt lat="57.123183000" lon="12.574972000"><ele>134.6</ele><time>2013-07-16T18:56:27Z</time></trkpt>
<trkpt lat="57.123235000" lon="12.574839000"><ele>134.6</ele><time>2013-07-16T18:56:29Z</time></trkpt>
<trkpt lat="57.123299000" lon="12.574693000"><ele>134.7</ele><time>2013-07-16T18:56:31Z</time></trkpt>
<trkpt lat="57.123350000" lon="12.574568000"><ele>134.8</ele><time>2013-07-16T18:56:33Z</time></trkpt>
<trkpt lat="57.123412000" lon="12.574417000"><ele>134.5</ele><time>2013-07-16T18:56:36Z</time></trkpt>
<trkpt lat="57.123454000" lon="12.574238000"><ele>134.0</ele><time>2013-07-16T18:56:39Z</time></trkpt>
<trkpt lat="57.123478000" lon="12.574081000"><ele>133.6</ele><time>2013-07-16T18:56:41Z</time></trkpt>
<trkpt lat="57.123543000" lon="12.573924000"><ele>133.4</ele><time>2013-07-16T18:56:43Z</time></trkpt>
<trkpt lat="57.123578000" lon="12.573762000"><ele>133.4</ele><time>2013-07-16T18:56:45Z</time></trkpt>
<trkpt lat="57.123620000" lon="12.573593000"><ele>133.4</ele><time>2013-07-16T18:56:47Z</time></trkpt>
<trkpt lat="57.123661000" lon="12.573413000"><ele>133.4</ele><time>2013-07-16T18:56:50Z</time></trkpt>
<trkpt lat="57.123693000" lon="12.573274000"><ele>133.3</ele><time>2013-07-16T18:56:54Z</time></trkpt>
<trkpt lat="57.123651000" lon="12.573106000"><ele>133.6</ele><time>2013-07-16T18:57:00Z</time></trkpt>
<trkpt lat="57.123613000" lon="12.572963000"><ele>133.7</ele><time>2013-07-16T18:57:03Z</time></trkpt>
<trkpt lat="57.123584000" lon="12.572795000"><ele>134.3</ele><time>2013-07-16T18:57:07Z</time></trkpt>
<trkpt lat="57.123536000" lon="12.572652000"><ele>135.0</ele><time>2013-07-16T18:57:10Z</time></trkpt>
<trkpt lat="57.123496000" lon="12.572519000"><ele>135.9</ele><time>2013-07-16T18:57:12Z</time></trkpt>
<trkpt lat="57.123471000" lon="12.572361000"><ele>136.6</ele><time>2013-07-16T18:57:17Z</time></trkpt>
<trkpt lat="57.123433000" lon="12.572219000"><ele>137.4</ele><time>2013-07-16T18:57:22Z</time></trkpt>
<trkpt lat="57.123405000" lon="12.572073000"><ele>138.0</ele><time>2013-07-16T18:57:26Z</time></trkpt>
<trkpt lat="57.123438000" lon="12.571931000"><ele>138.5</ele><time>2013-07-16T18:57:31Z</time></trkpt>
<trkpt lat="57.123522000" lon="12.571940000"><ele>139.0</ele><time>2013-07-16T18:57:35Z</time></trkpt>
<trkpt lat="57.123599000" lon="12.571883000"><ele>139.5</ele><time>2013-07-16T18:57:43Z</time></trkpt>
<trkpt lat="57.123625000" lon="12.571737000"><ele>139.8</ele><time>2013-07-16T18:57:53Z</time></trkpt>
<trkpt lat="57.123643000" lon="12.571583000"><ele>140.1</ele><time>2013-07-16T18:57:57Z</time></trkpt>
<trkpt lat="57.123700000" lon="12.571461000"><ele>140.1</ele><time>2013-07-16T18:58:00Z</time></trkpt>
<trkpt lat="57.123780000" lon="12.571296000"><ele>139.9</ele><time>2013-07-16T18:58:03Z</time></trkpt>
<trkpt lat="57.123839000" lon="12.571164000"><ele>139.7</ele><time>2013-07-16T18:58:05Z</time></trkpt>
<trkpt lat="57.123842000" lon="12.570989000"><ele>139.3</ele><time>2013-07-16T18:58:08Z</time></trkpt>
<trkpt lat="57.123770000" lon="12.570874000"><ele>138.7</ele><time>2013-07-16T18:58:11Z</time></trkpt>
<trkpt lat="57.123667000" lon="12.570830000"><ele>138.0</ele><time>2013-07-16T18:58:13Z</time></trkpt>
<trkpt lat="57.123515000" lon="12.570764000"><ele>137.3</ele><time>2013-07-16T18:58:15Z</time></trkpt>
<trkpt lat="57.123346000" lon="12.570685000"><ele>136.4</ele><time>2013-07-16T18:58:17Z</time></trkpt>
<trkpt lat="57.123212000" lon="12.570656000"><ele>135.5</ele><time>2013-07-16T18:58:19Z</time></trkpt>
<trkpt lat="57.123116000" lon="12.570718000"><ele>134.5</ele><time>2013-07-16T18:58:21Z</time></trkpt>
<trkpt lat="57.123044000" lon="12.570808000"><ele>133.3</ele><time>2013-07-16T18:58:23Z</time></trkpt>
<trkpt lat="57.122970000" lon="12.570877000"><ele>132.0</ele><time>2013-07-16T18:58:25Z</time></trkpt>
<trkpt lat="57.122893000" lon="12.570930000"><ele>130.7</ele><time>2013-07-16T18:58:27Z</time></trkpt>
<trkpt lat="57.122784000" lon="12.570932000"><ele>129.6</ele><time>2013-07-16T18:58:29Z</time></trkpt>
<trkpt lat="57.122679000" lon="12.570988000"><ele>128.7</ele><time>2013-07-16T18:58:31Z</time></trkpt>
<trkpt lat="57.122599000" lon="12.571126000"><ele>128.1</ele><time>2013-07-16T18:58:33Z</time></trkpt>
<trkpt lat="57.122514000" lon="12.571249000"><ele>127.6</ele><time>2013-07-16T18:58:35Z</time></trkpt>
<trkpt lat="57.122435000" lon="12.571319000"><ele>127.4</ele><time>2013-07-16T18:58:37Z</time></trkpt>
<trkpt lat="57.122376000" lon="12.571423000"><ele>127.3</ele><time>2013-07-16T18:58:39Z</time></trkpt>
<trkpt lat="57.122330000" lon="12.571568000"><ele>127.4</ele><time>2013-07-16T18:58:41Z</time></trkpt>
<trkpt lat="57.122288000" lon="12.571712000"><ele>127.8</ele><time>2013-07-16T18:58:43Z</time></trkpt>
<trkpt lat="57.122242000" lon="12.571854000"><ele>128.3</ele><time>2013-07-16T18:58:45Z</time></trkpt>
<trkpt lat="57.122208000" lon="12.572006000"><ele>128.9</ele><time>2013-07-16T18:58:47Z</time></trkpt>
<trkpt lat="57.122170000" lon="12.572153000"><ele>129.6</ele><time>2013-07-16T18:58:49Z</time></trkpt>
<trkpt lat="57.122136000" lon="12.572308000"><ele>130.4</ele><time>2013-07-16T18:58:51Z</time></trkpt>
<trkpt lat="57.122113000" lon="12.572472000"><ele>131.1</ele><time>2013-07-16T18:58:53Z</time></trkpt>
<trkpt lat="57.122083000" lon="12.572620000"><ele>131.8</ele><time>2013-07-16T18:58:55Z</time></trkpt>
<trkpt lat="57.122054000" lon="12.572788000"><ele>132.4</ele><time>2013-07-16T18:58:57Z</time></trkpt>
<trkpt lat="57.122021000" lon="12.572956000"><ele>132.9</ele><time>2013-07-16T18:58:59Z</time></trkpt>
<trkpt lat="57.121977000" lon="12.573104000"><ele>133.4</ele><time>2013-07-16T18:59:01Z</time></trkpt>
<trkpt lat="57.121940000" lon="12.573260000"><ele>133.9</ele><time>2013-07-16T18:59:03Z</time></trkpt>
<trkpt lat="57.121887000" lon="12.573393000"><ele>134.4</ele><time>2013-07-16T18:59:05Z</time></trkpt>
<trkpt lat="57.121846000" lon="12.573537000"><ele>134.9</ele><time>2013-07-16T18:59:07Z</time></trkpt>
<trkpt lat="57.121806000" lon="12.573682000"><ele>135.4</ele><time>2013-07-16T18:59:09Z</time></trkpt>
<trkpt lat="57.121779000" lon="12.573835000"><ele>136.0</ele><time>2013-07-16T18:59:11Z</time></trkpt>
<trkpt lat="57.121743000" lon="12.573991000"><ele>136.5</ele><time>2013-07-16T18:59:13Z</time></trkpt>
<trkpt lat="57.121707000" lon="12.574152000"><ele>136.9</ele><time>2013-07-16T18:59:15Z</time></trkpt>
<trkpt lat="57.121666000" lon="12.574319000"><ele>137.3</ele><time>2013-07-16T18:59:17Z</time></trkpt>
<trkpt lat="57.121652000" lon="12.574520000"><ele>137.6</ele><time>2013-07-16T18:59:19Z</time></trkpt>
<trkpt lat="57.121618000" lon="12.574686000"><ele>138.0</ele><time>2013-07-16T18:59:21Z</time></trkpt>
<trkpt lat="57.121577000" lon="12.574843000"><ele>138.4</ele><time>2013-07-16T18:59:23Z</time></trkpt>
<trkpt lat="57.121552000" lon="12.575011000"><ele>138.8</ele><time>2013-07-16T18:59:25Z</time></trkpt>
<trkpt lat="57.121526000" lon="12.575181000"><ele>139.1</ele><time>2013-07-16T18:59:27Z</time></trkpt>
<trkpt lat="57.121504000" lon="12.575352000"><ele>139.5</ele><time>2013-07-16T18:59:29Z</time></trkpt>
<trkpt lat="57.121477000" lon="12.575521000"><ele>139.9</ele><time>2013-07-16T18:59:31Z</time></trkpt>
<trkpt lat="57.121451000" lon="12.575690000"><ele>140.3</ele><time>2013-07-16T18:59:33Z</time></trkpt>
<trkpt lat="57.121423000" lon="12.575850000"><ele>140.8</ele><time>2013-07-16T18:59:35Z</time></trkpt>
<trkpt lat="57.121406000" lon="12.576013000"><ele>141.3</ele><time>2013-07-16T18:59:37Z</time></trkpt>
<trkpt lat="57.121400000" lon="12.576183000"><ele>141.8</ele><time>2013-07-16T18:59:39Z</time></trkpt>
<trkpt lat="57.121439000" lon="12.576382000"><ele>142.2</ele><time>2013-07-16T18:59:41Z</time></trkpt>
<trkpt lat="57.121436000" lon="12.576558000"><ele>142.6</ele><time>2013-07-16T18:59:43Z</time></trkpt>
<trkpt lat="57.121402000" lon="12.576712000"><ele>142.9</ele><time>2013-07-16T18:59:45Z</time></trkpt>
<trkpt lat="57.121373000" lon="12.576872000"><ele>143.1</ele><time>2013-07-16T18:59:47Z</time></trkpt>
<trkpt lat="57.121336000" lon="12.577033000"><ele>143.3</ele><time>2013-07-16T18:59:49Z</time></trkpt>
<trkpt lat="57.121309000" lon="12.577205000"><ele>143.4</ele><time>2013-07-16T18:59:51Z</time></trkpt>
<trkpt lat="57.121239000" lon="12.577361000"><ele>143.3</ele><time>2013-07-16T18:59:53Z</time></trkpt>
<trkpt lat="57.121196000" lon="12.577528000"><ele>143.1</ele><time>2013-07-16T18:59:55Z</time></trkpt>
<trkpt lat="57.121191000" lon="12.577702000"><ele>142.8</ele><time>2013-07-16T18:59:57Z</time></trkpt>
<trkpt lat="57.121166000" lon="12.577872000"><ele>142.5</ele><time>2013-07-16T18:59:59Z</time></trkpt>
<trkpt lat="57.121124000" lon="12.578021000"><ele>142.0</ele><time>2013-07-16T19:00:01Z</time></trkpt>
<trkpt lat="57.121037000" lon="12.578121000"><ele>141.6</ele><time>2013-07-16T19:00:03Z</time></trkpt>
<trkpt lat="57.120953000" lon="12.578191000"><ele>141.4</ele><time>2013-07-16T19:00:07Z</time></trkpt>
<trkpt lat="57.120858000" lon="12.578195000"><ele>141.3</ele><time>2013-07-16T19:00:10Z</time></trkpt>
<trkpt lat="57.120761000" lon="12.578209000"><ele>141.3</ele><time>2013-07-16T19:00:12Z</time></trkpt>
<trkpt lat="57.120683000" lon="12.578263000"><ele>141.4</ele><time>2013-07-16T19:00:16Z</time></trkpt>
<trkpt lat="57.120597000" lon="12.578339000"><ele>141.9</ele><time>2013-07-16T19:00:20Z</time></trkpt>
<trkpt lat="57.120493000" lon="12.578299000"><ele>142.8</ele><time>2013-07-16T19:00:24Z</time></trkpt>
<trkpt lat="57.120406000" lon="12.578201000"><ele>143.9</ele><time>2013-07-16T19:00:29Z</time></trkpt>
<trkpt lat="57.120335000" lon="12.578043000"><ele>145.2</ele><time>2013-07-16T19:00:32Z</time></trkpt>
<trkpt lat="57.120242000" lon="12.577871000"><ele>146.8</ele><time>2013-07-16T19:00:35Z</time></trkpt>
<trkpt lat="57.120189000" lon="12.577756000"><ele>148.8</ele><time>2013-07-16T19:00:37Z</time></trkpt>
<trkpt lat="57.120114000" lon="12.577632000"><ele>151.0</ele><time>2013-07-16T19:00:39Z</time></trkpt>
<trkpt lat="57.120025000" lon="12.577498000"><ele>153.2</ele><time>2013-07-16T19:00:41Z</time></trkpt>
<trkpt lat="57.119898000" lon="12.577341000"><ele>155.6</ele><time>2013-07-16T19:00:43Z</time></trkpt>
<trkpt lat="57.119785000" lon="12.577200000"><ele>158.3</ele><time>2013-07-16T19:00:45Z</time></trkpt>
<trkpt lat="57.119700000" lon="12.577098000"><ele>160.7</ele><time>2013-07-16T19:00:47Z</time></trkpt>
<trkpt lat="57.119612000" lon="12.576982000"><ele>163.1</ele><time>2013-07-16T19:00:49Z</time></trkpt>
<trkpt lat="57.119488000" lon="12.576909000"><ele>165.7</ele><time>2013-07-16T19:00:51Z</time></trkpt>
<trkpt lat="57.119372000" lon="12.576881000"><ele>168.2</ele><time>2013-07-16T19:00:53Z</time></trkpt>
<trkpt lat="57.119307000" lon="12.576978000"><ele>170.5</ele><time>2013-07-16T19:00:57Z</time></trkpt>
<trkpt lat="57.119381000" lon="12.577086000"><ele>172.8</ele><time>2013-07-16T19:00:58Z</time></trkpt>
<trkpt lat="57.119387000" lon="12.577247000"><ele>175.1</ele><time>2013-07-16T19:01:01Z</time></trkpt>
<trkpt lat="57.119289000" lon="12.577231000"><ele>177.2</ele><time>2013-07-16T19:01:10Z</time></trkpt>
<trkpt lat="57.119178000" lon="12.577183000"><ele>179.5</ele><time>2013-07-16T19:01:12Z</time></trkpt>
<trkpt lat="57.119080000" lon="12.577111000"><ele>181.6</ele><time>2013-07-16T19:01:14Z</time></trkpt>
<trkpt lat="57.119002000" lon="12.577022000"><ele>182.7</ele><time>2013-07-16T19:01:17Z</time></trkpt>
<trkpt lat="57.118917000" lon="12.576891000"><ele>183.8</ele><time>2013-07-16T19:01:20Z</time></trkpt>
<trkpt lat="57.118854000" lon="12.576795000"><ele>184.4</ele><time>2013-07-16T19:01:22Z</time></trkpt>
<trkpt lat="57.118755000" lon="12.576660000"><ele>184.3</ele><time>2013-07-16T19:01:25Z</time></trkpt>
<trkpt lat="57.118864000" lon="12.576747000"><ele>184.1</ele><time>2013-07-16T19:01:27Z</time></trkpt>
<trkpt lat="57.118900000" lon="12.576608000"><ele>183.5</ele><time>2013-07-16T19:01:38Z</time></trkpt>
<trkpt lat="57.118874000" lon="12.576390000"><ele>182.6</ele><time>2013-07-16T19:01:42Z</time></trkpt>
<trkpt lat="57.118810000" lon="12.576192000"><ele>181.3</ele><time>2013-07-16T19:01:44Z</time></trkpt>
<trkpt lat="57.118747000" lon="12.576048000"><ele>179.6</ele><time>2013-07-16T19:01:46Z</time></trkpt>
<trkpt lat="57.118686000" lon="12.575940000"><ele>177.5</ele><time>2013-07-16T19:01:48Z</time></trkpt>
<trkpt lat="57.118627000" lon="12.575826000"><ele>175.2</ele><time>2013-07-16T19:01:50Z</time></trkpt>
<trkpt lat="57.118547000" lon="12.575716000"><ele>173.4</ele><time>2013-07-16T19:01:52Z</time></trkpt>
<trkpt lat="57.118489000" lon="12.575605000"><ele>171.9</ele><time>2013-07-16T19:01:55Z</time></trkpt>
<trkpt lat="57.118436000" lon="12.575452000"><ele>170.8</ele><time>2013-07-16T19:01:58Z</time></trkpt>
<trkpt lat="57.118402000" lon="12.575299000"><ele>170.1</ele><time>2013-07-16T19:02:00Z</time></trkpt>
<trkpt lat="57.118368000" lon="12.575143000"><ele>169.4</ele><time>2013-07-16T19:02:03Z</time></trkpt>
<trkpt lat="57.118325000" lon="12.574986000"><ele>168.8</ele><time>2013-07-16T19:02:07Z</time></trkpt>
<trkpt lat="57.118266000" lon="12.574855000"><ele>168.1</ele><time>2013-07-16T19:02:10Z</time></trkpt>
<trkpt lat="57.118199000" lon="12.574727000"><ele>167.4</ele><time>2013-07-16T19:02:13Z</time></trkpt>
<trkpt lat="57.118129000" lon="12.574595000"><ele>166.8</ele><time>2013-07-16T19:02:17Z</time></trkpt>
<trkpt lat="57.118039000" lon="12.574531000"><ele>166.1</ele><time>2013-07-16T19:02:21Z</time></trkpt>
<trkpt lat="57.117959000" lon="12.574576000"><ele>165.5</ele><time>2013-07-16T19:02:24Z</time></trkpt>
<trkpt lat="57.117905000" lon="12.574734000"><ele>164.9</ele><time>2013-07-16T19:02:28Z</time></trkpt>
<trkpt lat="57.117834000" lon="12.574850000"><ele>164.1</ele><time>2013-07-16T19:02:32Z</time></trkpt>
<trkpt lat="57.117760000" lon="12.574921000"><ele>163.1</ele><time>2013-07-16T19:02:34Z</time></trkpt>
<trkpt lat="57.117662000" lon="12.575008000"><ele>161.9</ele><time>2013-07-16T19:02:36Z</time></trkpt>
<trkpt lat="57.117559000" lon="12.575119000"><ele>160.7</ele><time>2013-07-16T19:02:38Z</time></trkpt>
<trkpt lat="57.117469000" lon="12.575228000"><ele>159.6</ele><time>2013-07-16T19:02:40Z</time></trkpt>
<trkpt lat="57.117388000" lon="12.575333000"><ele>158.9</ele><time>2013-07-16T19:02:42Z</time></trkpt>
<trkpt lat="57.117310000" lon="12.575421000"><ele>158.5</ele><time>2013-07-16T19:02:44Z</time></trkpt>
<trkpt lat="57.117230000" lon="12.575484000"><ele>158.2</ele><time>2013-07-16T19:02:46Z</time></trkpt>
<trkpt lat="57.117145000" lon="12.575539000"><ele>158.1</ele><time>2013-07-16T19:02:48Z</time></trkpt>
<trkpt lat="57.117084000" lon="12.575645000"><ele>158.0</ele><time>2013-07-16T19:02:50Z</time></trkpt>
<trkpt lat="57.116989000" lon="12.575648000"><ele>158.0</ele><time>2013-07-16T19:02:55Z</time></trkpt>
<trkpt lat="57.116912000" lon="12.575524000"><ele>158.2</ele><time>2013-07-16T19:02:58Z</time></trkpt>
<trkpt lat="57.116845000" lon="12.575424000"><ele>158.0</ele><time>2013-07-16T19:03:00Z</time></trkpt>
<trkpt lat="57.116766000" lon="12.575299000"><ele>157.7</ele><time>2013-07-16T19:03:03Z</time></trkpt>
<trkpt lat="57.116683000" lon="12.575205000"><ele>157.4</ele><time>2013-07-16T19:03:06Z</time></trkpt>
<trkpt lat="57.116606000" lon="12.575123000"><ele>157.0</ele><time>2013-07-16T19:03:10Z</time></trkpt>
<trkpt lat="57.116567000" lon="12.574982000"><ele>157.0</ele><time>2013-07-16T19:03:15Z</time></trkpt>
<trkpt lat="57.116581000" lon="12.574798000"><ele>156.9</ele><time>2013-07-16T19:03:19Z</time></trkpt>
<trkpt lat="57.116648000" lon="12.574683000"><ele>156.7</ele><time>2013-07-16T19:03:22Z</time></trkpt>
<trkpt lat="57.116667000" lon="12.574536000"><ele>156.3</ele><time>2013-07-16T19:03:26Z</time></trkpt>
<trkpt lat="57.116657000" lon="12.574381000"><ele>155.7</ele><time>2013-07-16T19:03:52Z</time></trkpt>
<trkpt lat="57.116689000" lon="12.574524000"><ele>155.1</ele><time>2013-07-16T19:04:52Z</time></trkpt>
<trkpt lat="57.116690000" lon="12.574718000"><ele>154.3</ele><time>2013-07-16T19:05:12Z</time></trkpt>
<trkpt lat="57.116663000" lon="12.574881000"><ele>153.9</ele><time>2013-07-16T19:05:17Z</time></trkpt>
<trkpt lat="57.116693000" lon="12.575054000"><ele>153.7</ele><time>2013-07-16T19:05:22Z</time></trkpt>
<trkpt lat="57.116772000" lon="12.575144000"><ele>153.4</ele><time>2013-07-16T19:05:28Z</time></trkpt>
<trkpt lat="57.116839000" lon="12.575241000"><ele>153.3</ele><time>2013-07-16T19:05:32Z</time></trkpt>
<trkpt lat="57.116906000" lon="12.575368000"><ele>152.9</ele><time>2013-07-16T19:05:35Z</time></trkpt>
<trkpt lat="57.116971000" lon="12.575575000"><ele>152.5</ele><time>2013-07-16T19:05:38Z</time></trkpt>
<trkpt lat="57.116935000" lon="12.575714000"><ele>152.3</ele><time>2013-07-16T19:05:42Z</time></trkpt>
<trkpt lat="57.116852000" lon="12.575792000"><ele>152.3</ele><time>2013-07-16T19:05:47Z</time></trkpt>
<trkpt lat="57.116750000" lon="12.575822000"><ele>152.4</ele><time>2013-07-16T19:05:55Z</time></trkpt>
<trkpt lat="57.116679000" lon="12.575896000"><ele>152.6</ele><time>2013-07-16T19:05:59Z</time></trkpt>
<trkpt lat="57.116603000" lon="12.575995000"><ele>152.8</ele><time>2013-07-16T19:06:03Z</time></trkpt>
<trkpt lat="57.116504000" lon="12.576034000"><ele>153.1</ele><time>2013-07-16T19:06:07Z</time></trkpt>
<trkpt lat="57.116414000" lon="12.576042000"><ele>153.6</ele><time>2013-07-16T19:06:10Z</time></trkpt>
<trkpt lat="57.116297000" lon="12.575989000"><ele>154.2</ele><time>2013-07-16T19:06:13Z</time></trkpt>
<trkpt lat="57.116199000" lon="12.575955000"><ele>154.8</ele><time>2013-07-16T19:06:16Z</time></trkpt>
<trkpt lat="57.116101000" lon="12.575893000"><ele>155.2</ele><time>2013-07-16T19:06:19Z</time></trkpt>
<trkpt lat="57.116019000" lon="12.575815000"><ele>155.7</ele><time>2013-07-16T19:06:22Z</time></trkpt>
<trkpt lat="57.115938000" lon="12.575715000"><ele>156.0</ele><time>2013-07-16T19:06:25Z</time></trkpt>
<trkpt lat="57.115858000" lon="12.575623000"><ele>156.8</ele><time>2013-07-16T19:06:28Z</time></trkpt>
<trkpt lat="57.115765000" lon="12.575560000"><ele>157.8</ele><time>2013-07-16T19:06:30Z</time></trkpt>
<trkpt lat="57.115681000" lon="12.575469000"><ele>158.8</ele><time>2013-07-16T19:06:33Z</time></trkpt>
<trkpt lat="57.115596000" lon="12.575379000"><ele>160.0</ele><time>2013-07-16T19:06:36Z</time></trkpt>
<trkpt lat="57.115524000" lon="12.575279000"><ele>161.3</ele><time>2013-07-16T19:06:40Z</time></trkpt>
<trkpt lat="57.115445000" lon="12.575187000"><ele>162.5</ele><time>2013-07-16T19:06:43Z</time></trkpt>
<trkpt lat="57.115353000" lon="12.575131000"><ele>163.8</ele><time>2013-07-16T19:06:46Z</time></trkpt>
<trkpt lat="57.115234000" lon="12.575042000"><ele>165.1</ele><time>2013-07-16T19:06:49Z</time></trkpt>
<trkpt lat="57.115155000" lon="12.574970000"><ele>166.6</ele><time>2013-07-16T19:06:51Z</time></trkpt>
<trkpt lat="57.115086000" lon="12.574891000"><ele>168.2</ele><time>2013-07-16T19:06:54Z</time></trkpt>
<trkpt lat="57.115003000" lon="12.574795000"><ele>169.7</ele><time>2013-07-16T19:06:57Z</time></trkpt>
<trkpt lat="57.114930000" lon="12.574682000"><ele>170.9</ele><time>2013-07-16T19:07:04Z</time></trkpt>
<trkpt lat="57.114873000" lon="12.574570000"><ele>171.8</ele><time>2013-07-16T19:07:07Z</time></trkpt>
<trkpt lat="57.114871000" lon="12.574377000"><ele>172.6</ele><time>2013-07-16T19:07:11Z</time></trkpt>
<trkpt lat="57.114856000" lon="12.574191000"><ele>173.3</ele><time>2013-07-16T19:07:15Z</time></trkpt>
<trkpt lat="57.114828000" lon="12.574043000"><ele>173.9</ele><time>2013-07-16T19:07:19Z</time></trkpt>
<trkpt lat="57.114797000" lon="12.573877000"><ele>174.3</ele><time>2013-07-16T19:07:23Z</time></trkpt>
<trkpt lat="57.114761000" lon="12.573728000"><ele>174.9</ele><time>2013-07-16T19:07:27Z</time></trkpt>
<trkpt lat="57.114737000" lon="12.573567000"><ele>175.5</ele><time>2013-07-16T19:07:31Z</time></trkpt>
<trkpt lat="57.114706000" lon="12.573424000"><ele>176.1</ele><time>2013-07-16T19:07:34Z</time></trkpt>
<trkpt lat="57.114700000" lon="12.573239000"><ele>176.8</ele><time>2013-07-16T19:07:38Z</time></trkpt>
<trkpt lat="57.114678000" lon="12.573058000"><ele>177.8</ele><time>2013-07-16T19:07:41Z</time></trkpt>
<trkpt lat="57.114649000" lon="12.572890000"><ele>178.9</ele><time>2013-07-16T19:07:46Z</time></trkpt>
<trkpt lat="57.114600000" lon="12.572754000"><ele>180.7</ele><time>2013-07-16T19:07:48Z</time></trkpt>
<trkpt lat="57.114548000" lon="12.572628000"><ele>182.5</ele><time>2013-07-16T19:07:51Z</time></trkpt>
<trkpt lat="57.114509000" lon="12.572483000"><ele>184.2</ele><time>2013-07-16T19:07:54Z</time></trkpt>
<trkpt lat="57.114461000" lon="12.572330000"><ele>185.2</ele><time>2013-07-16T19:07:57Z</time></trkpt>
<trkpt lat="57.114407000" lon="12.572152000"><ele>186.2</ele><time>2013-07-16T19:08:00Z</time></trkpt>
<trkpt lat="57.114352000" lon="12.572013000"><ele>186.6</ele><time>2013-07-16T19:08:04Z</time></trkpt>
<trkpt lat="57.114291000" lon="12.571847000"><ele>186.7</ele><time>2013-07-16T19:08:08Z</time></trkpt>
<trkpt lat="57.114293000" lon="12.571686000"><ele>186.3</ele><time>2013-07-16T19:08:11Z</time></trkpt>
<trkpt lat="57.114303000" lon="12.571481000"><ele>185.2</ele><time>2013-07-16T19:08:14Z</time></trkpt>
<trkpt lat="57.114282000" lon="12.571296000"><ele>183.7</ele><time>2013-07-16T19:08:17Z</time></trkpt>
<trkpt lat="57.114312000" lon="12.571154000"><ele>181.9</ele><time>2013-07-16T19:08:20Z</time></trkpt>
<trkpt lat="57.114316000" lon="12.570973000"><ele>179.3</ele><time>2013-07-16T19:08:23Z</time></trkpt>
<trkpt lat="57.114321000" lon="12.570801000"><ele>176.4</ele><time>2013-07-16T19:08:26Z</time></trkpt>
<trkpt lat="57.114316000" lon="12.570604000"><ele>173.8</ele><time>2013-07-16T19:08:30Z</time></trkpt>
<trkpt lat="57.114312000" lon="12.570447000"><ele>171.6</ele><time>2013-07-16T19:08:33Z</time></trkpt>
<trkpt lat="57.114302000" lon="12.570285000"><ele>169.8</ele><time>2013-07-16T19:08:36Z</time></trkpt>
<trkpt lat="57.114284000" lon="12.570129000"><ele>168.3</ele><time>2013-07-16T19:08:40Z</time></trkpt>
<trkpt lat="57.114267000" lon="12.569940000"><ele>167.2</ele><time>2013-07-16T19:08:44Z</time></trkpt>
<trkpt lat="57.114242000" lon="12.569743000"><ele>166.4</ele><time>2013-07-16T19:08:48Z</time></trkpt>
<trkpt lat="57.114194000" lon="12.569618000"><ele>166.1</ele><time>2013-07-16T19:08:50Z</time></trkpt>
<trkpt lat="57.114162000" lon="12.569477000"><ele>166.2</ele><time>2013-07-16T19:08:53Z</time></trkpt>
<trkpt lat="57.114129000" lon="12.569324000"><ele>166.8</ele><time>2013-07-16T19:08:56Z</time></trkpt>
<trkpt lat="57.114091000" lon="12.569191000"><ele>168.1</ele><time>2013-07-16T19:08:59Z</time></trkpt>
<trkpt lat="57.114057000" lon="12.568996000"><ele>169.6</ele><time>2013-07-16T19:09:02Z</time></trkpt>
<trkpt lat="57.114033000" lon="12.568796000"><ele>171.2</ele><time>2013-07-16T19:09:05Z</time></trkpt>
<trkpt lat="57.114012000" lon="12.568625000"><ele>172.9</ele><time>2013-07-16T19:09:08Z</time></trkpt>
<trkpt lat="57.113980000" lon="12.568452000"><ele>174.7</ele><time>2013-07-16T19:09:10Z</time></trkpt>
<trkpt lat="57.113943000" lon="12.568284000"><ele>176.7</ele><time>2013-07-16T19:09:13Z</time></trkpt>
<trkpt lat="57.113896000" lon="12.568145000"><ele>178.3</ele><time>2013-07-16T19:09:16Z</time></trkpt>
<trkpt lat="57.113845000" lon="12.568002000"><ele>179.8</ele><time>2013-07-16T19:09:19Z</time></trkpt>
<trkpt lat="57.113772000" lon="12.567866000"><ele>181.4</ele><time>2013-07-16T19:09:23Z</time></trkpt>
<trkpt lat="57.113711000" lon="12.567710000"><ele>182.6</ele><time>2013-07-16T19:09:26Z</time></trkpt>
<trkpt lat="57.113724000" lon="12.567540000"><ele>183.5</ele><time>2013-07-16T19:09:31Z</time></trkpt>
<trkpt lat="57.113729000" lon="12.567352000"><ele>184.1</ele><time>2013-07-16T19:09:49Z</time></trkpt>
<trkpt lat="57.113743000" lon="12.567503000"><ele>184.4</ele><time>2013-07-16T19:10:27Z</time></trkpt>
<trkpt lat="57.113685000" lon="12.567612000"><ele>184.6</ele><time>2013-07-16T19:10:39Z</time></trkpt>
<trkpt lat="57.113648000" lon="12.567750000"><ele>184.7</ele><time>2013-07-16T19:10:47Z</time></trkpt>
<trkpt lat="57.113571000" lon="12.567798000"><ele>184.5</ele><time>2013-07-16T19:10:51Z</time></trkpt>
<trkpt lat="57.113513000" lon="12.567905000"><ele>183.9</ele><time>2013-07-16T19:10:55Z</time></trkpt>
<trkpt lat="57.113438000" lon="12.568004000"><ele>183.7</ele><time>2013-07-16T19:11:00Z</time></trkpt>
<trkpt lat="57.113360000" lon="12.568065000"><ele>183.7</ele><time>2013-07-16T19:11:05Z</time></trkpt>
<trkpt lat="57.113288000" lon="12.568135000"><ele>183.6</ele><time>2013-07-16T19:11:09Z</time></trkpt>
<trkpt lat="57.113193000" lon="12.568192000"><ele>183.6</ele><time>2013-07-16T19:11:14Z</time></trkpt>
<trkpt lat="57.113111000" lon="12.568213000"><ele>183.8</ele><time>2013-07-16T19:11:19Z</time></trkpt>
<trkpt lat="57.113030000" lon="12.568213000"><ele>184.0</ele><time>2013-07-16T19:11:23Z</time></trkpt>
<trkpt lat="57.112962000" lon="12.568091000"><ele>184.3</ele><time>2013-07-16T19:11:27Z</time></trkpt>
<trkpt lat="57.112925000" lon="12.567948000"><ele>184.5</ele><time>2013-07-16T19:11:30Z</time></trkpt>
<trkpt lat="57.112871000" lon="12.567827000"><ele>184.7</ele><time>2013-07-16T19:11:34Z</time></trkpt>
<trkpt lat="57.112798000" lon="12.567687000"><ele>184.8</ele><time>2013-07-16T19:11:38Z</time></trkpt>
<trkpt lat="57.112744000" lon="12.567521000"><ele>185.0</ele><time>2013-07-16T19:11:42Z</time></trkpt>
<trkpt lat="57.112690000" lon="12.567368000"><ele>185.1</ele><time>2013-07-16T19:11:46Z</time></trkpt>
<trkpt lat="57.112632000" lon="12.567210000"><ele>185.1</ele><time>2013-07-16T19:11:51Z</time></trkpt>
<trkpt lat="57.112608000" lon="12.567067000"><ele>185.1</ele><time>2013-07-16T19:11:55Z</time></trkpt>
<trkpt lat="57.112584000" lon="12.566924000"><ele>184.8</ele><time>2013-07-16T19:11:58Z</time></trkpt>
<trkpt lat="57.112511000" lon="12.566747000"><ele>184.4</ele><time>2013-07-16T19:12:01Z</time></trkpt>
<trkpt lat="57.112439000" lon="12.566639000"><ele>183.9</ele><time>2013-07-16T19:12:03Z</time></trkpt>
<trkpt lat="57.112370000" lon="12.566548000"><ele>183.4</ele><time>2013-07-16T19:12:05Z</time></trkpt>
<trkpt lat="57.112285000" lon="12.566484000"><ele>182.9</ele><time>2013-07-16T19:12:08Z</time></trkpt>
<trkpt lat="57.112192000" lon="12.566386000"><ele>182.4</ele><time>2013-07-16T19:12:12Z</time></trkpt>
<trkpt lat="57.112112000" lon="12.566301000"><ele>181.9</ele><time>2013-07-16T19:12:15Z</time></trkpt>
<trkpt lat="57.112016000" lon="12.566215000"><ele>181.2</ele><time>2013-07-16T19:12:19Z</time></trkpt>
<trkpt lat="57.111946000" lon="12.566090000"><ele>180.4</ele><time>2013-07-16T19:12:22Z</time></trkpt>
<trkpt lat="57.111872000" lon="12.565914000"><ele>179.5</ele><time>2013-07-16T19:12:24Z</time></trkpt>
<trkpt lat="57.111783000" lon="12.565764000"><ele>178.4</ele><time>2013-07-16T19:12:26Z</time></trkpt>
<trkpt lat="57.111705000" lon="12.565631000"><ele>177.2</ele><time>2013-07-16T19:12:28Z</time></trkpt>
<trkpt lat="57.111654000" lon="12.565480000"><ele>175.3</ele><time>2013-07-16T19:12:30Z</time></trkpt>
<trkpt lat="57.111560000" lon="12.565298000"><ele>173.1</ele><time>2013-07-16T19:12:32Z</time></trkpt>
<trkpt lat="57.111474000" lon="12.565167000"><ele>170.8</ele><time>2013-07-16T19:12:34Z</time></trkpt>
<trkpt lat="57.111407000" lon="12.565035000"><ele>168.1</ele><time>2013-07-16T19:12:36Z</time></trkpt>
<trkpt lat="57.111391000" lon="12.564886000"><ele>165.4</ele><time>2013-07-16T19:12:38Z</time></trkpt>
<trkpt lat="57.111383000" lon="12.564684000"><ele>162.6</ele><time>2013-07-16T19:12:41Z</time></trkpt>
<trkpt lat="57.111352000" lon="12.564524000"><ele>159.9</ele><time>2013-07-16T19:12:44Z</time></trkpt>
<trkpt lat="57.111315000" lon="12.564305000"><ele>157.4</ele><time>2013-07-16T19:12:47Z</time></trkpt>
<trkpt lat="57.111284000" lon="12.564096000"><ele>155.1</ele><time>2013-07-16T19:12:49Z</time></trkpt>
<trkpt lat="57.111257000" lon="12.563912000"><ele>152.8</ele><time>2013-07-16T19:12:51Z</time></trkpt>
<trkpt lat="57.111193000" lon="12.563715000"><ele>150.9</ele><time>2013-07-16T19:12:53Z</time></trkpt>
<trkpt lat="57.111104000" lon="12.563513000"><ele>149.6</ele><time>2013-07-16T19:12:55Z</time></trkpt>
<trkpt lat="57.111044000" lon="12.563400000"><ele>148.7</ele><time>2013-07-16T19:12:56Z</time></trkpt>
<trkpt lat="57.110923000" lon="12.563215000"><ele>147.9</ele><time>2013-07-16T19:12:58Z</time></trkpt>
<trkpt lat="57.110828000" lon="12.563070000"><ele>147.4</ele><time>2013-07-16T19:13:00Z</time></trkpt>
<trkpt lat="57.110730000" lon="12.562911000"><ele>147.0</ele><time>2013-07-16T19:13:02Z</time></trkpt>
<trkpt lat="57.110663000" lon="12.562822000"><ele>146.8</ele><time>2013-07-16T19:13:03Z</time></trkpt>
<trkpt lat="57.110535000" lon="12.562647000"><ele>146.3</ele><time>2013-07-16T19:13:05Z</time></trkpt>
<trkpt lat="57.110420000" lon="12.562484000"><ele>146.0</ele><time>2013-07-16T19:13:07Z</time></trkpt>
<trkpt lat="57.110326000" lon="12.562330000"><ele>145.7</ele><time>2013-07-16T19:13:09Z</time></trkpt>
<trkpt lat="57.110282000" lon="12.562198000"><ele>145.5</ele><time>2013-07-16T19:13:13Z</time></trkpt>
<trkpt lat="57.110320000" lon="12.562048000"><ele>145.5</ele><time>2013-07-16T19:13:19Z</time></trkpt>
<trkpt lat="57.110349000" lon="12.561896000"><ele>145.5</ele><time>2013-07-16T19:13:24Z</time></trkpt>
<trkpt lat="57.110363000" lon="12.561727000"><ele>145.5</ele><time>2013-07-16T19:13:27Z</time></trkpt>
<trkpt lat="57.110342000" lon="12.561570000"><ele>145.8</ele><time>2013-07-16T19:13:29Z</time></trkpt>
<trkpt lat="57.110316000" lon="12.561374000"><ele>146.4</ele><time>2013-07-16T19:13:31Z</time></trkpt>
<trkpt lat="57.110298000" lon="12.561181000"><ele>147.1</ele><time>2013-07-16T19:13:34Z</time></trkpt>
<trkpt lat="57.110299000" lon="12.560991000"><ele>147.9</ele><time>2013-07-16T19:13:37Z</time></trkpt>
<trkpt lat="57.110287000" lon="12.560826000"><ele>149.1</ele><time>2013-07-16T19:13:39Z</time></trkpt>
<trkpt lat="57.110244000" lon="12.560645000"><ele>150.2</ele><time>2013-07-16T19:13:42Z</time></trkpt>
<trkpt lat="57.110202000" lon="12.560516000"><ele>151.4</ele><time>2013-07-16T19:13:44Z</time></trkpt>
<trkpt lat="57.110171000" lon="12.560370000"><ele>152.4</ele><time>2013-07-16T19:13:46Z</time></trkpt>
<trkpt lat="57.110173000" lon="12.560146000"><ele>153.1</ele><time>2013-07-16T19:13:49Z</time></trkpt>
<trkpt lat="57.110179000" lon="12.559976000"><ele>153.6</ele><time>2013-07-16T19:13:52Z</time></trkpt>
<trkpt lat="57.110205000" lon="12.559819000"><ele>153.8</ele><time>2013-07-16T19:14:06Z</time></trkpt>
<trkpt lat="57.110216000" lon="12.559653000"><ele>153.6</ele><time>2013-07-16T19:14:12Z</time></trkpt>
<trkpt lat="57.110288000" lon="12.559569000"><ele>153.3</ele><time>2013-07-16T19:14:17Z</time></trkpt>
<trkpt lat="57.110360000" lon="12.559493000"><ele>152.8</ele><time>2013-07-16T19:14:22Z</time></trkpt>
<trkpt lat="57.110444000" lon="12.559435000"><ele>152.2</ele><time>2013-07-16T19:14:28Z</time></trkpt>
<trkpt lat="57.110373000" lon="12.559349000"><ele>151.4</ele><time>2013-07-16T19:15:22Z</time></trkpt>
<trkpt lat="57.110269000" lon="12.559406000"><ele>150.6</ele><time>2013-07-16T19:15:28Z</time></trkpt>
<trkpt lat="57.110174000" lon="12.559384000"><ele>149.7</ele><time>2013-07-16T19:15:30Z</time></trkpt>
<trkpt lat="57.110063000" lon="12.559328000"><ele>148.8</ele><time>2013-07-16T19:15:32Z</time></trkpt>
<trkpt lat="57.109983000" lon="12.559272000"><ele>148.0</ele><time>2013-07-16T19:15:33Z</time></trkpt>
<trkpt lat="57.109894000" lon="12.559191000"><ele>147.3</ele><time>2013-07-16T19:15:34Z</time></trkpt>
<trkpt lat="57.109819000" lon="12.559092000"><ele>146.9</ele><time>2013-07-16T19:15:35Z</time></trkpt>
<trkpt lat="57.109702000" lon="12.558890000"><ele>146.4</ele><time>2013-07-16T19:15:37Z</time></trkpt>
<trkpt lat="57.109604000" lon="12.558658000"><ele>146.0</ele><time>2013-07-16T19:15:39Z</time></trkpt>
<trkpt lat="57.109496000" lon="12.558414000"><ele>145.6</ele><time>2013-07-16T19:15:41Z</time></trkpt>
<trkpt lat="57.109436000" lon="12.558298000"><ele>145.2</ele><time>2013-07-16T19:15:42Z</time></trkpt>
<trkpt lat="57.109310000" lon="12.558099000"><ele>144.8</ele><time>2013-07-16T19:15:44Z</time></trkpt>
<trkpt lat="57.109240000" lon="12.558000000"><ele>144.3</ele><time>2013-07-16T19:15:45Z</time></trkpt>
<trkpt lat="57.109174000" lon="12.557897000"><ele>143.4</ele><time>2013-07-16T19:15:46Z</time></trkpt>
<trkpt lat="57.109068000" lon="12.557689000"><ele>142.3</ele><time>2013-07-16T19:15:48Z</time></trkpt>
<trkpt lat="57.109022000" lon="12.557554000"><ele>140.5</ele><time>2013-07-16T19:15:49Z</time></trkpt>
<trkpt lat="57.108970000" lon="12.557412000"><ele>138.1</ele><time>2013-07-16T19:15:50Z</time></trkpt>
<trkpt lat="57.108918000" lon="12.557295000"><ele>135.5</ele><time>2013-07-16T19:15:51Z</time></trkpt>
<trkpt lat="57.108876000" lon="12.557119000"><ele>132.6</ele><time>2013-07-16T19:15:53Z</time></trkpt>
<trkpt lat="57.108873000" lon="12.556951000"><ele>129.5</ele><time>2013-07-16T19:15:55Z</time></trkpt>
<trkpt lat="57.108913000" lon="12.556761000"><ele>126.8</ele><time>2013-07-16T19:15:58Z</time></trkpt>
<trkpt lat="57.108831000" lon="12.556764000"><ele>124.2</ele><time>2013-07-16T19:16:05Z</time></trkpt>
<trkpt lat="57.108741000" lon="12.556880000"><ele>121.6</ele><time>2013-07-16T19:16:09Z</time></trkpt>
<trkpt lat="57.108634000" lon="12.557039000"><ele>119.0</ele><time>2013-07-16T19:16:12Z</time></trkpt>
<trkpt lat="57.108542000" lon="12.557215000"><ele>116.8</ele><time>2013-07-16T19:16:14Z</time></trkpt>
<trkpt lat="57.108417000" lon="12.557360000"><ele>114.9</ele><time>2013-07-16T19:16:16Z</time></trkpt>
<trkpt lat="57.108319000" lon="12.557507000"><ele>113.7</ele><time>2013-07-16T19:16:18Z</time></trkpt>
<trkpt lat="57.108232000" lon="12.557674000"><ele>113.0</ele><time>2013-07-16T19:16:20Z</time></trkpt>
<trkpt lat="57.108148000" lon="12.557834000"><ele>112.6</ele><time>2013-07-16T19:16:22Z</time></trkpt>
<trkpt lat="57.108052000" lon="12.557978000"><ele>112.5</ele><time>2013-07-16T19:16:24Z</time></trkpt>
<trkpt lat="57.107953000" lon="12.558116000"><ele>112.5</ele><time>2013-07-16T19:16:26Z</time></trkpt>
<trkpt lat="57.107862000" lon="12.558256000"><ele>112.1</ele><time>2013-07-16T19:16:28Z</time></trkpt>
<trkpt lat="57.107780000" lon="12.558380000"><ele>111.8</ele><time>2013-07-16T19:16:30Z</time></trkpt>
<trkpt lat="57.107698000" lon="12.558496000"><ele>111.4</ele><time>2013-07-16T19:16:32Z</time></trkpt>
<trkpt lat="57.107612000" lon="12.558608000"><ele>111.2</ele><time>2013-07-16T19:16:34Z</time></trkpt>
<trkpt lat="57.107528000" lon="12.558720000"><ele>110.9</ele><time>2013-07-16T19:16:36Z</time></trkpt>
<trkpt lat="57.107439000" lon="12.558833000"><ele>110.8</ele><time>2013-07-16T19:16:38Z</time></trkpt>
<trkpt lat="57.107357000" lon="12.558955000"><ele>110.6</ele><time>2013-07-16T19:16:40Z</time></trkpt>
<trkpt lat="57.107270000" lon="12.559066000"><ele>110.6</ele><time>2013-07-16T19:16:42Z</time></trkpt>
<trkpt lat="57.107187000" lon="12.559172000"><ele>110.6</ele><time>2013-07-16T19:16:44Z</time></trkpt>
<trkpt lat="57.107111000" lon="12.559283000"><ele>110.7</ele><time>2013-07-16T19:16:46Z</time></trkpt>
<trkpt lat="57.107030000" lon="12.559393000"><ele>110.9</ele><time>2013-07-16T19:16:48Z</time></trkpt>
<trkpt lat="57.106953000" lon="12.559506000"><ele>110.9</ele><time>2013-07-16T19:16:50Z</time></trkpt>
<trkpt lat="57.106876000" lon="12.559619000"><ele>110.9</ele><time>2013-07-16T19:16:52Z</time></trkpt>
<trkpt lat="57.106800000" lon="12.559729000"><ele>110.9</ele><time>2013-07-16T19:16:54Z</time></trkpt>
<trkpt lat="57.106728000" lon="12.559829000"><ele>110.9</ele><time>2013-07-16T19:16:56Z</time></trkpt>
<trkpt lat="57.106657000" lon="12.559932000"><ele>110.9</ele><time>2013-07-16T19:16:58Z</time></trkpt>
<trkpt lat="57.106588000" lon="12.560037000"><ele>111.0</ele><time>2013-07-16T19:17:00Z</time></trkpt>
<trkpt lat="57.106517000" lon="12.560149000"><ele>110.9</ele><time>2013-07-16T19:17:02Z</time></trkpt>
<trkpt lat="57.106443000" lon="12.560256000"><ele>110.9</ele><time>2013-07-16T19:17:04Z</time></trkpt>
<trkpt lat="57.106359000" lon="12.560340000"><ele>110.8</ele><time>2013-07-16T19:17:06Z</time></trkpt>
<trkpt lat="57.106275000" lon="12.560428000"><ele>110.8</ele><time>2013-07-16T19:17:08Z</time></trkpt>
<trkpt lat="57.106196000" lon="12.560525000"><ele>110.7</ele><time>2013-07-16T19:17:10Z</time></trkpt>
<trkpt lat="57.106113000" lon="12.560630000"><ele>110.6</ele><time>2013-07-16T19:17:12Z</time></trkpt>
<trkpt lat="57.106036000" lon="12.560750000"><ele>110.7</ele><time>2013-07-16T19:17:14Z</time></trkpt>
<trkpt lat="57.105960000" lon="12.560856000"><ele>110.8</ele><time>2013-07-16T19:17:16Z</time></trkpt>
<trkpt lat="57.105880000" lon="12.560969000"><ele>111.0</ele><time>2013-07-16T19:17:18Z</time></trkpt>
<trkpt lat="57.105800000" lon="12.561092000"><ele>111.2</ele><time>2013-07-16T19:17:20Z</time></trkpt>
<trkpt lat="57.105719000" lon="12.561210000"><ele>111.5</ele><time>2013-07-16T19:17:22Z</time></trkpt>
<trkpt lat="57.105642000" lon="12.561318000"><ele>112.0</ele><time>2013-07-16T19:17:24Z</time></trkpt>
<trkpt lat="57.105570000" lon="12.561422000"><ele>112.8</ele><time>2013-07-16T19:17:26Z</time></trkpt>
<trkpt lat="57.105508000" lon="12.561528000"><ele>113.6</ele><time>2013-07-16T19:17:28Z</time></trkpt>
<trkpt lat="57.105393000" lon="12.561580000"><ele>114.8</ele><time>2013-07-16T19:17:31Z</time></trkpt>
<trkpt lat="57.105287000" lon="12.561497000"><ele>116.4</ele><time>2013-07-16T19:17:34Z</time></trkpt>
<trkpt lat="57.105199000" lon="12.561399000"><ele>118.1</ele><time>2013-07-16T19:17:38Z</time></trkpt>
<trkpt lat="57.105103000" lon="12.561312000"><ele>120.2</ele><time>2013-07-16T19:17:41Z</time></trkpt>
<trkpt lat="57.105023000" lon="12.561228000"><ele>122.5</ele><time>2013-07-16T19:17:43Z</time></trkpt>
<trkpt lat="57.104947000" lon="12.561148000"><ele>124.8</ele><time>2013-07-16T19:17:46Z</time></trkpt>
<trkpt lat="57.104876000" lon="12.561060000"><ele>127.2</ele><time>2013-07-16T19:17:49Z</time></trkpt>
<trkpt lat="57.104811000" lon="12.560945000"><ele>129.4</ele><time>2013-07-16T19:17:53Z</time></trkpt>
<trkpt lat="57.104771000" lon="12.560787000"><ele>131.6</ele><time>2013-07-16T19:17:58Z</time></trkpt>
<trkpt lat="57.104729000" lon="12.560656000"><ele>133.8</ele><time>2013-07-16T19:18:02Z</time></trkpt>
<trkpt lat="57.104687000" lon="12.560498000"><ele>135.9</ele><time>2013-07-16T19:18:04Z</time></trkpt>
<trkpt lat="57.104640000" lon="12.560359000"><ele>137.7</ele><time>2013-07-16T19:18:07Z</time></trkpt>
<trkpt lat="57.104585000" lon="12.560221000"><ele>139.5</ele><time>2013-07-16T19:18:10Z</time></trkpt>
<trkpt lat="57.104541000" lon="12.560067000"><ele>141.0</ele><time>2013-07-16T19:18:13Z</time></trkpt>
<trkpt lat="57.104493000" lon="12.559933000"><ele>142.5</ele><time>2013-07-16T19:18:16Z</time></trkpt>
<trkpt lat="57.104442000" lon="12.559813000"><ele>143.9</ele><time>2013-07-16T19:18:18Z</time></trkpt>
<trkpt lat="57.104377000" lon="12.559659000"><ele>145.4</ele><time>2013-07-16T19:18:21Z</time></trkpt>
<trkpt lat="57.104315000" lon="12.559494000"><ele>146.8</ele><time>2013-07-16T19:18:25Z</time></trkpt>
<trkpt lat="57.104264000" lon="12.559354000"><ele>148.3</ele><time>2013-07-16T19:18:29Z</time></trkpt>
<trkpt lat="57.104207000" lon="12.559204000"><ele>150.0</ele><time>2013-07-16T19:18:33Z</time></trkpt>
<trkpt lat="57.104198000" lon="12.559055000"><ele>151.4</ele><time>2013-07-16T19:18:36Z</time></trkpt>
<trkpt lat="57.104173000" lon="12.558903000"><ele>152.9</ele><time>2013-07-16T19:18:39Z</time></trkpt>
<trkpt lat="57.104151000" lon="12.558742000"><ele>154.4</ele><time>2013-07-16T19:18:42Z</time></trkpt>
<trkpt lat="57.104128000" lon="12.558587000"><ele>155.7</ele><time>2013-07-16T19:18:45Z</time></trkpt>
<trkpt lat="57.104100000" lon="12.558411000"><ele>157.1</ele><time>2013-07-16T19:18:49Z</time></trkpt>
<trkpt lat="57.104063000" lon="12.558248000"><ele>158.3</ele><time>2013-07-16T19:18:53Z</time></trkpt>
<trkpt lat="57.104044000" lon="12.558077000"><ele>159.5</ele><time>2013-07-16T19:18:56Z</time></trkpt>
<trkpt lat="57.104011000" lon="12.557941000"><ele>160.4</ele><time>2013-07-16T19:18:59Z</time></trkpt>
<trkpt lat="57.103985000" lon="12.557777000"><ele>161.5</ele><time>2013-07-16T19:19:02Z</time></trkpt>
<trkpt lat="57.103964000" lon="12.557605000"><ele>162.5</ele><time>2013-07-16T19:19:05Z</time></trkpt>
<trkpt lat="57.103937000" lon="12.557462000"><ele>163.5</ele><time>2013-07-16T19:19:08Z</time></trkpt>
<trkpt lat="57.103908000" lon="12.557310000"><ele>164.7</ele><time>2013-07-16T19:19:11Z</time></trkpt>
<trkpt lat="57.103921000" lon="12.557157000"><ele>165.9</ele><time>2013-07-16T19:19:14Z</time></trkpt>
<trkpt lat="57.103890000" lon="12.556995000"><ele>167.1</ele><time>2013-07-16T19:19:17Z</time></trkpt>
<trkpt lat="57.103870000" lon="12.556811000"><ele>168.3</ele><time>2013-07-16T19:19:21Z</time></trkpt>
<trkpt lat="57.103863000" lon="12.556611000"><ele>169.3</ele><time>2013-07-16T19:19:25Z</time></trkpt>
<trkpt lat="57.103843000" lon="12.556419000"><ele>170.1</ele><time>2013-07-16T19:19:29Z</time></trkpt>
<trkpt lat="57.103826000" lon="12.556255000"><ele>170.9</ele><time>2013-07-16T19:19:33Z</time></trkpt>
<trkpt lat="57.103804000" lon="12.556060000"><ele>171.7</ele><time>2013-07-16T19:19:37Z</time></trkpt>
<trkpt lat="57.103801000" lon="12.555898000"><ele>172.2</ele><time>2013-07-16T19:19:41Z</time></trkpt>
<trkpt lat="57.103802000" lon="12.555698000"><ele>171.9</ele><time>2013-07-16T19:19:45Z</time></trkpt>
<trkpt lat="57.103788000" lon="12.555525000"><ele>171.0</ele><time>2013-07-16T19:19:49Z</time></trkpt>
<trkpt lat="57.103797000" lon="12.555339000"><ele>169.7</ele><time>2013-07-16T19:19:53Z</time></trkpt>
<trkpt lat="57.103790000" lon="12.555178000"><ele>167.8</ele><time>2013-07-16T19:19:56Z</time></trkpt>
<trkpt lat="57.103804000" lon="12.555020000"><ele>165.3</ele><time>2013-07-16T19:19:59Z</time></trkpt>
<trkpt lat="57.103839000" lon="12.554871000"><ele>162.7</ele><time>2013-07-16T19:20:02Z</time></trkpt>
<trkpt lat="57.103838000" lon="12.554659000"><ele>160.2</ele><time>2013-07-16T19:20:06Z</time></trkpt>
<trkpt lat="57.103845000" lon="12.554510000"><ele>157.5</ele><time>2013-07-16T19:20:09Z</time></trkpt>
<trkpt lat="57.103843000" lon="12.554315000"><ele>154.6</ele><time>2013-07-16T19:20:13Z</time></trkpt>
<trkpt lat="57.103857000" lon="12.554125000"><ele>151.6</ele><time>2013-07-16T19:20:17Z</time></trkpt>
<trkpt lat="57.103843000" lon="12.553952000"><ele>148.7</ele><time>2013-07-16T19:20:20Z</time></trkpt>
<trkpt lat="57.103822000" lon="12.553788000"><ele>146.7</ele><time>2013-07-16T19:20:23Z</time></trkpt>
<trkpt lat="57.103816000" lon="12.553636000"><ele>145.4</ele><time>2013-07-16T19:20:26Z</time></trkpt>
<trkpt lat="57.103819000" lon="12.553475000"><ele>144.4</ele><time>2013-07-16T19:20:29Z</time></trkpt>
<trkpt lat="57.103832000" lon="12.553314000"><ele>143.9</ele><time>2013-07-16T19:20:32Z</time></trkpt>
<trkpt lat="57.103838000" lon="12.553123000"><ele>143.8</ele><time>2013-07-16T19:20:35Z</time></trkpt>
<trkpt lat="57.103863000" lon="12.552945000"><ele>143.9</ele><time>2013-07-16T19:20:38Z</time></trkpt>
<trkpt lat="57.103875000" lon="12.552757000"><ele>144.2</ele><time>2013-07-16T19:20:41Z</time></trkpt>
<trkpt lat="57.103920000" lon="12.552592000"><ele>145.1</ele><time>2013-07-16T19:20:44Z</time></trkpt>
<trkpt lat="57.103920000" lon="12.552368000"><ele>146.4</ele><time>2013-07-16T19:20:47Z</time></trkpt>
<trkpt lat="57.103912000" lon="12.552208000"><ele>148.0</ele><time>2013-07-16T19:20:49Z</time></trkpt>
<trkpt lat="57.103883000" lon="12.552025000"><ele>149.9</ele><time>2013-07-16T19:20:52Z</time></trkpt>
<trkpt lat="57.103817000" lon="12.551876000"><ele>151.9</ele><time>2013-07-16T19:20:55Z</time></trkpt>
<trkpt lat="57.103764000" lon="12.551761000"><ele>154.0</ele><time>2013-07-16T19:20:58Z</time></trkpt>
<trkpt lat="57.103705000" lon="12.551647000"><ele>156.6</ele><time>2013-07-16T19:21:04Z</time></trkpt>
<trkpt lat="57.103622000" lon="12.551528000"><ele>159.3</ele><time>2013-07-16T19:21:08Z</time></trkpt>
<trkpt lat="57.103553000" lon="12.551437000"><ele>162.1</ele><time>2013-07-16T19:21:12Z</time></trkpt>
<trkpt lat="57.103485000" lon="12.551323000"><ele>165.1</ele><time>2013-07-16T19:21:16Z</time></trkpt>
<trkpt lat="57.103417000" lon="12.551186000"><ele>167.8</ele><time>2013-07-16T19:21:21Z</time></trkpt>
<trkpt lat="57.103342000" lon="12.551072000"><ele>170.3</ele><time>2013-07-16T19:21:28Z</time></trkpt>
<trkpt lat="57.103283000" lon="12.550957000"><ele>172.5</ele><time>2013-07-16T19:21:32Z</time></trkpt>
<trkpt lat="57.103212000" lon="12.550797000"><ele>174.4</ele><time>2013-07-16T19:21:36Z</time></trkpt>
<trkpt lat="57.103159000" lon="12.550680000"><ele>176.0</ele><time>2013-07-16T19:21:39Z</time></trkpt>
<trkpt lat="57.103087000" lon="12.550511000"><ele>177.2</ele><time>2013-07-16T19:21:42Z</time></trkpt>
<trkpt lat="57.103031000" lon="12.550376000"><ele>178.0</ele><time>2013-07-16T19:21:45Z</time></trkpt>
<trkpt lat="57.102983000" lon="12.550208000"><ele>177.8</ele><time>2013-07-16T19:21:50Z</time></trkpt>
<trkpt lat="57.102924000" lon="12.550099000"><ele>177.1</ele><time>2013-07-16T19:21:54Z</time></trkpt>
<trkpt lat="57.102852000" lon="12.550197000"><ele>176.0</ele><time>2013-07-16T19:22:00Z</time></trkpt>
<trkpt lat="57.102777000" lon="12.550321000"><ele>174.5</ele><time>2013-07-16T19:22:04Z</time></trkpt>
<trkpt lat="57.102685000" lon="12.550408000"><ele>172.7</ele><time>2013-07-16T19:22:08Z</time></trkpt>
<trkpt lat="57.102578000" lon="12.550441000"><ele>170.7</ele><time>2013-07-16T19:22:12Z</time></trkpt>
<trkpt lat="57.102475000" lon="12.550465000"><ele>168.3</ele><time>2013-07-16T19:22:16Z</time></trkpt>
<trkpt lat="57.102391000" lon="12.550490000"><ele>166.0</ele><time>2013-07-16T19:22:19Z</time></trkpt>
<trkpt lat="57.102288000" lon="12.550474000"><ele>163.7</ele><time>2013-07-16T19:22:22Z</time></trkpt>
<trkpt lat="57.102193000" lon="12.550529000"><ele>161.6</ele><time>2013-07-16T19:22:26Z</time></trkpt>
<trkpt lat="57.102094000" lon="12.550513000"><ele>159.8</ele><time>2013-07-16T19:22:29Z</time></trkpt>
<trkpt lat="57.101996000" lon="12.550523000"><ele>158.5</ele><time>2013-07-16T19:22:33Z</time></trkpt>
<trkpt lat="57.101898000" lon="12.550483000"><ele>157.6</ele><time>2013-07-16T19:22:36Z</time></trkpt>
<trkpt lat="57.101790000" lon="12.550514000"><ele>157.2</ele><time>2013-07-16T19:22:40Z</time></trkpt>
<trkpt lat="57.101677000" lon="12.550514000"><ele>157.2</ele><time>2013-07-16T19:22:42Z</time></trkpt>
<trkpt lat="57.101583000" lon="12.550531000"><ele>157.5</ele><time>2013-07-16T19:22:44Z</time></trkpt>
<trkpt lat="57.101490000" lon="12.550544000"><ele>157.9</ele><time>2013-07-16T19:22:46Z</time></trkpt>
<trkpt lat="57.101388000" lon="12.550533000"><ele>158.6</ele><time>2013-07-16T19:22:49Z</time></trkpt>
<trkpt lat="57.101273000" lon="12.550424000"><ele>159.1</ele><time>2013-07-16T19:22:52Z</time></trkpt>
<trkpt lat="57.101190000" lon="12.550293000"><ele>159.6</ele><time>2013-07-16T19:22:55Z</time></trkpt>
<trkpt lat="57.101107000" lon="12.550182000"><ele>160.0</ele><time>2013-07-16T19:22:59Z</time></trkpt>
<trkpt lat="57.101028000" lon="12.550108000"><ele>160.3</ele><time>2013-07-16T19:23:02Z</time></trkpt>
<trkpt lat="57.100951000" lon="12.550033000"><ele>160.4</ele><time>2013-07-16T19:23:04Z</time></trkpt>
<trkpt lat="57.100865000" lon="12.549954000"><ele>160.3</ele><time>2013-07-16T19:23:06Z</time></trkpt>
<trkpt lat="57.100762000" lon="12.549827000"><ele>160.1</ele><time>2013-07-16T19:23:08Z</time></trkpt>
<trkpt lat="57.100655000" lon="12.549711000"><ele>159.8</ele><time>2013-07-16T19:23:10Z</time></trkpt>
<trkpt lat="57.100549000" lon="12.549672000"><ele>159.8</ele><time>2013-07-16T19:23:12Z</time></trkpt>
<trkpt lat="57.100439000" lon="12.549673000"><ele>160.1</ele><time>2013-07-16T19:23:14Z</time></trkpt>
<trkpt lat="57.100331000" lon="12.549654000"><ele>160.6</ele><time>2013-07-16T19:23:16Z</time></trkpt>
<trkpt lat="57.100217000" lon="12.549574000"><ele>161.2</ele><time>2013-07-16T19:23:18Z</time></trkpt>
<trkpt lat="57.100113000" lon="12.549460000"><ele>162.1</ele><time>2013-07-16T19:23:20Z</time></trkpt>
<trkpt lat="57.100023000" lon="12.549349000"><ele>163.1</ele><time>2013-07-16T19:23:22Z</time></trkpt>
<trkpt lat="57.099935000" lon="12.549224000"><ele>164.2</ele><time>2013-07-16T19:23:24Z</time></trkpt>
<trkpt lat="57.099839000" lon="12.549118000"><ele>165.3</ele><time>2013-07-16T19:23:26Z</time></trkpt>
<trkpt lat="57.099757000" lon="12.549028000"><ele>166.7</ele><time>2013-07-16T19:23:28Z</time></trkpt>
<trkpt lat="57.099662000" lon="12.548926000"><ele>168.1</ele><time>2013-07-16T19:23:30Z</time></trkpt>
<trkpt lat="57.099558000" lon="12.548812000"><ele>169.5</ele><time>2013-07-16T19:23:32Z</time></trkpt>
<trkpt lat="57.099445000" lon="12.548691000"><ele>170.6</ele><time>2013-07-16T19:23:34Z</time></trkpt>
<trkpt lat="57.099336000" lon="12.548558000"><ele>171.6</ele><time>2013-07-16T19:23:36Z</time></trkpt>
<trkpt lat="57.099249000" lon="12.548448000"><ele>172.4</ele><time>2013-07-16T19:23:38Z</time></trkpt>
<trkpt lat="57.099140000" lon="12.548394000"><ele>173.2</ele><time>2013-07-16T19:23:41Z</time></trkpt>
<trkpt lat="57.099053000" lon="12.548377000"><ele>173.9</ele><time>2013-07-16T19:23:43Z</time></trkpt>
<trkpt lat="57.098958000" lon="12.548372000"><ele>174.3</ele><time>2013-07-16T19:23:45Z</time></trkpt>
<trkpt lat="57.098873000" lon="12.548369000"><ele>174.6</ele><time>2013-07-16T19:23:47Z</time></trkpt>
<trkpt lat="57.098768000" lon="12.548372000"><ele>174.8</ele><time>2013-07-16T19:23:49Z</time></trkpt>
<trkpt lat="57.098654000" lon="12.548397000"><ele>174.8</ele><time>2013-07-16T19:23:51Z</time></trkpt>
<trkpt lat="57.098513000" lon="12.548416000"><ele>174.8</ele><time>2013-07-16T19:23:53Z</time></trkpt>
<trkpt lat="57.098370000" lon="12.548418000"><ele>174.7</ele><time>2013-07-16T19:23:55Z</time></trkpt>
<trkpt lat="57.098282000" lon="12.548415000"><ele>174.9</ele><time>2013-07-16T19:23:57Z</time></trkpt>
<trkpt lat="57.098186000" lon="12.548330000"><ele>175.5</ele><time>2013-07-16T19:24:00Z</time></trkpt>
<trkpt lat="57.098089000" lon="12.548141000"><ele>175.6</ele><time>2013-07-16T19:24:03Z</time></trkpt>
<trkpt lat="57.098010000" lon="12.548009000"><ele>175.6</ele><time>2013-07-16T19:24:06Z</time></trkpt>
<trkpt lat="57.097947000" lon="12.547908000"><ele>175.6</ele><time>2013-07-16T19:24:12Z</time></trkpt>
<trkpt lat="57.097875000" lon="12.547721000"><ele>175.6</ele><time>2013-07-16T19:24:20Z</time></trkpt>
<trkpt lat="57.097838000" lon="12.547567000"><ele>175.7</ele><time>2013-07-16T19:24:32Z</time></trkpt>
<trkpt lat="57.097891000" lon="12.547688000"><ele>175.8</ele><time>2013-07-16T19:25:02Z</time></trkpt>
<trkpt lat="57.097811000" lon="12.547576000"><ele>176.0</ele><time>2013-07-16T19:25:47Z</time></trkpt>
<trkpt lat="57.097727000" lon="12.547569000"><ele>176.0</ele><time>2013-07-16T19:25:50Z</time></trkpt>
<trkpt lat="57.097668000" lon="12.547679000"><ele>176.0</ele><time>2013-07-16T19:25:53Z</time></trkpt>
<trkpt lat="57.097624000" lon="12.547865000"><ele>175.6</ele><time>2013-07-16T19:25:56Z</time></trkpt>
<trkpt lat="57.097583000" lon="12.548027000"><ele>174.8</ele><time>2013-07-16T19:25:58Z</time></trkpt>
<trkpt lat="57.097549000" lon="12.548247000"><ele>174.3</ele><time>2013-07-16T19:26:00Z</time></trkpt>
<trkpt lat="57.097500000" lon="12.548404000"><ele>173.9</ele><time>2013-07-16T19:26:02Z</time></trkpt>
<trkpt lat="57.097470000" lon="12.548689000"><ele>173.4</ele><time>2013-07-16T19:26:04Z</time></trkpt>
<trkpt lat="57.097437000" lon="12.548832000"><ele>172.9</ele><time>2013-07-16T19:26:05Z</time></trkpt>
<trkpt lat="57.097368000" lon="12.549097000"><ele>172.2</ele><time>2013-07-16T19:26:07Z</time></trkpt>
<trkpt lat="57.097326000" lon="12.549233000"><ele>171.2</ele><time>2013-07-16T19:26:08Z</time></trkpt>
<trkpt lat="57.097265000" lon="12.549341000"><ele>170.1</ele><time>2013-07-16T19:26:09Z</time></trkpt>
<trkpt lat="57.097185000" lon="12.549558000"><ele>168.8</ele><time>2013-07-16T19:26:11Z</time></trkpt>
<trkpt lat="57.097084000" lon="12.549729000"><ele>167.3</ele><time>2013-07-16T19:26:13Z</time></trkpt>
<trkpt lat="57.096967000" lon="12.549859000"><ele>165.7</ele><time>2013-07-16T19:26:15Z</time></trkpt>
<trkpt lat="57.096833000" lon="12.549965000"><ele>164.0</ele><time>2013-07-16T19:26:17Z</time></trkpt>
<trkpt lat="57.096754000" lon="12.550029000"><ele>162.3</ele><time>2013-07-16T19:26:18Z</time></trkpt>
<trkpt lat="57.096602000" lon="12.550096000"><ele>160.4</ele><time>2013-07-16T19:26:20Z</time></trkpt>
<trkpt lat="57.096471000" lon="12.550068000"><ele>158.6</ele><time>2013-07-16T19:26:22Z</time></trkpt>
<trkpt lat="57.096365000" lon="12.549976000"><ele>156.8</ele><time>2013-07-16T19:26:24Z</time></trkpt>
<trkpt lat="57.096258000" lon="12.549881000"><ele>155.2</ele><time>2013-07-16T19:26:26Z</time></trkpt>
<trkpt lat="57.096115000" lon="12.549752000"><ele>153.9</ele><time>2013-07-16T19:26:28Z</time></trkpt>
<trkpt lat="57.096030000" lon="12.549684000"><ele>152.5</ele><time>2013-07-16T19:26:29Z</time></trkpt>
<trkpt lat="57.095950000" lon="12.549620000"><ele>151.2</ele><time>2013-07-16T19:26:30Z</time></trkpt>
<trkpt lat="57.095846000" lon="12.549516000"><ele>150.0</ele><time>2013-07-16T19:26:31Z</time></trkpt>
<trkpt lat="57.095768000" lon="12.549432000"><ele>148.8</ele><time>2013-07-16T19:26:32Z</time></trkpt>
<trkpt lat="57.095683000" lon="12.549360000"><ele>147.6</ele><time>2013-07-16T19:26:33Z</time></trkpt>
<trkpt lat="57.095574000" lon="12.549276000"><ele>146.4</ele><time>2013-07-16T19:26:34Z</time></trkpt>
<trkpt lat="57.095491000" lon="12.549220000"><ele>145.0</ele><time>2013-07-16T19:26:35Z</time></trkpt>
<trkpt lat="57.095403000" lon="12.549152000"><ele>143.5</ele><time>2013-07-16T19:26:36Z</time></trkpt>
<trkpt lat="57.095328000" lon="12.549084000"><ele>142.0</ele><time>2013-07-16T19:26:37Z</time></trkpt>
<trkpt lat="57.095241000" lon="12.549015000"><ele>140.4</ele><time>2013-07-16T19:26:38Z</time></trkpt>
<trkpt lat="57.095107000" lon="12.548924000"><ele>138.5</ele><time>2013-07-16T19:26:40Z</time></trkpt>
<trkpt lat="57.094998000" lon="12.548841000"><ele>136.5</ele><time>2013-07-16T19:26:42Z</time></trkpt>
<trkpt lat="57.094879000" lon="12.548686000"><ele>134.6</ele><time>2013-07-16T19:26:44Z</time></trkpt>
<trkpt lat="57.094820000" lon="12.548579000"><ele>132.7</ele><time>2013-07-16T19:26:45Z</time></trkpt>
<trkpt lat="57.094768000" lon="12.548458000"><ele>130.8</ele><time>2013-07-16T19:26:46Z</time></trkpt>
<trkpt lat="57.094686000" lon="12.548255000"><ele>128.8</ele><time>2013-07-16T19:26:48Z</time></trkpt>
<trkpt lat="57.094567000" lon="12.548069000"><ele>126.7</ele><time>2013-07-16T19:26:50Z</time></trkpt>
<trkpt lat="57.094495000" lon="12.547984000"><ele>124.8</ele><time>2013-07-16T19:26:51Z</time></trkpt>
<trkpt lat="57.094363000" lon="12.547829000"><ele>122.7</ele><time>2013-07-16T19:26:53Z</time></trkpt>
<trkpt lat="57.094250000" lon="12.547673000"><ele>120.8</ele><time>2013-07-16T19:26:55Z</time></trkpt>
<trkpt lat="57.094149000" lon="12.547521000"><ele>118.9</ele><time>2013-07-16T19:26:57Z</time></trkpt>
<trkpt lat="57.094062000" lon="12.547529000"><ele>117.3</ele><time>2013-07-16T19:26:59Z</time></trkpt>
<trkpt lat="57.093952000" lon="12.547583000"><ele>115.7</ele><time>2013-07-16T19:27:01Z</time></trkpt>
<trkpt lat="57.093825000" lon="12.547572000"><ele>114.3</ele><time>2013-07-16T19:27:03Z</time></trkpt>
<trkpt lat="57.093745000" lon="12.547537000"><ele>113.1</ele><time>2013-07-16T19:27:04Z</time></trkpt>
<trkpt lat="57.093613000" lon="12.547466000"><ele>112.2</ele><time>2013-07-16T19:27:06Z</time></trkpt>
<trkpt lat="57.093530000" lon="12.547389000"><ele>111.4</ele><time>2013-07-16T19:27:08Z</time></trkpt>
<trkpt lat="57.093441000" lon="12.547320000"><ele>110.7</ele><time>2013-07-16T19:27:11Z</time></trkpt>
<trkpt lat="57.093367000" lon="12.547244000"><ele>110.0</ele><time>2013-07-16T19:27:14Z</time></trkpt>
<trkpt lat="57.093280000" lon="12.547198000"><ele>109.1</ele><time>2013-07-16T19:27:16Z</time></trkpt>
<trkpt lat="57.093174000" lon="12.547145000"><ele>108.1</ele><time>2013-07-16T19:27:18Z</time></trkpt>
<trkpt lat="57.093086000" lon="12.547103000"><ele>107.0</ele><time>2013-07-16T19:27:20Z</time></trkpt>
<trkpt lat="57.092974000" lon="12.547111000"><ele>106.0</ele><time>2013-07-16T19:27:23Z</time></trkpt>
<trkpt lat="57.092874000" lon="12.547129000"><ele>105.1</ele><time>2013-07-16T19:27:26Z</time></trkpt>
<trkpt lat="57.092784000" lon="12.547158000"><ele>104.1</ele><time>2013-07-16T19:27:29Z</time></trkpt>
<trkpt lat="57.092668000" lon="12.547190000"><ele>102.9</ele><time>2013-07-16T19:27:33Z</time></trkpt>
<trkpt lat="57.092579000" lon="12.547187000"><ele>101.5</ele><time>2013-07-16T19:27:36Z</time></trkpt>
<trkpt lat="57.092485000" lon="12.547172000"><ele>100.2</ele><time>2013-07-16T19:27:39Z</time></trkpt>
<trkpt lat="57.092390000" lon="12.547176000"><ele>99.0</ele><time>2013-07-16T19:27:42Z</time></trkpt>
<trkpt lat="57.092304000" lon="12.547200000"><ele>98.0</ele><time>2013-07-16T19:27:45Z</time></trkpt>
<trkpt lat="57.092204000" lon="12.547189000"><ele>97.3</ele><time>2013-07-16T19:27:48Z</time></trkpt>
<trkpt lat="57.092119000" lon="12.547183000"><ele>97.0</ele><time>2013-07-16T19:27:51Z</time></trkpt>
<trkpt lat="57.092038000" lon="12.547174000"><ele>96.8</ele><time>2013-07-16T19:27:53Z</time></trkpt>
<trkpt lat="57.091928000" lon="12.547143000"><ele>96.5</ele><time>2013-07-16T19:27:56Z</time></trkpt>
<trkpt lat="57.091830000" lon="12.547125000"><ele>96.3</ele><time>2013-07-16T19:27:59Z</time></trkpt>
<trkpt lat="57.091746000" lon="12.547077000"><ele>96.3</ele><time>2013-07-16T19:28:01Z</time></trkpt>
<trkpt lat="57.091655000" lon="12.547010000"><ele>96.5</ele><time>2013-07-16T19:28:04Z</time></trkpt>
<trkpt lat="57.091573000" lon="12.546961000"><ele>96.7</ele><time>2013-07-16T19:28:07Z</time></trkpt>
<trkpt lat="57.091476000" lon="12.546925000"><ele>97.1</ele><time>2013-07-16T19:28:10Z</time></trkpt>
<trkpt lat="57.091373000" lon="12.546830000"><ele>97.4</ele><time>2013-07-16T19:28:13Z</time></trkpt>
<trkpt lat="57.091302000" lon="12.546749000"><ele>97.9</ele><time>2013-07-16T19:28:15Z</time></trkpt>
<trkpt lat="57.091212000" lon="12.546661000"><ele>98.3</ele><time>2013-07-16T19:28:17Z</time></trkpt>
<trkpt lat="57.091109000" lon="12.546558000"><ele>98.7</ele><time>2013-07-16T19:28:19Z</time></trkpt>
<trkpt lat="57.091033000" lon="12.546468000"><ele>99.1</ele><time>2013-07-16T19:28:21Z</time></trkpt>
<trkpt lat="57.090937000" lon="12.546403000"><ele>99.6</ele><time>2013-07-16T19:28:23Z</time></trkpt>
<trkpt lat="57.090857000" lon="12.546329000"><ele>100.3</ele><time>2013-07-16T19:28:25Z</time></trkpt>
<trkpt lat="57.090774000" lon="12.546250000"><ele>101.0</ele><time>2013-07-16T19:28:27Z</time></trkpt>
<trkpt lat="57.090701000" lon="12.546174000"><ele>101.8</ele><time>2013-07-16T19:28:29Z</time></trkpt>
<trkpt lat="57.090614000" lon="12.546085000"><ele>102.5</ele><time>2013-07-16T19:28:31Z</time></trkpt>
<trkpt lat="57.090543000" lon="12.546006000"><ele>103.0</ele><time>2013-07-16T19:28:33Z</time></trkpt>
<trkpt lat="57.090450000" lon="12.545884000"><ele>103.3</ele><time>2013-07-16T19:28:36Z</time></trkpt>
<trkpt lat="57.090378000" lon="12.545814000"><ele>103.4</ele><time>2013-07-16T19:28:38Z</time></trkpt>
<trkpt lat="57.090295000" lon="12.545725000"><ele>103.3</ele><time>2013-07-16T19:28:41Z</time></trkpt>
<trkpt lat="57.090193000" lon="12.545667000"><ele>103.1</ele><time>2013-07-16T19:28:45Z</time></trkpt>
<trkpt lat="57.090107000" lon="12.545625000"><ele>102.8</ele><time>2013-07-16T19:28:47Z</time></trkpt>
<trkpt lat="57.090000000" lon="12.545586000"><ele>102.4</ele><time>2013-07-16T19:28:50Z</time></trkpt>
<trkpt lat="57.089899000" lon="12.545582000"><ele>101.8</ele><time>2013-07-16T19:28:53Z</time></trkpt>
<trkpt lat="57.089813000" lon="12.545604000"><ele>101.3</ele><time>2013-07-16T19:28:55Z</time></trkpt>
<trkpt lat="57.089697000" lon="12.545632000"><ele>100.5</ele><time>2013-07-16T19:28:57Z</time></trkpt>
<trkpt lat="57.089588000" lon="12.545626000"><ele>99.6</ele><time>2013-07-16T19:28:59Z</time></trkpt>
<trkpt lat="57.089470000" lon="12.545610000"><ele>98.9</ele><time>2013-07-16T19:29:02Z</time></trkpt>
<trkpt lat="57.089390000" lon="12.545574000"><ele>98.2</ele><time>2013-07-16T19:29:04Z</time></trkpt>
<trkpt lat="57.089279000" lon="12.545503000"><ele>97.8</ele><time>2013-07-16T19:29:06Z</time></trkpt>
<trkpt lat="57.089163000" lon="12.545464000"><ele>97.5</ele><time>2013-07-16T19:29:09Z</time></trkpt>
<trkpt lat="57.089050000" lon="12.545431000"><ele>97.4</ele><time>2013-07-16T19:29:11Z</time></trkpt>
<trkpt lat="57.088949000" lon="12.545428000"><ele>97.2</ele><time>2013-07-16T19:29:13Z</time></trkpt>
<trkpt lat="57.088855000" lon="12.545464000"><ele>97.0</ele><time>2013-07-16T19:29:16Z</time></trkpt>
<trkpt lat="57.088723000" lon="12.545434000"><ele>96.5</ele><time>2013-07-16T19:29:19Z</time></trkpt>
<trkpt lat="57.088619000" lon="12.545391000"><ele>95.8</ele><time>2013-07-16T19:29:21Z</time></trkpt>
<trkpt lat="57.088515000" lon="12.545353000"><ele>95.1</ele><time>2013-07-16T19:29:23Z</time></trkpt>
<trkpt lat="57.088413000" lon="12.545357000"><ele>94.5</ele><time>2013-07-16T19:29:25Z</time></trkpt>
<trkpt lat="57.088306000" lon="12.545388000"><ele>94.0</ele><time>2013-07-16T19:29:27Z</time></trkpt>
<trkpt lat="57.088212000" lon="12.545443000"><ele>93.4</ele><time>2013-07-16T19:29:29Z</time></trkpt>
<trkpt lat="57.088124000" lon="12.545472000"><ele>92.6</ele><time>2013-07-16T19:29:31Z</time></trkpt>
<trkpt lat="57.088042000" lon="12.545472000"><ele>91.7</ele><time>2013-07-16T19:29:33Z</time></trkpt>
<trkpt lat="57.087950000" lon="12.545427000"><ele>90.6</ele><time>2013-07-16T19:29:35Z</time></trkpt>
<trkpt lat="57.087849000" lon="12.545351000"><ele>89.8</ele><time>2013-07-16T19:29:37Z</time></trkpt>
<trkpt lat="57.087763000" lon="12.545315000"><ele>89.0</ele><time>2013-07-16T19:29:39Z</time></trkpt>
<trkpt lat="57.087664000" lon="12.545286000"><ele>88.7</ele><time>2013-07-16T19:29:41Z</time></trkpt>
<trkpt lat="57.087560000" lon="12.545262000"><ele>88.6</ele><time>2013-07-16T19:29:43Z</time></trkpt>
<trkpt lat="57.087476000" lon="12.545235000"><ele>88.6</ele><time>2013-07-16T19:29:45Z</time></trkpt>
<trkpt lat="57.087390000" lon="12.545215000"><ele>88.6</ele><time>2013-07-16T19:29:47Z</time></trkpt>
<trkpt lat="57.087294000" lon="12.545161000"><ele>88.7</ele><time>2013-07-16T19:29:50Z</time></trkpt>
<trkpt lat="57.087183000" lon="12.545097000"><ele>88.9</ele><time>2013-07-16T19:29:54Z</time></trkpt>
<trkpt lat="57.087085000" lon="12.545033000"><ele>89.5</ele><time>2013-07-16T19:29:56Z</time></trkpt>
<trkpt lat="57.087005000" lon="12.544971000"><ele>90.4</ele><time>2013-07-16T19:29:58Z</time></trkpt>
<trkpt lat="57.086925000" lon="12.544921000"><ele>91.3</ele><time>2013-07-16T19:30:00Z</time></trkpt>
<trkpt lat="57.086828000" lon="12.544867000"><ele>92.2</ele><time>2013-07-16T19:30:03Z</time></trkpt>
<trkpt lat="57.086737000" lon="12.544800000"><ele>93.3</ele><time>2013-07-16T19:30:07Z</time></trkpt>
<trkpt lat="57.086696000" lon="12.544668000"><ele>94.2</ele><time>2013-07-16T19:30:10Z</time></trkpt>
<trkpt lat="57.086679000" lon="12.544469000"><ele>95.1</ele><time>2013-07-16T19:30:13Z</time></trkpt>
<trkpt lat="57.086659000" lon="12.544316000"><ele>96.1</ele><time>2013-07-16T19:30:15Z</time></trkpt>
<trkpt lat="57.086604000" lon="12.544159000"><ele>97.0</ele><time>2013-07-16T19:30:17Z</time></trkpt>
<trkpt lat="57.086537000" lon="12.544035000"><ele>97.8</ele><time>2013-07-16T19:30:19Z</time></trkpt>
<trkpt lat="57.086468000" lon="12.543903000"><ele>98.6</ele><time>2013-07-16T19:30:21Z</time></trkpt>
<trkpt lat="57.086384000" lon="12.543740000"><ele>98.8</ele><time>2013-07-16T19:30:24Z</time></trkpt>
<trkpt lat="57.086337000" lon="12.543617000"><ele>99.0</ele><time>2013-07-16T19:30:26Z</time></trkpt>
<trkpt lat="57.086295000" lon="12.543486000"><ele>99.0</ele><time>2013-07-16T19:30:28Z</time></trkpt>
<trkpt lat="57.086263000" lon="12.543277000"><ele>99.0</ele><time>2013-07-16T19:30:31Z</time></trkpt>
<trkpt lat="57.086258000" lon="12.543125000"><ele>98.7</ele><time>2013-07-16T19:30:33Z</time></trkpt>
<trkpt lat="57.086260000" lon="12.542952000"><ele>98.5</ele><time>2013-07-16T19:30:35Z</time></trkpt>
<trkpt lat="57.086269000" lon="12.542784000"><ele>98.1</ele><time>2013-07-16T19:30:37Z</time></trkpt>
<trkpt lat="57.086294000" lon="12.542638000"><ele>97.5</ele><time>2013-07-16T19:30:39Z</time></trkpt>
<trkpt lat="57.086326000" lon="12.542488000"><ele>97.0</ele><time>2013-07-16T19:30:41Z</time></trkpt>
<trkpt lat="57.086356000" lon="12.542346000"><ele>96.5</ele><time>2013-07-16T19:30:43Z</time></trkpt>
<trkpt lat="57.086391000" lon="12.542192000"><ele>96.2</ele><time>2013-07-16T19:30:45Z</time></trkpt>
<trkpt lat="57.086428000" lon="12.542027000"><ele>95.9</ele><time>2013-07-16T19:30:47Z</time></trkpt>
<trkpt lat="57.086455000" lon="12.541842000"><ele>95.5</ele><time>2013-07-16T19:30:49Z</time></trkpt>
<trkpt lat="57.086473000" lon="12.541656000"><ele>95.3</ele><time>2013-07-16T19:30:51Z</time></trkpt>
<trkpt lat="57.086493000" lon="12.541465000"><ele>95.1</ele><time>2013-07-16T19:30:53Z</time></trkpt>
<trkpt lat="57.086514000" lon="12.541276000"><ele>95.1</ele><time>2013-07-16T19:30:55Z</time></trkpt>
<trkpt lat="57.086538000" lon="12.541092000"><ele>95.1</ele><time>2013-07-16T19:30:57Z</time></trkpt>
<trkpt lat="57.086565000" lon="12.540908000"><ele>95.1</ele><time>2013-07-16T19:30:59Z</time></trkpt>
<trkpt lat="57.086598000" lon="12.540721000"><ele>95.2</ele><time>2013-07-16T19:31:01Z</time></trkpt>
<trkpt lat="57.086628000" lon="12.540532000"><ele>95.3</ele><time>2013-07-16T19:31:03Z</time></trkpt>
<trkpt lat="57.086661000" lon="12.540353000"><ele>95.5</ele><time>2013-07-16T19:31:05Z</time></trkpt>
<trkpt lat="57.086687000" lon="12.540185000"><ele>95.6</ele><time>2013-07-16T19:31:07Z</time></trkpt>
<trkpt lat="57.086716000" lon="12.540029000"><ele>95.7</ele><time>2013-07-16T19:31:09Z</time></trkpt>
<trkpt lat="57.086745000" lon="12.539872000"><ele>95.9</ele><time>2013-07-16T19:31:11Z</time></trkpt>
<trkpt lat="57.086775000" lon="12.539718000"><ele>96.1</ele><time>2013-07-16T19:31:13Z</time></trkpt>
<trkpt lat="57.086812000" lon="12.539558000"><ele>96.3</ele><time>2013-07-16T19:31:15Z</time></trkpt>
<trkpt lat="57.086853000" lon="12.539393000"><ele>96.5</ele><time>2013-07-16T19:31:17Z</time></trkpt>
<trkpt lat="57.086896000" lon="12.539228000"><ele>96.8</ele><time>2013-07-16T19:31:19Z</time></trkpt>
<trkpt lat="57.086940000" lon="12.539076000"><ele>97.1</ele><time>2013-07-16T19:31:21Z</time></trkpt>
<trkpt lat="57.086983000" lon="12.538945000"><ele>97.3</ele><time>2013-07-16T19:31:23Z</time></trkpt>
<trkpt lat="57.087058000" lon="12.538775000"><ele>97.6</ele><time>2013-07-16T19:31:26Z</time></trkpt>
<trkpt lat="57.087153000" lon="12.538642000"><ele>97.8</ele><time>2013-07-16T19:31:29Z</time></trkpt>
<trkpt lat="57.087258000" lon="12.538550000"><ele>98.1</ele><time>2013-07-16T19:31:32Z</time></trkpt>
<trkpt lat="57.087363000" lon="12.538460000"><ele>98.5</ele><time>2013-07-16T19:31:35Z</time></trkpt>
<trkpt lat="57.087441000" lon="12.538389000"><ele>98.9</ele><time>2013-07-16T19:31:37Z</time></trkpt>
<trkpt lat="57.087525000" lon="12.538309000"><ele>99.2</ele><time>2013-07-16T19:31:39Z</time></trkpt>
<trkpt lat="57.087606000" lon="12.538225000"><ele>99.5</ele><time>2013-07-16T19:31:41Z</time></trkpt>
<trkpt lat="57.087674000" lon="12.538146000"><ele>99.8</ele><time>2013-07-16T19:31:43Z</time></trkpt>
<trkpt lat="57.087737000" lon="12.538046000"><ele>100.1</ele><time>2013-07-16T19:31:45Z</time></trkpt>
<trkpt lat="57.087795000" lon="12.537938000"><ele>100.3</ele><time>2013-07-16T19:31:47Z</time></trkpt>
<trkpt lat="57.087853000" lon="12.537816000"><ele>100.6</ele><time>2013-07-16T19:31:49Z</time></trkpt>
<trkpt lat="57.087919000" lon="12.537699000"><ele>100.8</ele><time>2013-07-16T19:31:51Z</time></trkpt>
<trkpt lat="57.087996000" lon="12.537585000"><ele>101.2</ele><time>2013-07-16T19:31:53Z</time></trkpt>
<trkpt lat="57.088081000" lon="12.537469000"><ele>101.4</ele><time>2013-07-16T19:31:55Z</time></trkpt>
<trkpt lat="57.088182000" lon="12.537400000"><ele>101.5</ele><time>2013-07-16T19:31:57Z</time></trkpt>
<trkpt lat="57.088278000" lon="12.537348000"><ele>101.6</ele><time>2013-07-16T19:31:59Z</time></trkpt>
<trkpt lat="57.088371000" lon="12.537323000"><ele>101.6</ele><time>2013-07-16T19:32:01Z</time></trkpt>
<trkpt lat="57.088467000" lon="12.537314000"><ele>101.8</ele><time>2013-07-16T19:32:03Z</time></trkpt>
<trkpt lat="57.088576000" lon="12.537307000"><ele>102.1</ele><time>2013-07-16T19:32:05Z</time></trkpt>
<trkpt lat="57.088694000" lon="12.537302000"><ele>102.2</ele><time>2013-07-16T19:32:07Z</time></trkpt>
<trkpt lat="57.088813000" lon="12.537307000"><ele>102.3</ele><time>2013-07-16T19:32:09Z</time></trkpt>
<trkpt lat="57.088927000" lon="12.537293000"><ele>102.3</ele><time>2013-07-16T19:32:11Z</time></trkpt>
<trkpt lat="57.089032000" lon="12.537270000"><ele>102.2</ele><time>2013-07-16T19:32:13Z</time></trkpt>
<trkpt lat="57.089123000" lon="12.537245000"><ele>102.1</ele><time>2013-07-16T19:32:15Z</time></trkpt>
<trkpt lat="57.089191000" lon="12.537161000"><ele>102.0</ele><time>2013-07-16T19:32:17Z</time></trkpt>
<trkpt lat="57.089243000" lon="12.537030000"><ele>102.0</ele><time>2013-07-16T19:32:19Z</time></trkpt>
<trkpt lat="57.089325000" lon="12.536890000"><ele>102.1</ele><time>2013-07-16T19:32:22Z</time></trkpt>
<trkpt lat="57.089409000" lon="12.536764000"><ele>102.1</ele><time>2013-07-16T19:32:25Z</time></trkpt>
<trkpt lat="57.089502000" lon="12.536638000"><ele>102.0</ele><time>2013-07-16T19:32:28Z</time></trkpt>
<trkpt lat="57.089594000" lon="12.536532000"><ele>101.8</ele><time>2013-07-16T19:32:31Z</time></trkpt>
<trkpt lat="57.089701000" lon="12.536429000"><ele>101.7</ele><time>2013-07-16T19:32:34Z</time></trkpt>
<trkpt lat="57.089801000" lon="12.536329000"><ele>101.7</ele><time>2013-07-16T19:32:37Z</time></trkpt>
<trkpt lat="57.089898000" lon="12.536227000"><ele>101.9</ele><time>2013-07-16T19:32:40Z</time></trkpt>
<trkpt lat="57.089973000" lon="12.536146000"><ele>102.3</ele><time>2013-07-16T19:32:42Z</time></trkpt>
<trkpt lat="57.090049000" lon="12.536073000"><ele>102.8</ele><time>2013-07-16T19:32:44Z</time></trkpt>
<trkpt lat="57.090133000" lon="12.536009000"><ele>103.4</ele><time>2013-07-16T19:32:46Z</time></trkpt>
<trkpt lat="57.090225000" lon="12.535935000"><ele>104.0</ele><time>2013-07-16T19:32:48Z</time></trkpt>
<trkpt lat="57.090304000" lon="12.535866000"><ele>104.7</ele><time>2013-07-16T19:32:50Z</time></trkpt>
<trkpt lat="57.090385000" lon="12.535820000"><ele>105.5</ele><time>2013-07-16T19:32:52Z</time></trkpt>
<trkpt lat="57.090466000" lon="12.535770000"><ele>106.4</ele><time>2013-07-16T19:32:54Z</time></trkpt>
<trkpt lat="57.090558000" lon="12.535677000"><ele>107.5</ele><time>2013-07-16T19:32:56Z</time></trkpt>
<trkpt lat="57.090659000" lon="12.535606000"><ele>108.5</ele><time>2013-07-16T19:32:58Z</time></trkpt>
<trkpt lat="57.090749000" lon="12.535518000"><ele>109.6</ele><time>2013-07-16T19:33:00Z</time></trkpt>
<trkpt lat="57.090827000" lon="12.535442000"><ele>110.6</ele><time>2013-07-16T19:33:02Z</time></trkpt>
<trkpt lat="57.090910000" lon="12.535348000"><ele>111.5</ele><time>2013-07-16T19:33:04Z</time></trkpt>
<trkpt lat="57.090995000" lon="12.535279000"><ele>112.4</ele><time>2013-07-16T19:33:06Z</time></trkpt>
<trkpt lat="57.091067000" lon="12.535146000"><ele>113.2</ele><time>2013-07-16T19:33:08Z</time></trkpt>
<trkpt lat="57.091125000" lon="12.535023000"><ele>114.0</ele><time>2013-07-16T19:33:10Z</time></trkpt>
<trkpt lat="57.091170000" lon="12.534897000"><ele>114.6</ele><time>2013-07-16T19:33:12Z</time></trkpt>
<trkpt lat="57.091206000" lon="12.534751000"><ele>115.2</ele><time>2013-07-16T19:33:14Z</time></trkpt>
<trkpt lat="57.091242000" lon="12.534598000"><ele>115.7</ele><time>2013-07-16T19:33:16Z</time></trkpt>
<trkpt lat="57.091319000" lon="12.534507000"><ele>116.2</ele><time>2013-07-16T19:33:18Z</time></trkpt>
<trkpt lat="57.091413000" lon="12.534448000"><ele>116.7</ele><time>2013-07-16T19:33:20Z</time></trkpt>
<trkpt lat="57.091501000" lon="12.534339000"><ele>117.2</ele><time>2013-07-16T19:33:23Z</time></trkpt>
<trkpt lat="57.091590000" lon="12.534332000"><ele>117.7</ele><time>2013-07-16T19:33:26Z</time></trkpt>
<trkpt lat="57.091683000" lon="12.534350000"><ele>118.0</ele><time>2013-07-16T19:33:29Z</time></trkpt>
<trkpt lat="57.091796000" lon="12.534332000"><ele>118.5</ele><time>2013-07-16T19:33:33Z</time></trkpt>
<trkpt lat="57.091898000" lon="12.534332000"><ele>119.0</ele><time>2013-07-16T19:33:37Z</time></trkpt>
<trkpt lat="57.091988000" lon="12.534313000"><ele>119.6</ele><time>2013-07-16T19:33:41Z</time></trkpt>
<trkpt lat="57.092087000" lon="12.534270000"><ele>120.2</ele><time>2013-07-16T19:33:46Z</time></trkpt>
<trkpt lat="57.092174000" lon="12.534233000"><ele>120.9</ele><time>2013-07-16T19:33:50Z</time></trkpt>
<trkpt lat="57.092257000" lon="12.534172000"><ele>121.5</ele><time>2013-07-16T19:33:56Z</time></trkpt>
<trkpt lat="57.092328000" lon="12.534079000"><ele>121.7</ele><time>2013-07-16T19:34:01Z</time></trkpt>
<trkpt lat="57.092431000" lon="12.534048000"><ele>121.8</ele><time>2013-07-16T19:34:06Z</time></trkpt>
<trkpt lat="57.092516000" lon="12.534029000"><ele>121.7</ele><time>2013-07-16T19:34:11Z</time></trkpt>
<trkpt lat="57.092608000" lon="12.533943000"><ele>121.6</ele><time>2013-07-16T19:34:16Z</time></trkpt>
<trkpt lat="57.092691000" lon="12.533831000"><ele>121.3</ele><time>2013-07-16T19:34:20Z</time></trkpt>
<trkpt lat="57.092769000" lon="12.533732000"><ele>120.8</ele><time>2013-07-16T19:34:25Z</time></trkpt>
<trkpt lat="57.092851000" lon="12.533679000"><ele>120.0</ele><time>2013-07-16T19:34:28Z</time></trkpt>
<trkpt lat="57.092930000" lon="12.533620000"><ele>119.1</ele><time>2013-07-16T19:34:31Z</time></trkpt>
<trkpt lat="57.093005000" lon="12.533542000"><ele>117.9</ele><time>2013-07-16T19:34:34Z</time></trkpt>
<trkpt lat="57.093107000" lon="12.533451000"><ele>116.5</ele><time>2013-07-16T19:34:38Z</time></trkpt>
<trkpt lat="57.093195000" lon="12.533383000"><ele>115.1</ele><time>2013-07-16T19:34:41Z</time></trkpt>
<trkpt lat="57.093295000" lon="12.533335000"><ele>113.8</ele><time>2013-07-16T19:34:44Z</time></trkpt>
<trkpt lat="57.093380000" lon="12.533300000"><ele>112.8</ele><time>2013-07-16T19:34:46Z</time></trkpt>
<trkpt lat="57.093485000" lon="12.533280000"><ele>111.8</ele><time>2013-07-16T19:34:48Z</time></trkpt>
<trkpt lat="57.093621000" lon="12.533297000"><ele>110.9</ele><time>2013-07-16T19:34:50Z</time></trkpt>
<trkpt lat="57.093734000" lon="12.533319000"><ele>110.4</ele><time>2013-07-16T19:34:52Z</time></trkpt>
<trkpt lat="57.093821000" lon="12.533299000"><ele>110.1</ele><time>2013-07-16T19:34:54Z</time></trkpt>
<trkpt lat="57.093945000" lon="12.533272000"><ele>110.0</ele><time>2013-07-16T19:34:56Z</time></trkpt>
<trkpt lat="57.094073000" lon="12.533224000"><ele>110.2</ele><time>2013-07-16T19:34:58Z</time></trkpt>
<trkpt lat="57.094204000" lon="12.533160000"><ele>110.7</ele><time>2013-07-16T19:35:00Z</time></trkpt>
<trkpt lat="57.094327000" lon="12.533097000"><ele>111.3</ele><time>2013-07-16T19:35:02Z</time></trkpt>
<trkpt lat="57.094428000" lon="12.533027000"><ele>112.0</ele><time>2013-07-16T19:35:04Z</time></trkpt>
<trkpt lat="57.094505000" lon="12.532948000"><ele>112.7</ele><time>2013-07-16T19:35:06Z</time></trkpt>
<trkpt lat="57.094604000" lon="12.532860000"><ele>113.2</ele><time>2013-07-16T19:35:09Z</time></trkpt>
<trkpt lat="57.094716000" lon="12.532792000"><ele>113.7</ele><time>2013-07-16T19:35:12Z</time></trkpt>
<trkpt lat="57.094804000" lon="12.532684000"><ele>114.1</ele><time>2013-07-16T19:35:15Z</time></trkpt>
<trkpt lat="57.094910000" lon="12.532570000"><ele>114.4</ele><time>2013-07-16T19:35:18Z</time></trkpt>
<trkpt lat="57.095001000" lon="12.532451000"><ele>114.5</ele><time>2013-07-16T19:35:21Z</time></trkpt>
<trkpt lat="57.095062000" lon="12.532258000"><ele>114.4</ele><time>2013-07-16T19:35:24Z</time></trkpt>
<trkpt lat="57.095132000" lon="12.532122000"><ele>114.0</ele><time>2013-07-16T19:35:26Z</time></trkpt>
<trkpt lat="57.095215000" lon="12.531989000"><ele>113.5</ele><time>2013-07-16T19:35:28Z</time></trkpt>
<trkpt lat="57.095325000" lon="12.531896000"><ele>112.9</ele><time>2013-07-16T19:35:30Z</time></trkpt>
<trkpt lat="57.095413000" lon="12.531847000"><ele>112.3</ele><time>2013-07-16T19:35:32Z</time></trkpt>
<trkpt lat="57.095504000" lon="12.531857000"><ele>111.9</ele><time>2013-07-16T19:35:34Z</time></trkpt>
<trkpt lat="57.095589000" lon="12.531876000"><ele>111.7</ele><time>2013-07-16T19:35:36Z</time></trkpt>
<trkpt lat="57.095675000" lon="12.531918000"><ele>111.6</ele><time>2013-07-16T19:35:38Z</time></trkpt>
<trkpt lat="57.095774000" lon="12.531938000"><ele>111.7</ele><time>2013-07-16T19:35:41Z</time></trkpt>
<trkpt lat="57.095873000" lon="12.531924000"><ele>112.0</ele><time>2013-07-16T19:35:44Z</time></trkpt>
<trkpt lat="57.095990000" lon="12.531871000"><ele>112.5</ele><time>2013-07-16T19:35:47Z</time></trkpt>
<trkpt lat="57.096061000" lon="12.531783000"><ele>113.1</ele><time>2013-07-16T19:35:49Z</time></trkpt>
<trkpt lat="57.096105000" lon="12.531645000"><ele>114.1</ele><time>2013-07-16T19:35:51Z</time></trkpt>
<trkpt lat="57.096102000" lon="12.531423000"><ele>115.3</ele><time>2013-07-16T19:35:54Z</time></trkpt>
<trkpt lat="57.096080000" lon="12.531226000"><ele>116.7</ele><time>2013-07-16T19:35:57Z</time></trkpt>
<trkpt lat="57.096075000" lon="12.531034000"><ele>118.6</ele><time>2013-07-16T19:36:00Z</time></trkpt>
<trkpt lat="57.096104000" lon="12.530872000"><ele>120.4</ele><time>2013-07-16T19:36:03Z</time></trkpt>
<trkpt lat="57.096148000" lon="12.530716000"><ele>122.1</ele><time>2013-07-16T19:36:06Z</time></trkpt>
<trkpt lat="57.096204000" lon="12.530580000"><ele>123.6</ele><time>2013-07-16T19:36:08Z</time></trkpt>
<trkpt lat="57.096249000" lon="12.530427000"><ele>124.5</ele><time>2013-07-16T19:36:10Z</time></trkpt>
<trkpt lat="57.096292000" lon="12.530255000"><ele>124.8</ele><time>2013-07-16T19:36:13Z</time></trkpt>
<trkpt lat="57.096305000" lon="12.530059000"><ele>124.8</ele><time>2013-07-16T19:36:17Z</time></trkpt>
<trkpt lat="57.096331000" lon="12.529896000"><ele>124.9</ele><time>2013-07-16T19:36:21Z</time></trkpt>
<trkpt lat="57.096374000" lon="12.529768000"><ele>124.8</ele><time>2013-07-16T19:36:24Z</time></trkpt>
<trkpt lat="57.096435000" lon="12.529608000"><ele>124.7</ele><time>2013-07-16T19:36:28Z</time></trkpt>
<trkpt lat="57.096529000" lon="12.529548000"><ele>124.5</ele><time>2013-07-16T19:36:31Z</time></trkpt>
<trkpt lat="57.096595000" lon="12.529412000"><ele>123.9</ele><time>2013-07-16T19:36:35Z</time></trkpt>
<trkpt lat="57.096581000" lon="12.529256000"><ele>123.1</ele><time>2013-07-16T19:36:42Z</time></trkpt>
<trkpt lat="57.096536000" lon="12.529117000"><ele>122.5</ele><time>2013-07-16T19:36:47Z</time></trkpt>
<trkpt lat="57.096456000" lon="12.528998000"><ele>122.1</ele><time>2013-07-16T19:36:52Z</time></trkpt>
<trkpt lat="57.096381000" lon="12.528910000"><ele>122.0</ele><time>2013-07-16T19:36:58Z</time></trkpt>
<trkpt lat="57.096288000" lon="12.528841000"><ele>122.2</ele><time>2013-07-16T19:37:02Z</time></trkpt>
<trkpt lat="57.096181000" lon="12.528762000"><ele>122.6</ele><time>2013-07-16T19:37:06Z</time></trkpt>
<trkpt lat="57.096107000" lon="12.528676000"><ele>122.7</ele><time>2013-07-16T19:37:09Z</time></trkpt>
<trkpt lat="57.096023000" lon="12.528618000"><ele>122.5</ele><time>2013-07-16T19:37:13Z</time></trkpt>
<trkpt lat="57.095932000" lon="12.528574000"><ele>122.2</ele><time>2013-07-16T19:37:18Z</time></trkpt>
<trkpt lat="57.095849000" lon="12.528563000"><ele>121.4</ele><time>2013-07-16T19:37:21Z</time></trkpt>
<trkpt lat="57.095757000" lon="12.528569000"><ele>120.6</ele><time>2013-07-16T19:37:25Z</time></trkpt>
<trkpt lat="57.095657000" lon="12.528525000"><ele>119.7</ele><time>2013-07-16T19:37:29Z</time></trkpt>
<trkpt lat="57.095565000" lon="12.528430000"><ele>118.6</ele><time>2013-07-16T19:37:33Z</time></trkpt>
<trkpt lat="57.095492000" lon="12.528343000"><ele>117.4</ele><time>2013-07-16T19:37:36Z</time></trkpt>
<trkpt lat="57.095380000" lon="12.528230000"><ele>115.9</ele><time>2013-07-16T19:37:39Z</time></trkpt>
<trkpt lat="57.095297000" lon="12.528127000"><ele>114.5</ele><time>2013-07-16T19:37:41Z</time></trkpt>
<trkpt lat="57.095221000" lon="12.528055000"><ele>113.1</ele><time>2013-07-16T19:37:43Z</time></trkpt>
<trkpt lat="57.095132000" lon="12.528020000"><ele>111.7</ele><time>2013-07-16T19:37:46Z</time></trkpt>
<trkpt lat="57.095045000" lon="12.527966000"><ele>110.3</ele><time>2013-07-16T19:37:49Z</time></trkpt>
<trkpt lat="57.094937000" lon="12.527952000"><ele>109.1</ele><time>2013-07-16T19:37:52Z</time></trkpt>
<trkpt lat="57.094848000" lon="12.527981000"><ele>108.4</ele><time>2013-07-16T19:37:54Z</time></trkpt>
<trkpt lat="57.094760000" lon="12.527999000"><ele>107.9</ele><time>2013-07-16T19:37:56Z</time></trkpt>
<trkpt lat="57.094679000" lon="12.528037000"><ele>107.8</ele><time>2013-07-16T19:37:58Z</time></trkpt>
<trkpt lat="57.094603000" lon="12.528152000"><ele>108.0</ele><time>2013-07-16T19:38:01Z</time></trkpt>
<trkpt lat="57.094539000" lon="12.528282000"><ele>108.7</ele><time>2013-07-16T19:38:04Z</time></trkpt>
<trkpt lat="57.094467000" lon="12.528392000"><ele>109.8</ele><time>2013-07-16T19:38:07Z</time></trkpt>
<trkpt lat="57.094395000" lon="12.528500000"><ele>110.8</ele><time>2013-07-16T19:38:10Z</time></trkpt>
<trkpt lat="57.094317000" lon="12.528587000"><ele>112.0</ele><time>2013-07-16T19:38:13Z</time></trkpt>
<trkpt lat="57.094247000" lon="12.528687000"><ele>113.4</ele><time>2013-07-16T19:38:16Z</time></trkpt>
<trkpt lat="57.094193000" lon="12.528805000"><ele>115.0</ele><time>2013-07-16T19:38:19Z</time></trkpt>
<trkpt lat="57.094102000" lon="12.528918000"><ele>116.4</ele><time>2013-07-16T19:38:22Z</time></trkpt>
<trkpt lat="57.094030000" lon="12.528991000"><ele>117.7</ele><time>2013-07-16T19:38:24Z</time></trkpt>
<trkpt lat="57.093939000" lon="12.529039000"><ele>119.0</ele><time>2013-07-16T19:38:27Z</time></trkpt>
<trkpt lat="57.093853000" lon="12.529024000"><ele>120.3</ele><time>2013-07-16T19:38:30Z</time></trkpt>
<trkpt lat="57.093752000" lon="12.529016000"><ele>121.4</ele><time>2013-07-16T19:38:34Z</time></trkpt>
<trkpt lat="57.093668000" lon="12.528977000"><ele>122.3</ele><time>2013-07-16T19:38:37Z</time></trkpt>
<trkpt lat="57.093577000" lon="12.528975000"><ele>123.1</ele><time>2013-07-16T19:38:40Z</time></trkpt>
<trkpt lat="57.093475000" lon="12.528888000"><ele>123.9</ele><time>2013-07-16T19:38:43Z</time></trkpt>
<trkpt lat="57.093372000" lon="12.528805000"><ele>124.7</ele><time>2013-07-16T19:38:45Z</time></trkpt>
<trkpt lat="57.093263000" lon="12.528748000"><ele>125.1</ele><time>2013-07-16T19:38:48Z</time></trkpt>
<trkpt lat="57.093183000" lon="12.528695000"><ele>125.3</ele><time>2013-07-16T19:38:50Z</time></trkpt>
<trkpt lat="57.093086000" lon="12.528676000"><ele>125.7</ele><time>2013-07-16T19:38:53Z</time></trkpt>
<trkpt lat="57.092991000" lon="12.528677000"><ele>126.0</ele><time>2013-07-16T19:38:56Z</time></trkpt>
<trkpt lat="57.092909000" lon="12.528667000"><ele>126.1</ele><time>2013-07-16T19:38:58Z</time></trkpt>
<trkpt lat="57.092822000" lon="12.528679000"><ele>125.9</ele><time>2013-07-16T19:39:00Z</time></trkpt>
<trkpt lat="57.092723000" lon="12.528733000"><ele>125.4</ele><time>2013-07-16T19:39:03Z</time></trkpt>
<trkpt lat="57.092663000" lon="12.528836000"><ele>124.8</ele><time>2013-07-16T19:39:06Z</time></trkpt>
<trkpt lat="57.092583000" lon="12.528863000"><ele>124.0</ele><time>2013-07-16T19:39:08Z</time></trkpt>
<trkpt lat="57.092501000" lon="12.528871000"><ele>123.0</ele><time>2013-07-16T19:39:10Z</time></trkpt>
<trkpt lat="57.092418000" lon="12.528871000"><ele>121.9</ele><time>2013-07-16T19:39:12Z</time></trkpt>
<trkpt lat="57.092308000" lon="12.528885000"><ele>120.8</ele><time>2013-07-16T19:39:16Z</time></trkpt>
<trkpt lat="57.092203000" lon="12.528897000"><ele>119.8</ele><time>2013-07-16T19:39:20Z</time></trkpt>
<trkpt lat="57.092099000" lon="12.528870000"><ele>118.6</ele><time>2013-07-16T19:39:23Z</time></trkpt>
<trkpt lat="57.092010000" lon="12.528897000"><ele>117.5</ele><time>2013-07-16T19:39:26Z</time></trkpt>
<trkpt lat="57.091905000" lon="12.528976000"><ele>116.4</ele><time>2013-07-16T19:39:29Z</time></trkpt>
<trkpt lat="57.091817000" lon="12.529056000"><ele>115.6</ele><time>2013-07-16T19:39:31Z</time></trkpt>
<trkpt lat="57.091742000" lon="12.529178000"><ele>114.7</ele><time>2013-07-16T19:39:33Z</time></trkpt>
<trkpt lat="57.091652000" lon="12.529275000"><ele>113.9</ele><time>2013-07-16T19:39:35Z</time></trkpt>
<trkpt lat="57.091570000" lon="12.529243000"><ele>113.0</ele><time>2013-07-16T19:39:36Z</time></trkpt>
<trkpt lat="57.091479000" lon="12.529195000"><ele>112.3</ele><time>2013-07-16T19:39:38Z</time></trkpt>
<trkpt lat="57.091382000" lon="12.529119000"><ele>111.7</ele><time>2013-07-16T19:39:40Z</time></trkpt>
<trkpt lat="57.091255000" lon="12.529081000"><ele>111.1</ele><time>2013-07-16T19:39:43Z</time></trkpt>
<trkpt lat="57.091172000" lon="12.529081000"><ele>110.7</ele><time>2013-07-16T19:39:45Z</time></trkpt>
<trkpt lat="57.091091000" lon="12.529046000"><ele>110.5</ele><time>2013-07-16T19:39:47Z</time></trkpt>
<trkpt lat="57.090987000" lon="12.529010000"><ele>110.1</ele><time>2013-07-16T19:39:49Z</time></trkpt>
<trkpt lat="57.090844000" lon="12.529020000"><ele>109.6</ele><time>2013-07-16T19:39:51Z</time></trkpt>
<trkpt lat="57.090761000" lon="12.529036000"><ele>108.9</ele><time>2013-07-16T19:39:52Z</time></trkpt>
<trkpt lat="57.090606000" lon="12.528997000"><ele>108.2</ele><time>2013-07-16T19:39:54Z</time></trkpt>
<trkpt lat="57.090527000" lon="12.528948000"><ele>107.6</ele><time>2013-07-16T19:39:55Z</time></trkpt>
<trkpt lat="57.090390000" lon="12.528856000"><ele>107.0</ele><time>2013-07-16T19:39:57Z</time></trkpt>
<trkpt lat="57.090242000" lon="12.528767000"><ele>106.4</ele><time>2013-07-16T19:39:59Z</time></trkpt>
<trkpt lat="57.090129000" lon="12.528739000"><ele>105.7</ele><time>2013-07-16T19:40:01Z</time></trkpt>
<trkpt lat="57.090027000" lon="12.528767000"><ele>105.0</ele><time>2013-07-16T19:40:03Z</time></trkpt>
<trkpt lat="57.089936000" lon="12.528830000"><ele>104.2</ele><time>2013-07-16T19:40:05Z</time></trkpt>
<trkpt lat="57.089848000" lon="12.528910000"><ele>103.5</ele><time>2013-07-16T19:40:07Z</time></trkpt>
<trkpt lat="57.089764000" lon="12.529020000"><ele>103.0</ele><time>2013-07-16T19:40:09Z</time></trkpt>
<trkpt lat="57.089673000" lon="12.529087000"><ele>102.5</ele><time>2013-07-16T19:40:11Z</time></trkpt>
<trkpt lat="57.089578000" lon="12.529162000"><ele>102.3</ele><time>2013-07-16T19:40:13Z</time></trkpt>
<trkpt lat="57.089491000" lon="12.529256000"><ele>102.2</ele><time>2013-07-16T19:40:15Z</time></trkpt>
<trkpt lat="57.089371000" lon="12.529286000"><ele>102.3</ele><time>2013-07-16T19:40:17Z</time></trkpt>
<trkpt lat="57.089261000" lon="12.529304000"><ele>102.4</ele><time>2013-07-16T19:40:19Z</time></trkpt>
<trkpt lat="57.089148000" lon="12.529367000"><ele>102.5</ele><time>2013-07-16T19:40:21Z</time></trkpt>
<trkpt lat="57.089003000" lon="12.529388000"><ele>102.6</ele><time>2013-07-16T19:40:23Z</time></trkpt>
<trkpt lat="57.088849000" lon="12.529404000"><ele>102.8</ele><time>2013-07-16T19:40:25Z</time></trkpt>
<trkpt lat="57.088688000" lon="12.529415000"><ele>103.1</ele><time>2013-07-16T19:40:27Z</time></trkpt>
<trkpt lat="57.088603000" lon="12.529433000"><ele>103.3</ele><time>2013-07-16T19:40:28Z</time></trkpt>
<trkpt lat="57.088470000" lon="12.529513000"><ele>103.4</ele><time>2013-07-16T19:40:30Z</time></trkpt>
<trkpt lat="57.088342000" lon="12.529575000"><ele>103.3</ele><time>2013-07-16T19:40:32Z</time></trkpt>
<trkpt lat="57.088219000" lon="12.529599000"><ele>103.2</ele><time>2013-07-16T19:40:34Z</time></trkpt>
<trkpt lat="57.088093000" lon="12.529584000"><ele>102.9</ele><time>2013-07-16T19:40:36Z</time></trkpt>
<trkpt lat="57.087995000" lon="12.529559000"><ele>102.6</ele><time>2013-07-16T19:40:38Z</time></trkpt>
<trkpt lat="57.087898000" lon="12.529507000"><ele>102.1</ele><time>2013-07-16T19:40:40Z</time></trkpt>
<trkpt lat="57.087809000" lon="12.529452000"><ele>101.8</ele><time>2013-07-16T19:40:42Z</time></trkpt>
<trkpt lat="57.087696000" lon="12.529404000"><ele>101.5</ele><time>2013-07-16T19:40:44Z</time></trkpt>
<trkpt lat="57.087598000" lon="12.529311000"><ele>101.0</ele><time>2013-07-16T19:40:46Z</time></trkpt>
<trkpt lat="57.087512000" lon="12.529234000"><ele>100.3</ele><time>2013-07-16T19:40:48Z</time></trkpt>
<trkpt lat="57.087418000" lon="12.529155000"><ele>99.5</ele><time>2013-07-16T19:40:50Z</time></trkpt>
<trkpt lat="57.087316000" lon="12.529109000"><ele>98.8</ele><time>2013-07-16T19:40:52Z</time></trkpt>
<trkpt lat="57.087204000" lon="12.529091000"><ele>98.0</ele><time>2013-07-16T19:40:54Z</time></trkpt>
<trkpt lat="57.087094000" lon="12.529105000"><ele>97.1</ele><time>2013-07-16T19:40:56Z</time></trkpt>
<trkpt lat="57.086997000" lon="12.529212000"><ele>96.3</ele><time>2013-07-16T19:40:58Z</time></trkpt>
<trkpt lat="57.086899000" lon="12.529328000"><ele>95.2</ele><time>2013-07-16T19:41:00Z</time></trkpt>
<trkpt lat="57.086813000" lon="12.529447000"><ele>94.1</ele><time>2013-07-16T19:41:02Z</time></trkpt>
<trkpt lat="57.086743000" lon="12.529563000"><ele>92.9</ele><time>2013-07-16T19:41:04Z</time></trkpt>
<trkpt lat="57.086662000" lon="12.529634000"><ele>91.6</ele><time>2013-07-16T19:41:06Z</time></trkpt>
<trkpt lat="57.086562000" lon="12.529697000"><ele>90.3</ele><time>2013-07-16T19:41:08Z</time></trkpt>
<trkpt lat="57.086483000" lon="12.529798000"><ele>89.0</ele><time>2013-07-16T19:41:10Z</time></trkpt>
<trkpt lat="57.086391000" lon="12.529895000"><ele>87.6</ele><time>2013-07-16T19:41:12Z</time></trkpt>
<trkpt lat="57.086304000" lon="12.530020000"><ele>86.0</ele><time>2013-07-16T19:41:14Z</time></trkpt>
<trkpt lat="57.086207000" lon="12.530153000"><ele>84.5</ele><time>2013-07-16T19:41:16Z</time></trkpt>
<trkpt lat="57.086104000" lon="12.530312000"><ele>83.2</ele><time>2013-07-16T19:41:18Z</time></trkpt>
<trkpt lat="57.085998000" lon="12.530441000"><ele>82.1</ele><time>2013-07-16T19:41:20Z</time></trkpt>
<trkpt lat="57.085884000" lon="12.530630000"><ele>81.2</ele><time>2013-07-16T19:41:22Z</time></trkpt>
<trkpt lat="57.085790000" lon="12.530849000"><ele>80.4</ele><time>2013-07-16T19:41:24Z</time></trkpt>
<trkpt lat="57.085734000" lon="12.531039000"><ele>80.3</ele><time>2013-07-16T19:41:26Z</time></trkpt>
<trkpt lat="57.085681000" lon="12.531209000"><ele>81.6</ele><time>2013-07-16T19:41:28Z</time></trkpt>
<trkpt lat="57.085630000" lon="12.531334000"><ele>83.2</ele><time>2013-07-16T19:41:30Z</time></trkpt>
<trkpt lat="57.085591000" lon="12.531479000"><ele>84.9</ele><time>2013-07-16T19:41:33Z</time></trkpt>
<trkpt lat="57.085550000" lon="12.531623000"><ele>86.9</ele><time>2013-07-16T19:41:37Z</time></trkpt>
<trkpt lat="57.085470000" lon="12.531572000"><ele>89.0</ele><time>2013-07-16T19:41:44Z</time></trkpt>
<trkpt lat="57.085383000" lon="12.531539000"><ele>91.1</ele><time>2013-07-16T19:42:15Z</time></trkpt>
<trkpt lat="57.085304000" lon="12.531445000"><ele>93.3</ele><time>2013-07-16T19:42:33Z</time></trkpt>
<trkpt lat="57.085232000" lon="12.531312000"><ele>95.1</ele><time>2013-07-16T19:42:36Z</time></trkpt>
<trkpt lat="57.085144000" lon="12.531178000"><ele>96.9</ele><time>2013-07-16T19:42:39Z</time></trkpt>
<trkpt lat="57.085026000" lon="12.531109000"><ele>98.6</ele><time>2013-07-16T19:42:42Z</time></trkpt>
<trkpt lat="57.084933000" lon="12.531120000"><ele>99.9</ele><time>2013-07-16T19:42:44Z</time></trkpt>
<trkpt lat="57.084827000" lon="12.531122000"><ele>100.0</ele><time>2013-07-16T19:42:46Z</time></trkpt>
<trkpt lat="57.084718000" lon="12.531123000"><ele>99.9</ele><time>2013-07-16T19:42:48Z</time></trkpt>
<trkpt lat="57.084592000" lon="12.531094000"><ele>99.8</ele><time>2013-07-16T19:42:50Z</time></trkpt>
<trkpt lat="57.084464000" lon="12.531037000"><ele>99.7</ele><time>2013-07-16T19:42:52Z</time></trkpt>
<trkpt lat="57.084347000" lon="12.530955000"><ele>99.5</ele><time>2013-07-16T19:42:54Z</time></trkpt>
<trkpt lat="57.084242000" lon="12.530872000"><ele>99.5</ele><time>2013-07-16T19:42:56Z</time></trkpt>
<trkpt lat="57.084149000" lon="12.530793000"><ele>99.5</ele><time>2013-07-16T19:42:58Z</time></trkpt>
<trkpt lat="57.084066000" lon="12.530725000"><ele>99.5</ele><time>2013-07-16T19:43:00Z</time></trkpt>
<trkpt lat="57.083982000" lon="12.530658000"><ele>99.7</ele><time>2013-07-16T19:43:02Z</time></trkpt>
<trkpt lat="57.083893000" lon="12.530601000"><ele>99.9</ele><time>2013-07-16T19:43:04Z</time></trkpt>
<trkpt lat="57.083807000" lon="12.530516000"><ele>100.0</ele><time>2013-07-16T19:43:06Z</time></trkpt>
<trkpt lat="57.083721000" lon="12.530415000"><ele>100.0</ele><time>2013-07-16T19:43:08Z</time></trkpt>
<trkpt lat="57.083634000" lon="12.530302000"><ele>100.1</ele><time>2013-07-16T19:43:10Z</time></trkpt>
<trkpt lat="57.083546000" lon="12.530169000"><ele>100.3</ele><time>2013-07-16T19:43:12Z</time></trkpt>
<trkpt lat="57.083455000" lon="12.530047000"><ele>100.4</ele><time>2013-07-16T19:43:14Z</time></trkpt>
<trkpt lat="57.083352000" lon="12.529893000"><ele>100.6</ele><time>2013-07-16T19:43:16Z</time></trkpt>
<trkpt lat="57.083264000" lon="12.529762000"><ele>100.6</ele><time>2013-07-16T19:43:18Z</time></trkpt>
<trkpt lat="57.083169000" lon="12.529610000"><ele>100.6</ele><time>2013-07-16T19:43:20Z</time></trkpt>
<trkpt lat="57.083057000" lon="12.529442000"><ele>100.7</ele><time>2013-07-16T19:43:22Z</time></trkpt>
<trkpt lat="57.082953000" lon="12.529279000"><ele>100.7</ele><time>2013-07-16T19:43:24Z</time></trkpt>
<trkpt lat="57.082847000" lon="12.529105000"><ele>100.6</ele><time>2013-07-16T19:43:26Z</time></trkpt>
<trkpt lat="57.082724000" lon="12.528960000"><ele>100.5</ele><time>2013-07-16T19:43:28Z</time></trkpt>
<trkpt lat="57.082588000" lon="12.528791000"><ele>100.4</ele><time>2013-07-16T19:43:30Z</time></trkpt>
<trkpt lat="57.082521000" lon="12.528694000"><ele>100.4</ele><time>2013-07-16T19:43:31Z</time></trkpt>
<trkpt lat="57.082449000" lon="12.528584000"><ele>100.5</ele><time>2013-07-16T19:43:32Z</time></trkpt>
<trkpt lat="57.082383000" lon="12.528457000"><ele>100.7</ele><time>2013-07-16T19:43:33Z</time></trkpt>
<trkpt lat="57.082326000" lon="12.528333000"><ele>100.9</ele><time>2013-07-16T19:43:34Z</time></trkpt>
<trkpt lat="57.082267000" lon="12.528208000"><ele>101.2</ele><time>2013-07-16T19:43:35Z</time></trkpt>
<trkpt lat="57.082169000" lon="12.527973000"><ele>101.7</ele><time>2013-07-16T19:43:37Z</time></trkpt>
<trkpt lat="57.082097000" lon="12.527715000"><ele>102.3</ele><time>2013-07-16T19:43:39Z</time></trkpt>
<trkpt lat="57.082038000" lon="12.527552000"><ele>102.9</ele><time>2013-07-16T19:43:40Z</time></trkpt>
<trkpt lat="57.081985000" lon="12.527418000"><ele>103.6</ele><time>2013-07-16T19:43:41Z</time></trkpt>
<trkpt lat="57.081879000" lon="12.527211000"><ele>103.9</ele><time>2013-07-16T19:43:43Z</time></trkpt>
<trkpt lat="57.081796000" lon="12.526990000"><ele>103.9</ele><time>2013-07-16T19:43:45Z</time></trkpt>
<trkpt lat="57.081698000" lon="12.526738000"><ele>103.5</ele><time>2013-07-16T19:43:47Z</time></trkpt>
<trkpt lat="57.081652000" lon="12.526603000"><ele>103.1</ele><time>2013-07-16T19:43:48Z</time></trkpt>
<trkpt lat="57.081622000" lon="12.526451000"><ele>102.4</ele><time>2013-07-16T19:43:49Z</time></trkpt>
<trkpt lat="57.081621000" lon="12.526296000"><ele>101.6</ele><time>2013-07-16T19:43:50Z</time></trkpt>
<trkpt lat="57.081637000" lon="12.526142000"><ele>100.7</ele><time>2013-07-16T19:43:51Z</time></trkpt>
<trkpt lat="57.081677000" lon="12.525987000"><ele>99.5</ele><time>2013-07-16T19:43:52Z</time></trkpt>
<trkpt lat="57.081728000" lon="12.525859000"><ele>98.2</ele><time>2013-07-16T19:43:53Z</time></trkpt>
<trkpt lat="57.081786000" lon="12.525739000"><ele>96.9</ele><time>2013-07-16T19:43:54Z</time></trkpt>
<trkpt lat="57.081848000" lon="12.525633000"><ele>95.6</ele><time>2013-07-16T19:43:55Z</time></trkpt>
<trkpt lat="57.081912000" lon="12.525542000"><ele>94.7</ele><time>2013-07-16T19:43:56Z</time></trkpt>
<trkpt lat="57.082034000" lon="12.525356000"><ele>94.0</ele><time>2013-07-16T19:43:58Z</time></trkpt>
<trkpt lat="57.082158000" lon="12.525191000"><ele>93.7</ele><time>2013-07-16T19:44:00Z</time></trkpt>
<trkpt lat="57.082262000" lon="12.525010000"><ele>93.2</ele><time>2013-07-16T19:44:02Z</time></trkpt>
<trkpt lat="57.082341000" lon="12.524823000"><ele>92.8</ele><time>2013-07-16T19:44:04Z</time></trkpt>
<trkpt lat="57.082400000" lon="12.524663000"><ele>92.3</ele><time>2013-07-16T19:44:06Z</time></trkpt>
<trkpt lat="57.082455000" lon="12.524490000"><ele>91.9</ele><time>2013-07-16T19:44:08Z</time></trkpt>
<trkpt lat="57.082498000" lon="12.524287000"><ele>91.8</ele><time>2013-07-16T19:44:10Z</time></trkpt>
<trkpt lat="57.082541000" lon="12.524144000"><ele>91.7</ele><time>2013-07-16T19:44:12Z</time></trkpt>
<trkpt lat="57.082603000" lon="12.523956000"><ele>91.5</ele><time>2013-07-16T19:44:15Z</time></trkpt>
<trkpt lat="57.082683000" lon="12.523788000"><ele>91.3</ele><time>2013-07-16T19:44:18Z</time></trkpt>
<trkpt lat="57.082742000" lon="12.523673000"><ele>91.0</ele><time>2013-07-16T19:44:20Z</time></trkpt>
<trkpt lat="57.082811000" lon="12.523581000"><ele>90.7</ele><time>2013-07-16T19:44:22Z</time></trkpt>
<trkpt lat="57.082920000" lon="12.523501000"><ele>90.4</ele><time>2013-07-16T19:44:25Z</time></trkpt>
<trkpt lat="57.083039000" lon="12.523449000"><ele>90.1</ele><time>2013-07-16T19:44:28Z</time></trkpt>
<trkpt lat="57.083132000" lon="12.523411000"><ele>89.8</ele><time>2013-07-16T19:44:30Z</time></trkpt>
<trkpt lat="57.083226000" lon="12.523348000"><ele>89.7</ele><time>2013-07-16T19:44:32Z</time></trkpt>
<trkpt lat="57.083317000" lon="12.523217000"><ele>89.3</ele><time>2013-07-16T19:44:34Z</time></trkpt>
<trkpt lat="57.083391000" lon="12.523021000"><ele>88.8</ele><time>2013-07-16T19:44:36Z</time></trkpt>
<trkpt lat="57.083442000" lon="12.522781000"><ele>88.2</ele><time>2013-07-16T19:44:38Z</time></trkpt>
<trkpt lat="57.083488000" lon="12.522535000"><ele>87.6</ele><time>2013-07-16T19:44:40Z</time></trkpt>
<trkpt lat="57.083525000" lon="12.522305000"><ele>86.9</ele><time>2013-07-16T19:44:42Z</time></trkpt>
<trkpt lat="57.083542000" lon="12.522071000"><ele>86.2</ele><time>2013-07-16T19:44:44Z</time></trkpt>
<trkpt lat="57.083545000" lon="12.521823000"><ele>85.5</ele><time>2013-07-16T19:44:46Z</time></trkpt>
<trkpt lat="57.083545000" lon="12.521556000"><ele>84.8</ele><time>2013-07-16T19:44:48Z</time></trkpt>
<trkpt lat="57.083558000" lon="12.521297000"><ele>84.1</ele><time>2013-07-16T19:44:50Z</time></trkpt>
<trkpt lat="57.083571000" lon="12.521041000"><ele>83.4</ele><time>2013-07-16T19:44:52Z</time></trkpt>
<trkpt lat="57.083590000" lon="12.520788000"><ele>82.7</ele><time>2013-07-16T19:44:54Z</time></trkpt>
<trkpt lat="57.083619000" lon="12.520527000"><ele>82.1</ele><time>2013-07-16T19:44:56Z</time></trkpt>
<trkpt lat="57.083647000" lon="12.520244000"><ele>81.4</ele><time>2013-07-16T19:44:58Z</time></trkpt>
<trkpt lat="57.083662000" lon="12.520097000"><ele>80.8</ele><time>2013-07-16T19:44:59Z</time></trkpt>
<trkpt lat="57.083673000" lon="12.519798000"><ele>80.2</ele><time>2013-07-16T19:45:01Z</time></trkpt>
<trkpt lat="57.083675000" lon="12.519649000"><ele>79.7</ele><time>2013-07-16T19:45:02Z</time></trkpt>
<trkpt lat="57.083673000" lon="12.519499000"><ele>79.2</ele><time>2013-07-16T19:45:03Z</time></trkpt>
<trkpt lat="57.083689000" lon="12.519207000"><ele>78.7</ele><time>2013-07-16T19:45:05Z</time></trkpt>
<trkpt lat="57.083719000" lon="12.518921000"><ele>78.2</ele><time>2013-07-16T19:45:07Z</time></trkpt>
<trkpt lat="57.083746000" lon="12.518650000"><ele>77.7</ele><time>2013-07-16T19:45:09Z</time></trkpt>
<trkpt lat="57.083732000" lon="12.518391000"><ele>77.2</ele><time>2013-07-16T19:45:11Z</time></trkpt>
<trkpt lat="57.083683000" lon="12.518153000"><ele>76.7</ele><time>2013-07-16T19:45:13Z</time></trkpt>
<trkpt lat="57.083618000" lon="12.517944000"><ele>76.3</ele><time>2013-07-16T19:45:15Z</time></trkpt>
<trkpt lat="57.083542000" lon="12.517721000"><ele>76.0</ele><time>2013-07-16T19:45:17Z</time></trkpt>
<trkpt lat="57.083462000" lon="12.517527000"><ele>75.7</ele><time>2013-07-16T19:45:19Z</time></trkpt>
<trkpt lat="57.083366000" lon="12.517379000"><ele>75.5</ele><time>2013-07-16T19:45:21Z</time></trkpt>
<trkpt lat="57.083257000" lon="12.517274000"><ele>75.5</ele><time>2013-07-16T19:45:23Z</time></trkpt>
<trkpt lat="57.083155000" lon="12.517230000"><ele>75.5</ele><time>2013-07-16T19:45:25Z</time></trkpt>
<trkpt lat="57.083056000" lon="12.517200000"><ele>75.5</ele><time>2013-07-16T19:45:27Z</time></trkpt>
<trkpt lat="57.082966000" lon="12.517176000"><ele>75.6</ele><time>2013-07-16T19:45:29Z</time></trkpt>
<trkpt lat="57.082844000" lon="12.517166000"><ele>76.0</ele><time>2013-07-16T19:45:32Z</time></trkpt>
<trkpt lat="57.082738000" lon="12.517160000"><ele>76.2</ele><time>2013-07-16T19:45:35Z</time></trkpt>
<trkpt lat="57.082633000" lon="12.517187000"><ele>76.5</ele><time>2013-07-16T19:45:38Z</time></trkpt>
<trkpt lat="57.082544000" lon="12.517208000"><ele>76.9</ele><time>2013-07-16T19:45:41Z</time></trkpt>
<trkpt lat="57.082447000" lon="12.517241000"><ele>77.5</ele><time>2013-07-16T19:45:44Z</time></trkpt>
<trkpt lat="57.082355000" lon="12.517272000"><ele>78.1</ele><time>2013-07-16T19:45:47Z</time></trkpt>
<trkpt lat="57.082238000" lon="12.517318000"><ele>78.6</ele><time>2013-07-16T19:45:50Z</time></trkpt>
<trkpt lat="57.082155000" lon="12.517287000"><ele>79.3</ele><time>2013-07-16T19:45:54Z</time></trkpt>
<trkpt lat="57.082225000" lon="12.517185000"><ele>80.0</ele><time>2013-07-16T19:46:02Z</time></trkpt>
<trkpt lat="57.082254000" lon="12.517003000"><ele>80.9</ele><time>2013-07-16T19:46:05Z</time></trkpt>
<trkpt lat="57.082272000" lon="12.516854000"><ele>81.9</ele><time>2013-07-16T19:46:07Z</time></trkpt>
<trkpt lat="57.082303000" lon="12.516655000"><ele>83.0</ele><time>2013-07-16T19:46:10Z</time></trkpt>
<trkpt lat="57.082331000" lon="12.516474000"><ele>84.0</ele><time>2013-07-16T19:46:13Z</time></trkpt>
<trkpt lat="57.082353000" lon="12.516321000"><ele>85.0</ele><time>2013-07-16T19:46:16Z</time></trkpt>
<trkpt lat="57.082333000" lon="12.516164000"><ele>85.8</ele><time>2013-07-16T19:46:19Z</time></trkpt>
<trkpt lat="57.082334000" lon="12.515994000"><ele>86.6</ele><time>2013-07-16T19:46:23Z</time></trkpt>
<trkpt lat="57.082371000" lon="12.515816000"><ele>87.4</ele><time>2013-07-16T19:46:27Z</time></trkpt>
<trkpt lat="57.082427000" lon="12.515691000"><ele>88.2</ele><time>2013-07-16T19:46:30Z</time></trkpt>
<trkpt lat="57.082510000" lon="12.515577000"><ele>88.8</ele><time>2013-07-16T19:46:34Z</time></trkpt>
<trkpt lat="57.082592000" lon="12.515471000"><ele>89.5</ele><time>2013-07-16T19:46:38Z</time></trkpt>
<trkpt lat="57.082662000" lon="12.515386000"><ele>90.1</ele><time>2013-07-16T19:46:41Z</time></trkpt>
<trkpt lat="57.082740000" lon="12.515313000"><ele>90.6</ele><time>2013-07-16T19:46:44Z</time></trkpt>
<trkpt lat="57.082844000" lon="12.515232000"><ele>91.3</ele><time>2013-07-16T19:46:47Z</time></trkpt>
<trkpt lat="57.082961000" lon="12.515181000"><ele>92.2</ele><time>2013-07-16T19:46:49Z</time></trkpt>
<trkpt lat="57.083030000" lon="12.515070000"><ele>93.2</ele><time>2013-07-16T19:46:51Z</time></trkpt>
<trkpt lat="57.083063000" lon="12.514913000"><ele>94.1</ele><time>2013-07-16T19:46:53Z</time></trkpt>
<trkpt lat="57.083074000" lon="12.514719000"><ele>95.0</ele><time>2013-07-16T19:46:56Z</time></trkpt>
<trkpt lat="57.083049000" lon="12.514530000"><ele>95.9</ele><time>2013-07-16T19:46:59Z</time></trkpt>
<trkpt lat="57.083017000" lon="12.514340000"><ele>97.0</ele><time>2013-07-16T19:47:02Z</time></trkpt>
<trkpt lat="57.082998000" lon="12.514176000"><ele>98.0</ele><time>2013-07-16T19:47:04Z</time></trkpt>
<trkpt lat="57.083014000" lon="12.513976000"><ele>98.6</ele><time>2013-07-16T19:47:07Z</time></trkpt>
<trkpt lat="57.083043000" lon="12.513778000"><ele>99.0</ele><time>2013-07-16T19:47:10Z</time></trkpt>
<trkpt lat="57.083075000" lon="12.513614000"><ele>99.2</ele><time>2013-07-16T19:47:13Z</time></trkpt>
<trkpt lat="57.083161000" lon="12.513501000"><ele>99.0</ele><time>2013-07-16T19:47:16Z</time></trkpt>
<trkpt lat="57.083264000" lon="12.513505000"><ele>98.5</ele><time>2013-07-16T19:47:19Z</time></trkpt>
<trkpt lat="57.083372000" lon="12.513506000"><ele>98.2</ele><time>2013-07-16T19:47:22Z</time></trkpt>
<trkpt lat="57.083478000" lon="12.513439000"><ele>98.1</ele><time>2013-07-16T19:47:25Z</time></trkpt>
<trkpt lat="57.083563000" lon="12.513417000"><ele>97.9</ele><time>2013-07-16T19:47:27Z</time></trkpt>
<trkpt lat="57.083650000" lon="12.513401000"><ele>97.7</ele><time>2013-07-16T19:47:29Z</time></trkpt>
<trkpt lat="57.083740000" lon="12.513414000"><ele>97.4</ele><time>2013-07-16T19:47:31Z</time></trkpt>
<trkpt lat="57.083845000" lon="12.513418000"><ele>97.1</ele><time>2013-07-16T19:47:33Z</time></trkpt>
<trkpt lat="57.083940000" lon="12.513377000"><ele>96.9</ele><time>2013-07-16T19:47:35Z</time></trkpt>
<trkpt lat="57.084019000" lon="12.513282000"><ele>96.8</ele><time>2013-07-16T19:47:37Z</time></trkpt>
<trkpt lat="57.084097000" lon="12.513189000"><ele>96.8</ele><time>2013-07-16T19:47:39Z</time></trkpt>
<trkpt lat="57.084169000" lon="12.513080000"><ele>96.9</ele><time>2013-07-16T19:47:41Z</time></trkpt>
<trkpt lat="57.084235000" lon="12.512981000"><ele>97.0</ele><time>2013-07-16T19:47:43Z</time></trkpt>
<trkpt lat="57.084275000" lon="12.512835000"><ele>96.9</ele><time>2013-07-16T19:47:45Z</time></trkpt>
<trkpt lat="57.084300000" lon="12.512659000"><ele>96.6</ele><time>2013-07-16T19:47:47Z</time></trkpt>
<trkpt lat="57.084323000" lon="12.512485000"><ele>96.1</ele><time>2013-07-16T19:47:49Z</time></trkpt>
<trkpt lat="57.084352000" lon="12.512333000"><ele>95.7</ele><time>2013-07-16T19:47:51Z</time></trkpt>
<trkpt lat="57.084383000" lon="12.512192000"><ele>95.2</ele><time>2013-07-16T19:47:53Z</time></trkpt>
<trkpt lat="57.084413000" lon="12.512053000"><ele>94.7</ele><time>2013-07-16T19:47:55Z</time></trkpt>
<trkpt lat="57.084444000" lon="12.511845000"><ele>94.3</ele><time>2013-07-16T19:47:58Z</time></trkpt>
<trkpt lat="57.084461000" lon="12.511638000"><ele>94.1</ele><time>2013-07-16T19:48:01Z</time></trkpt>
<trkpt lat="57.084456000" lon="12.511424000"><ele>94.0</ele><time>2013-07-16T19:48:04Z</time></trkpt>
<trkpt lat="57.084473000" lon="12.511213000"><ele>93.9</ele><time>2013-07-16T19:48:07Z</time></trkpt>
<trkpt lat="57.084460000" lon="12.511011000"><ele>94.1</ele><time>2013-07-16T19:48:10Z</time></trkpt>
<trkpt lat="57.084413000" lon="12.510842000"><ele>94.4</ele><time>2013-07-16T19:48:13Z</time></trkpt>
<trkpt lat="57.084352000" lon="12.510652000"><ele>95.0</ele><time>2013-07-16T19:48:16Z</time></trkpt>
<trkpt lat="57.084317000" lon="12.510506000"><ele>95.8</ele><time>2013-07-16T19:48:18Z</time></trkpt>
<trkpt lat="57.084267000" lon="12.510304000"><ele>96.6</ele><time>2013-07-16T19:48:21Z</time></trkpt>
<trkpt lat="57.084215000" lon="12.510135000"><ele>97.5</ele><time>2013-07-16T19:48:24Z</time></trkpt>
<trkpt lat="57.084169000" lon="12.509975000"><ele>98.7</ele><time>2013-07-16T19:48:27Z</time></trkpt>
<trkpt lat="57.084122000" lon="12.509815000"><ele>100.0</ele><time>2013-07-16T19:48:31Z</time></trkpt>
<trkpt lat="57.084055000" lon="12.509728000"><ele>101.4</ele><time>2013-07-16T19:48:36Z</time></trkpt>
<trkpt lat="57.083977000" lon="12.509603000"><ele>102.9</ele><time>2013-07-16T19:48:42Z</time></trkpt>
<trkpt lat="57.083906000" lon="12.509517000"><ele>104.5</ele><time>2013-07-16T19:48:49Z</time></trkpt>
<trkpt lat="57.083847000" lon="12.509412000"><ele>106.0</ele><time>2013-07-16T19:48:57Z</time></trkpt>
<trkpt lat="57.083787000" lon="12.509291000"><ele>107.5</ele><time>2013-07-16T19:49:08Z</time></trkpt>
<trkpt lat="57.083759000" lon="12.509133000"><ele>108.8</ele><time>2013-07-16T19:49:22Z</time></trkpt>
<trkpt lat="57.083730000" lon="12.508972000"><ele>110.1</ele><time>2013-07-16T19:49:32Z</time></trkpt>
<trkpt lat="57.083670000" lon="12.508816000"><ele>111.6</ele><time>2013-07-16T19:49:39Z</time></trkpt>
<trkpt lat="57.083643000" lon="12.508669000"><ele>113.2</ele><time>2013-07-16T19:49:45Z</time></trkpt>
<trkpt lat="57.083583000" lon="12.508565000"><ele>114.5</ele><time>2013-07-16T19:49:54Z</time></trkpt>
<trkpt lat="57.083510000" lon="12.508465000"><ele>115.6</ele><time>2013-07-16T19:50:05Z</time></trkpt>
<trkpt lat="57.083430000" lon="12.508382000"><ele>116.7</ele><time>2013-07-16T19:50:10Z</time></trkpt>
<trkpt lat="57.083355000" lon="12.508309000"><ele>117.7</ele><time>2013-07-16T19:50:20Z</time></trkpt>
<trkpt lat="57.083283000" lon="12.508223000"><ele>119.1</ele><time>2013-07-16T19:50:31Z</time></trkpt>
<trkpt lat="57.083215000" lon="12.508135000"><ele>120.3</ele><time>2013-07-16T19:50:37Z</time></trkpt>
<trkpt lat="57.083145000" lon="12.508053000"><ele>121.4</ele><time>2013-07-16T19:50:44Z</time></trkpt>
<trkpt lat="57.083076000" lon="12.507962000"><ele>122.4</ele><time>2013-07-16T19:50:53Z</time></trkpt>
<trkpt lat="57.083010000" lon="12.507861000"><ele>123.2</ele><time>2013-07-16T19:51:10Z</time></trkpt>
<trkpt lat="57.082956000" lon="12.507748000"><ele>124.2</ele><time>2013-07-16T19:54:44Z</time></trkpt>
<trkpt lat="57.082924000" lon="12.507593000"><ele>125.0</ele><time>2013-07-16T19:57:18Z</time></trkpt>
<trkpt lat="57.082882000" lon="12.507447000"><ele>126.0</ele><time>2013-07-16T19:57:21Z</time></trkpt>
<trkpt lat="57.082809000" lon="12.507343000"><ele>126.9</ele><time>2013-07-16T19:57:28Z</time></trkpt>
<trkpt lat="57.082713000" lon="12.507350000"><ele>127.7</ele><time>2013-07-16T19:57:32Z</time></trkpt>
<trkpt lat="57.082647000" lon="12.507234000"><ele>128.2</ele><time>2013-07-16T19:58:10Z</time></trkpt>
<trkpt lat="57.082595000" lon="12.507111000"><ele>128.1</ele><time>2013-07-16T19:58:16Z</time></trkpt>
<trkpt lat="57.082551000" lon="12.506921000"><ele>128.1</ele><time>2013-07-16T19:58:30Z</time></trkpt>
<trkpt lat="57.082515000" lon="12.506719000"><ele>128.1</ele><time>2013-07-16T19:58:33Z</time></trkpt>
<trkpt lat="57.082499000" lon="12.506554000"><ele>127.9</ele><time>2013-07-16T19:58:35Z</time></trkpt>
<trkpt lat="57.082432000" lon="12.506418000"><ele>127.7</ele><time>2013-07-16T19:58:37Z</time></trkpt>
<trkpt lat="57.082335000" lon="12.506307000"><ele>127.0</ele><time>2013-07-16T19:58:39Z</time></trkpt>
<trkpt lat="57.082230000" lon="12.506121000"><ele>125.9</ele><time>2013-07-16T19:58:41Z</time></trkpt>
<trkpt lat="57.082175000" lon="12.505917000"><ele>124.5</ele><time>2013-07-16T19:58:43Z</time></trkpt>
<trkpt lat="57.082119000" lon="12.505788000"><ele>122.8</ele><time>2013-07-16T19:58:45Z</time></trkpt>
<trkpt lat="57.082024000" lon="12.505744000"><ele>121.0</ele><time>2013-07-16T19:58:47Z</time></trkpt>
<trkpt lat="57.081952000" lon="12.505669000"><ele>118.9</ele><time>2013-07-16T19:58:49Z</time></trkpt>
<trkpt lat="57.081855000" lon="12.505559000"><ele>116.8</ele><time>2013-07-16T19:58:52Z</time></trkpt>
<trkpt lat="57.081735000" lon="12.505443000"><ele>114.4</ele><time>2013-07-16T19:58:54Z</time></trkpt>
<trkpt lat="57.081598000" lon="12.505339000"><ele>111.9</ele><time>2013-07-16T19:58:56Z</time></trkpt>
<trkpt lat="57.081465000" lon="12.505263000"><ele>109.2</ele><time>2013-07-16T19:58:58Z</time></trkpt>
<trkpt lat="57.081367000" lon="12.505318000"><ele>106.8</ele><time>2013-07-16T19:59:02Z</time></trkpt>
<trkpt lat="57.081264000" lon="12.505334000"><ele>104.3</ele><time>2013-07-16T19:59:06Z</time></trkpt>
<trkpt lat="57.081158000" lon="12.505284000"><ele>101.9</ele><time>2013-07-16T19:59:09Z</time></trkpt>
<trkpt lat="57.081076000" lon="12.505288000"><ele>99.5</ele><time>2013-07-16T19:59:11Z</time></trkpt>
<trkpt lat="57.080957000" lon="12.505276000"><ele>97.0</ele><time>2013-07-16T19:59:13Z</time></trkpt>
<trkpt lat="57.080864000" lon="12.505262000"><ele>94.6</ele><time>2013-07-16T19:59:15Z</time></trkpt>
<trkpt lat="57.080779000" lon="12.505287000"><ele>92.3</ele><time>2013-07-16T19:59:18Z</time></trkpt>
<trkpt lat="57.080674000" lon="12.505313000"><ele>90.2</ele><time>2013-07-16T19:59:22Z</time></trkpt>
<trkpt lat="57.080583000" lon="12.505330000"><ele>88.1</ele><time>2013-07-16T19:59:25Z</time></trkpt>
<trkpt lat="57.080499000" lon="12.505449000"><ele>86.1</ele><time>2013-07-16T19:59:28Z</time></trkpt>
<trkpt lat="57.080423000" lon="12.505531000"><ele>84.2</ele><time>2013-07-16T19:59:30Z</time></trkpt>
<trkpt lat="57.080354000" lon="12.505621000"><ele>82.1</ele><time>2013-07-16T19:59:32Z</time></trkpt>
<trkpt lat="57.080243000" lon="12.505653000"><ele>80.2</ele><time>2013-07-16T19:59:34Z</time></trkpt>
<trkpt lat="57.080129000" lon="12.505679000"><ele>78.6</ele><time>2013-07-16T19:59:36Z</time></trkpt>
<trkpt lat="57.080048000" lon="12.505661000"><ele>77.3</ele><time>2013-07-16T19:59:37Z</time></trkpt>
<trkpt lat="57.079908000" lon="12.505660000"><ele>76.2</ele><time>2013-07-16T19:59:39Z</time></trkpt>
<trkpt lat="57.079774000" lon="12.505650000"><ele>75.5</ele><time>2013-07-16T19:59:41Z</time></trkpt>
<trkpt lat="57.079661000" lon="12.505604000"><ele>74.9</ele><time>2013-07-16T19:59:43Z</time></trkpt>
<trkpt lat="57.079555000" lon="12.505531000"><ele>74.4</ele><time>2013-07-16T19:59:45Z</time></trkpt>
<trkpt lat="57.079455000" lon="12.505389000"><ele>74.2</ele><time>2013-07-16T19:59:47Z</time></trkpt>
<trkpt lat="57.079385000" lon="12.505212000"><ele>73.8</ele><time>2013-07-16T19:59:49Z</time></trkpt>
<trkpt lat="57.079289000" lon="12.505061000"><ele>73.5</ele><time>2013-07-16T19:59:51Z</time></trkpt>
<trkpt lat="57.079197000" lon="12.504935000"><ele>73.3</ele><time>2013-07-16T19:59:53Z</time></trkpt>
<trkpt lat="57.079107000" lon="12.504854000"><ele>73.1</ele><time>2013-07-16T19:59:55Z</time></trkpt>
<trkpt lat="57.078996000" lon="12.504835000"><ele>73.0</ele><time>2013-07-16T19:59:58Z</time></trkpt>
<trkpt lat="57.078910000" lon="12.504842000"><ele>72.9</ele><time>2013-07-16T20:00:00Z</time></trkpt>
<trkpt lat="57.078804000" lon="12.504906000"><ele>72.6</ele><time>2013-07-16T20:00:02Z</time></trkpt>
<trkpt lat="57.078706000" lon="12.504963000"><ele>72.1</ele><time>2013-07-16T20:00:04Z</time></trkpt>
<trkpt lat="57.078612000" lon="12.504983000"><ele>71.7</ele><time>2013-07-16T20:00:08Z</time></trkpt>
<trkpt lat="57.078536000" lon="12.505068000"><ele>71.7</ele><time>2013-07-16T20:00:10Z</time></trkpt>
<trkpt lat="57.078471000" lon="12.505215000"><ele>71.9</ele><time>2013-07-16T20:00:12Z</time></trkpt>
<trkpt lat="57.078417000" lon="12.505405000"><ele>72.5</ele><time>2013-07-16T20:00:14Z</time></trkpt>
<trkpt lat="57.078347000" lon="12.505573000"><ele>73.3</ele><time>2013-07-16T20:00:16Z</time></trkpt>
<trkpt lat="57.078270000" lon="12.505707000"><ele>74.3</ele><time>2013-07-16T20:00:18Z</time></trkpt>
<trkpt lat="57.078190000" lon="12.505824000"><ele>75.5</ele><time>2013-07-16T20:00:20Z</time></trkpt>
<trkpt lat="57.078107000" lon="12.505977000"><ele>76.7</ele><time>2013-07-16T20:00:23Z</time></trkpt>
<trkpt lat="57.078030000" lon="12.506115000"><ele>78.2</ele><time>2013-07-16T20:00:26Z</time></trkpt>
<trkpt lat="57.077935000" lon="12.506235000"><ele>80.1</ele><time>2013-07-16T20:00:29Z</time></trkpt>
<trkpt lat="57.077828000" lon="12.506283000"><ele>82.2</ele><time>2013-07-16T20:00:32Z</time></trkpt>
<trkpt lat="57.077725000" lon="12.506269000"><ele>84.3</ele><time>2013-07-16T20:00:35Z</time></trkpt>
<trkpt lat="57.077616000" lon="12.506188000"><ele>86.0</ele><time>2013-07-16T20:00:38Z</time></trkpt>
<trkpt lat="57.077514000" lon="12.506091000"><ele>87.5</ele><time>2013-07-16T20:00:41Z</time></trkpt>
<trkpt lat="57.077419000" lon="12.506005000"><ele>89.0</ele><time>2013-07-16T20:00:44Z</time></trkpt>
<trkpt lat="57.077330000" lon="12.505945000"><ele>90.3</ele><time>2013-07-16T20:00:47Z</time></trkpt>
<trkpt lat="57.077244000" lon="12.505877000"><ele>91.3</ele><time>2013-07-16T20:00:50Z</time></trkpt>
<trkpt lat="57.077155000" lon="12.505808000"><ele>92.1</ele><time>2013-07-16T20:00:53Z</time></trkpt>
<trkpt lat="57.077070000" lon="12.505727000"><ele>92.8</ele><time>2013-07-16T20:00:56Z</time></trkpt>
<trkpt lat="57.076993000" lon="12.505658000"><ele>93.4</ele><time>2013-07-16T20:00:59Z</time></trkpt>
<trkpt lat="57.076902000" lon="12.505600000"><ele>93.9</ele><time>2013-07-16T20:01:03Z</time></trkpt>
<trkpt lat="57.076819000" lon="12.505529000"><ele>94.4</ele><time>2013-07-16T20:01:07Z</time></trkpt>
<trkpt lat="57.076727000" lon="12.505453000"><ele>95.0</ele><time>2013-07-16T20:01:11Z</time></trkpt>
<trkpt lat="57.076644000" lon="12.505413000"><ele>95.7</ele><time>2013-07-16T20:01:14Z</time></trkpt>
<trkpt lat="57.076554000" lon="12.505403000"><ele>96.5</ele><time>2013-07-16T20:01:17Z</time></trkpt>
<trkpt lat="57.076462000" lon="12.505362000"><ele>97.2</ele><time>2013-07-16T20:01:21Z</time></trkpt>
<trkpt lat="57.076372000" lon="12.505364000"><ele>98.1</ele><time>2013-07-16T20:01:24Z</time></trkpt>
<trkpt lat="57.076270000" lon="12.505406000"><ele>99.1</ele><time>2013-07-16T20:01:27Z</time></trkpt>
<trkpt lat="57.076155000" lon="12.505482000"><ele>100.3</ele><time>2013-07-16T20:01:30Z</time></trkpt>
<trkpt lat="57.076075000" lon="12.505524000"><ele>101.5</ele><time>2013-07-16T20:01:32Z</time></trkpt>
<trkpt lat="57.075980000" lon="12.505558000"><ele>102.5</ele><time>2013-07-16T20:01:34Z</time></trkpt>
<trkpt lat="57.075889000" lon="12.505615000"><ele>103.5</ele><time>2013-07-16T20:01:36Z</time></trkpt>
<trkpt lat="57.075777000" lon="12.505643000"><ele>104.4</ele><time>2013-07-16T20:01:38Z</time></trkpt>
<trkpt lat="57.075666000" lon="12.505701000"><ele>105.2</ele><time>2013-07-16T20:01:40Z</time></trkpt>
<trkpt lat="57.075551000" lon="12.505777000"><ele>105.8</ele><time>2013-07-16T20:01:42Z</time></trkpt>
<trkpt lat="57.075445000" lon="12.505877000"><ele>106.2</ele><time>2013-07-16T20:01:44Z</time></trkpt>
<trkpt lat="57.075339000" lon="12.505948000"><ele>106.6</ele><time>2013-07-16T20:01:46Z</time></trkpt>
<trkpt lat="57.075239000" lon="12.505987000"><ele>106.8</ele><time>2013-07-16T20:01:48Z</time></trkpt>
<trkpt lat="57.075149000" lon="12.506060000"><ele>106.8</ele><time>2013-07-16T20:01:50Z</time></trkpt>
<trkpt lat="57.075073000" lon="12.506124000"><ele>106.8</ele><time>2013-07-16T20:01:52Z</time></trkpt>
<trkpt lat="57.074993000" lon="12.506178000"><ele>106.4</ele><time>2013-07-16T20:01:55Z</time></trkpt>
<trkpt lat="57.074914000" lon="12.506119000"><ele>106.1</ele><time>2013-07-16T20:02:02Z</time></trkpt>
<trkpt lat="57.074821000" lon="12.506046000"><ele>105.7</ele><time>2013-07-16T20:02:09Z</time></trkpt>
<trkpt lat="57.074737000" lon="12.506018000"><ele>105.3</ele><time>2013-07-16T20:02:13Z</time></trkpt>
<trkpt lat="57.074655000" lon="12.506018000"><ele>104.8</ele><time>2013-07-16T20:02:24Z</time></trkpt>
<trkpt lat="57.074736000" lon="12.505944000"><ele>104.4</ele><time>2013-07-16T20:02:36Z</time></trkpt>
<trkpt lat="57.074832000" lon="12.505980000"><ele>104.3</ele><time>2013-07-16T20:02:40Z</time></trkpt>
<trkpt lat="57.074911000" lon="12.506066000"><ele>104.3</ele><time>2013-07-16T20:02:42Z</time></trkpt>
<trkpt lat="57.074943000" lon="12.506205000"><ele>104.4</ele><time>2013-07-16T20:02:44Z</time></trkpt>
<trkpt lat="57.074925000" lon="12.506363000"><ele>104.6</ele><time>2013-07-16T20:02:46Z</time></trkpt>
<trkpt lat="57.074890000" lon="12.506497000"><ele>104.7</ele><time>2013-07-16T20:02:48Z</time></trkpt>
<trkpt lat="57.074830000" lon="12.506690000"><ele>105.0</ele><time>2013-07-16T20:02:51Z</time></trkpt>
<trkpt lat="57.074767000" lon="12.506875000"><ele>105.2</ele><time>2013-07-16T20:02:54Z</time></trkpt>
<trkpt lat="57.074696000" lon="12.507047000"><ele>105.5</ele><time>2013-07-16T20:02:57Z</time></trkpt>
<trkpt lat="57.074639000" lon="12.507170000"><ele>105.7</ele><time>2013-07-16T20:02:59Z</time></trkpt>
<trkpt lat="57.074584000" lon="12.507312000"><ele>105.9</ele><time>2013-07-16T20:03:01Z</time></trkpt>
<trkpt lat="57.074528000" lon="12.507440000"><ele>105.9</ele><time>2013-07-16T20:03:03Z</time></trkpt>
<trkpt lat="57.074472000" lon="12.507578000"><ele>105.7</ele><time>2013-07-16T20:03:05Z</time></trkpt>
<trkpt lat="57.074406000" lon="12.507716000"><ele>105.3</ele><time>2013-07-16T20:03:07Z</time></trkpt>
<trkpt lat="57.074342000" lon="12.507876000"><ele>104.7</ele><time>2013-07-16T20:03:09Z</time></trkpt>
<trkpt lat="57.074278000" lon="12.508031000"><ele>104.2</ele><time>2013-07-16T20:03:11Z</time></trkpt>
<trkpt lat="57.074215000" lon="12.508172000"><ele>103.7</ele><time>2013-07-16T20:03:13Z</time></trkpt>
<trkpt lat="57.074167000" lon="12.508313000"><ele>103.3</ele><time>2013-07-16T20:03:15Z</time></trkpt>
<trkpt lat="57.074116000" lon="12.508449000"><ele>102.8</ele><time>2013-07-16T20:03:17Z</time></trkpt>
<trkpt lat="57.074073000" lon="12.508628000"><ele>102.4</ele><time>2013-07-16T20:03:19Z</time></trkpt>
<trkpt lat="57.074021000" lon="12.508795000"><ele>101.9</ele><time>2013-07-16T20:03:21Z</time></trkpt>
<trkpt lat="57.073989000" lon="12.508955000"><ele>101.3</ele><time>2013-07-16T20:03:23Z</time></trkpt>
<trkpt lat="57.073959000" lon="12.509107000"><ele>100.7</ele><time>2013-07-16T20:03:25Z</time></trkpt>
<trkpt lat="57.073919000" lon="12.509258000"><ele>100.1</ele><time>2013-07-16T20:03:27Z</time></trkpt>
<trkpt lat="57.073872000" lon="12.509427000"><ele>99.7</ele><time>2013-07-16T20:03:29Z</time></trkpt>
<trkpt lat="57.073816000" lon="12.509600000"><ele>99.7</ele><time>2013-07-16T20:03:31Z</time></trkpt>
<trkpt lat="57.073711000" lon="12.509799000"><ele>99.5</ele><time>2013-07-16T20:03:33Z</time></trkpt>
<trkpt lat="57.073607000" lon="12.510017000"><ele>99.3</ele><time>2013-07-16T20:03:35Z</time></trkpt>
<trkpt lat="57.073494000" lon="12.510198000"><ele>99.0</ele><time>2013-07-16T20:03:37Z</time></trkpt>
<trkpt lat="57.073406000" lon="12.510357000"><ele>98.5</ele><time>2013-07-16T20:03:39Z</time></trkpt>
<trkpt lat="57.073306000" lon="12.510454000"><ele>98.2</ele><time>2013-07-16T20:03:41Z</time></trkpt>
<trkpt lat="57.073236000" lon="12.510581000"><ele>97.9</ele><time>2013-07-16T20:03:43Z</time></trkpt>
<trkpt lat="57.073142000" lon="12.510690000"><ele>97.7</ele><time>2013-07-16T20:03:45Z</time></trkpt>
<trkpt lat="57.073033000" lon="12.510774000"><ele>97.4</ele><time>2013-07-16T20:03:47Z</time></trkpt>
<trkpt lat="57.072920000" lon="12.510829000"><ele>97.1</ele><time>2013-07-16T20:03:49Z</time></trkpt>
<trkpt lat="57.072806000" lon="12.510860000"><ele>96.7</ele><time>2013-07-16T20:03:51Z</time></trkpt>
<trkpt lat="57.072705000" lon="12.510884000"><ele>95.8</ele><time>2013-07-16T20:03:53Z</time></trkpt>
<trkpt lat="57.072593000" lon="12.510877000"><ele>94.9</ele><time>2013-07-16T20:03:55Z</time></trkpt>
<trkpt lat="57.072466000" lon="12.510869000"><ele>94.1</ele><time>2013-07-16T20:03:57Z</time></trkpt>
<trkpt lat="57.072350000" lon="12.510869000"><ele>93.2</ele><time>2013-07-16T20:03:59Z</time></trkpt>
<trkpt lat="57.072217000" lon="12.510872000"><ele>92.3</ele><time>2013-07-16T20:04:01Z</time></trkpt>
<trkpt lat="57.072089000" lon="12.510884000"><ele>91.3</ele><time>2013-07-16T20:04:03Z</time></trkpt>
<trkpt lat="57.071993000" lon="12.510936000"><ele>90.3</ele><time>2013-07-16T20:04:05Z</time></trkpt>
<trkpt lat="57.071883000" lon="12.511026000"><ele>89.2</ele><time>2013-07-16T20:04:07Z</time></trkpt>
<trkpt lat="57.071809000" lon="12.511129000"><ele>88.1</ele><time>2013-07-16T20:04:09Z</time></trkpt>
<trkpt lat="57.071741000" lon="12.511263000"><ele>87.1</ele><time>2013-07-16T20:04:11Z</time></trkpt>
<trkpt lat="57.071655000" lon="12.511397000"><ele>86.1</ele><time>2013-07-16T20:04:13Z</time></trkpt>
<trkpt lat="57.071560000" lon="12.511516000"><ele>85.4</ele><time>2013-07-16T20:04:15Z</time></trkpt>
<trkpt lat="57.071484000" lon="12.511626000"><ele>84.9</ele><time>2013-07-16T20:04:18Z</time></trkpt>
<trkpt lat="57.071435000" lon="12.511787000"><ele>85.0</ele><time>2013-07-16T20:04:22Z</time></trkpt>
<trkpt lat="57.071354000" lon="12.511946000"><ele>85.5</ele><time>2013-07-16T20:04:25Z</time></trkpt>
<trkpt lat="57.071283000" lon="12.512097000"><ele>86.4</ele><time>2013-07-16T20:04:28Z</time></trkpt>
<trkpt lat="57.071240000" lon="12.512229000"><ele>87.7</ele><time>2013-07-16T20:04:31Z</time></trkpt>
<trkpt lat="57.071246000" lon="12.512382000"><ele>89.3</ele><time>2013-07-16T20:04:35Z</time></trkpt>
<trkpt lat="57.071284000" lon="12.512541000"><ele>91.0</ele><time>2013-07-16T20:04:38Z</time></trkpt>
<trkpt lat="57.071329000" lon="12.512675000"><ele>93.0</ele><time>2013-07-16T20:04:41Z</time></trkpt>
<trkpt lat="57.071392000" lon="12.512821000"><ele>95.1</ele><time>2013-07-16T20:04:45Z</time></trkpt>
<trkpt lat="57.071439000" lon="12.512990000"><ele>97.2</ele><time>2013-07-16T20:04:48Z</time></trkpt>
<trkpt lat="57.071488000" lon="12.513163000"><ele>99.3</ele><time>2013-07-16T20:04:51Z</time></trkpt>
<trkpt lat="57.071561000" lon="12.513339000"><ele>101.2</ele><time>2013-07-16T20:04:54Z</time></trkpt>
<trkpt lat="57.071608000" lon="12.513464000"><ele>102.5</ele><time>2013-07-16T20:04:56Z</time></trkpt>
<trkpt lat="57.071695000" lon="12.513584000"><ele>103.4</ele><time>2013-07-16T20:04:58Z</time></trkpt>
<trkpt lat="57.071808000" lon="12.513708000"><ele>104.0</ele><time>2013-07-16T20:05:00Z</time></trkpt>
<trkpt lat="57.071912000" lon="12.513846000"><ele>104.2</ele><time>2013-07-16T20:05:02Z</time></trkpt>
<trkpt lat="57.072011000" lon="12.513983000"><ele>104.1</ele><time>2013-07-16T20:05:04Z</time></trkpt>
<trkpt lat="57.072111000" lon="12.514108000"><ele>103.9</ele><time>2013-07-16T20:05:06Z</time></trkpt>
<trkpt lat="57.072229000" lon="12.514257000"><ele>103.5</ele><time>2013-07-16T20:05:08Z</time></trkpt>
<trkpt lat="57.072335000" lon="12.514356000"><ele>103.1</ele><time>2013-07-16T20:05:10Z</time></trkpt>
<trkpt lat="57.072439000" lon="12.514466000"><ele>102.5</ele><time>2013-07-16T20:05:12Z</time></trkpt>
<trkpt lat="57.072553000" lon="12.514576000"><ele>101.8</ele><time>2013-07-16T20:05:14Z</time></trkpt>
<trkpt lat="57.072667000" lon="12.514697000"><ele>101.0</ele><time>2013-07-16T20:05:16Z</time></trkpt>
<trkpt lat="57.072773000" lon="12.514846000"><ele>100.3</ele><time>2013-07-16T20:05:18Z</time></trkpt>
<trkpt lat="57.072890000" lon="12.515043000"><ele>99.8</ele><time>2013-07-16T20:05:20Z</time></trkpt>
<trkpt lat="57.072995000" lon="12.515259000"><ele>99.3</ele><time>2013-07-16T20:05:22Z</time></trkpt>
<trkpt lat="57.073090000" lon="12.515476000"><ele>98.9</ele><time>2013-07-16T20:05:24Z</time></trkpt>
<trkpt lat="57.073180000" lon="12.515683000"><ele>98.6</ele><time>2013-07-16T20:05:26Z</time></trkpt>
<trkpt lat="57.073268000" lon="12.515880000"><ele>98.3</ele><time>2013-07-16T20:05:28Z</time></trkpt>
<trkpt lat="57.073354000" lon="12.516069000"><ele>98.1</ele><time>2013-07-16T20:05:30Z</time></trkpt>
<trkpt lat="57.073443000" lon="12.516249000"><ele>97.9</ele><time>2013-07-16T20:05:32Z</time></trkpt>
<trkpt lat="57.073536000" lon="12.516432000"><ele>97.8</ele><time>2013-07-16T20:05:34Z</time></trkpt>
<trkpt lat="57.073620000" lon="12.516614000"><ele>97.6</ele><time>2013-07-16T20:05:36Z</time></trkpt>
<trkpt lat="57.073704000" lon="12.516787000"><ele>97.4</ele><time>2013-07-16T20:05:38Z</time></trkpt>
<trkpt lat="57.073806000" lon="12.516939000"><ele>97.2</ele><time>2013-07-16T20:05:40Z</time></trkpt>
<trkpt lat="57.073916000" lon="12.517080000"><ele>96.8</ele><time>2013-07-16T20:05:42Z</time></trkpt>
<trkpt lat="57.074042000" lon="12.517182000"><ele>96.5</ele><time>2013-07-16T20:05:44Z</time></trkpt>
<trkpt lat="57.074183000" lon="12.517314000"><ele>96.1</ele><time>2013-07-16T20:05:46Z</time></trkpt>
<trkpt lat="57.074252000" lon="12.517399000"><ele>95.6</ele><time>2013-07-16T20:05:47Z</time></trkpt>
<trkpt lat="57.074317000" lon="12.517493000"><ele>95.1</ele><time>2013-07-16T20:05:48Z</time></trkpt>
<trkpt lat="57.074378000" lon="12.517609000"><ele>94.5</ele><time>2013-07-16T20:05:49Z</time></trkpt>
<trkpt lat="57.074437000" lon="12.517738000"><ele>93.9</ele><time>2013-07-16T20:05:50Z</time></trkpt>
<trkpt lat="57.074490000" lon="12.517877000"><ele>93.4</ele><time>2013-07-16T20:05:51Z</time></trkpt>
<trkpt lat="57.074536000" lon="12.518023000"><ele>93.0</ele><time>2013-07-16T20:05:52Z</time></trkpt>
<trkpt lat="57.074582000" lon="12.518162000"><ele>92.7</ele><time>2013-07-16T20:05:53Z</time></trkpt>
<trkpt lat="57.074629000" lon="12.518296000"><ele>92.6</ele><time>2013-07-16T20:05:54Z</time></trkpt>
<trkpt lat="57.074671000" lon="12.518427000"><ele>92.5</ele><time>2013-07-16T20:05:55Z</time></trkpt>
<trkpt lat="57.074708000" lon="12.518564000"><ele>92.4</ele><time>2013-07-16T20:05:56Z</time></trkpt>
<trkpt lat="57.074781000" lon="12.518801000"><ele>92.2</ele><time>2013-07-16T20:05:58Z</time></trkpt>
<trkpt lat="57.074867000" lon="12.519038000"><ele>92.0</ele><time>2013-07-16T20:06:00Z</time></trkpt>
<trkpt lat="57.074957000" lon="12.519267000"><ele>91.8</ele><time>2013-07-16T20:06:02Z</time></trkpt>
<trkpt lat="57.075000000" lon="12.519407000"><ele>91.4</ele><time>2013-07-16T20:06:03Z</time></trkpt>
<trkpt lat="57.075043000" lon="12.519544000"><ele>90.9</ele><time>2013-07-16T20:06:04Z</time></trkpt>
<trkpt lat="57.075088000" lon="12.519674000"><ele>90.3</ele><time>2013-07-16T20:06:05Z</time></trkpt>
<trkpt lat="57.075163000" lon="12.519895000"><ele>89.6</ele><time>2013-07-16T20:06:07Z</time></trkpt>
<trkpt lat="57.075248000" lon="12.520128000"><ele>88.9</ele><time>2013-07-16T20:06:09Z</time></trkpt>
<trkpt lat="57.075329000" lon="12.520380000"><ele>88.0</ele><time>2013-07-16T20:06:11Z</time></trkpt>
<trkpt lat="57.075370000" lon="12.520512000"><ele>87.1</ele><time>2013-07-16T20:06:12Z</time></trkpt>
<trkpt lat="57.075407000" lon="12.520654000"><ele>86.4</ele><time>2013-07-16T20:06:13Z</time></trkpt>
<trkpt lat="57.075481000" lon="12.520906000"><ele>85.7</ele><time>2013-07-16T20:06:15Z</time></trkpt>
<trkpt lat="57.075527000" lon="12.521039000"><ele>85.0</ele><time>2013-07-16T20:06:16Z</time></trkpt>
<trkpt lat="57.075574000" lon="12.521166000"><ele>84.5</ele><time>2013-07-16T20:06:17Z</time></trkpt>
<trkpt lat="57.075622000" lon="12.521293000"><ele>84.1</ele><time>2013-07-16T20:06:18Z</time></trkpt>
<trkpt lat="57.075669000" lon="12.521427000"><ele>83.8</ele><time>2013-07-16T20:06:19Z</time></trkpt>
<trkpt lat="57.075711000" lon="12.521562000"><ele>83.3</ele><time>2013-07-16T20:06:20Z</time></trkpt>
<trkpt lat="57.075755000" lon="12.521700000"><ele>83.0</ele><time>2013-07-16T20:06:21Z</time></trkpt>
<trkpt lat="57.075803000" lon="12.521839000"><ele>82.6</ele><time>2013-07-16T20:06:22Z</time></trkpt>
<trkpt lat="57.075855000" lon="12.521978000"><ele>82.3</ele><time>2013-07-16T20:06:23Z</time></trkpt>
<trkpt lat="57.075899000" lon="12.522115000"><ele>82.1</ele><time>2013-07-16T20:06:24Z</time></trkpt>
<trkpt lat="57.075942000" lon="12.522247000"><ele>81.6</ele><time>2013-07-16T20:06:25Z</time></trkpt>
<trkpt lat="57.075987000" lon="12.522379000"><ele>81.2</ele><time>2013-07-16T20:06:26Z</time></trkpt>
<trkpt lat="57.076031000" lon="12.522529000"><ele>80.9</ele><time>2013-07-16T20:06:27Z</time></trkpt>
<trkpt lat="57.076078000" lon="12.522671000"><ele>80.6</ele><time>2013-07-16T20:06:28Z</time></trkpt>
<trkpt lat="57.076127000" lon="12.522808000"><ele>80.4</ele><time>2013-07-16T20:06:29Z</time></trkpt>
<trkpt lat="57.076171000" lon="12.522943000"><ele>80.2</ele><time>2013-07-16T20:06:30Z</time></trkpt>
<trkpt lat="57.076219000" lon="12.523077000"><ele>80.0</ele><time>2013-07-16T20:06:31Z</time></trkpt>
<trkpt lat="57.076273000" lon="12.523220000"><ele>79.8</ele><time>2013-07-16T20:06:32Z</time></trkpt>
<trkpt lat="57.076321000" lon="12.523361000"><ele>79.6</ele><time>2013-07-16T20:06:33Z</time></trkpt>
<trkpt lat="57.076376000" lon="12.523502000"><ele>79.4</ele><time>2013-07-16T20:06:34Z</time></trkpt>
<trkpt lat="57.076426000" lon="12.523647000"><ele>79.1</ele><time>2013-07-16T20:06:35Z</time></trkpt>
<trkpt lat="57.076475000" lon="12.523790000"><ele>78.7</ele><time>2013-07-16T20:06:36Z</time></trkpt>
<trkpt lat="57.076522000" lon="12.523933000"><ele>78.3</ele><time>2013-07-16T20:06:37Z</time></trkpt>
<trkpt lat="57.076577000" lon="12.524082000"><ele>77.8</ele><time>2013-07-16T20:06:38Z</time></trkpt>
<trkpt lat="57.076630000" lon="12.524235000"><ele>77.2</ele><time>2013-07-16T20:06:39Z</time></trkpt>
<trkpt lat="57.076682000" lon="12.524398000"><ele>76.5</ele><time>2013-07-16T20:06:40Z</time></trkpt>
<trkpt lat="57.076734000" lon="12.524565000"><ele>75.9</ele><time>2013-07-16T20:06:41Z</time></trkpt>
<trkpt lat="57.076792000" lon="12.524734000"><ele>75.3</ele><time>2013-07-16T20:06:42Z</time></trkpt>
<trkpt lat="57.076850000" lon="12.524908000"><ele>74.9</ele><time>2013-07-16T20:06:43Z</time></trkpt>
<trkpt lat="57.076912000" lon="12.525088000"><ele>74.5</ele><time>2013-07-16T20:06:44Z</time></trkpt>
<trkpt lat="57.076975000" lon="12.525264000"><ele>74.2</ele><time>2013-07-16T20:06:45Z</time></trkpt>
<trkpt lat="57.077037000" lon="12.525442000"><ele>74.0</ele><time>2013-07-16T20:06:46Z</time></trkpt>
<trkpt lat="57.077096000" lon="12.525617000"><ele>73.8</ele><time>2013-07-16T20:06:47Z</time></trkpt>
<trkpt lat="57.077154000" lon="12.525790000"><ele>73.8</ele><time>2013-07-16T20:06:48Z</time></trkpt>
<trkpt lat="57.077210000" lon="12.525957000"><ele>73.8</ele><time>2013-07-16T20:06:49Z</time></trkpt>
<trkpt lat="57.077265000" lon="12.526116000"><ele>73.8</ele><time>2013-07-16T20:06:50Z</time></trkpt>
<trkpt lat="57.077316000" lon="12.526273000"><ele>73.8</ele><time>2013-07-16T20:06:51Z</time></trkpt>
<trkpt lat="57.077367000" lon="12.526424000"><ele>73.8</ele><time>2013-07-16T20:06:52Z</time></trkpt>
<trkpt lat="57.077418000" lon="12.526574000"><ele>73.9</ele><time>2013-07-16T20:06:53Z</time></trkpt>
<trkpt lat="57.077471000" lon="12.526723000"><ele>73.9</ele><time>2013-07-16T20:06:54Z</time></trkpt>
<trkpt lat="57.077522000" lon="12.526867000"><ele>73.9</ele><time>2013-07-16T20:06:55Z</time></trkpt>
<trkpt lat="57.077572000" lon="12.527008000"><ele>74.0</ele><time>2013-07-16T20:06:56Z</time></trkpt>
<trkpt lat="57.077619000" lon="12.527147000"><ele>74.0</ele><time>2013-07-16T20:06:57Z</time></trkpt>
<trkpt lat="57.077665000" lon="12.527287000"><ele>74.1</ele><time>2013-07-16T20:06:58Z</time></trkpt>
<trkpt lat="57.077711000" lon="12.527424000"><ele>74.3</ele><time>2013-07-16T20:06:59Z</time></trkpt>
<trkpt lat="57.077758000" lon="12.527559000"><ele>74.5</ele><time>2013-07-16T20:07:00Z</time></trkpt>
<trkpt lat="57.077804000" lon="12.527688000"><ele>74.7</ele><time>2013-07-16T20:07:01Z</time></trkpt>
<trkpt lat="57.077849000" lon="12.527814000"><ele>75.0</ele><time>2013-07-16T20:07:02Z</time></trkpt>
<trkpt lat="57.077933000" lon="12.528059000"><ele>75.2</ele><time>2013-07-16T20:07:04Z</time></trkpt>
<trkpt lat="57.078015000" lon="12.528294000"><ele>75.4</ele><time>2013-07-16T20:07:06Z</time></trkpt>
<trkpt lat="57.078094000" lon="12.528526000"><ele>75.6</ele><time>2013-07-16T20:07:08Z</time></trkpt>
<trkpt lat="57.078169000" lon="12.528760000"><ele>75.9</ele><time>2013-07-16T20:07:10Z</time></trkpt>
<trkpt lat="57.078245000" lon="12.528987000"><ele>76.3</ele><time>2013-07-16T20:07:12Z</time></trkpt>
<trkpt lat="57.078325000" lon="12.529211000"><ele>76.5</ele><time>2013-07-16T20:07:14Z</time></trkpt>
<trkpt lat="57.078407000" lon="12.529426000"><ele>76.8</ele><time>2013-07-16T20:07:16Z</time></trkpt>
<trkpt lat="57.078491000" lon="12.529627000"><ele>77.1</ele><time>2013-07-16T20:07:18Z</time></trkpt>
<trkpt lat="57.078577000" lon="12.529814000"><ele>77.3</ele><time>2013-07-16T20:07:20Z</time></trkpt>
<trkpt lat="57.078674000" lon="12.529968000"><ele>77.5</ele><time>2013-07-16T20:07:22Z</time></trkpt>
<trkpt lat="57.078759000" lon="12.530125000"><ele>77.6</ele><time>2013-07-16T20:07:24Z</time></trkpt>
<trkpt lat="57.078841000" lon="12.530262000"><ele>77.6</ele><time>2013-07-16T20:07:26Z</time></trkpt>
<trkpt lat="57.078926000" lon="12.530393000"><ele>77.4</ele><time>2013-07-16T20:07:28Z</time></trkpt>
<trkpt lat="57.079007000" lon="12.530549000"><ele>77.0</ele><time>2013-07-16T20:07:30Z</time></trkpt>
<trkpt lat="57.079078000" lon="12.530736000"><ele>76.4</ele><time>2013-07-16T20:07:32Z</time></trkpt>
<trkpt lat="57.079124000" lon="12.530953000"><ele>75.7</ele><time>2013-07-16T20:07:34Z</time></trkpt>
<trkpt lat="57.079150000" lon="12.531185000"><ele>75.2</ele><time>2013-07-16T20:07:36Z</time></trkpt>
<trkpt lat="57.079139000" lon="12.531419000"><ele>74.8</ele><time>2013-07-16T20:07:38Z</time></trkpt>
<trkpt lat="57.079126000" lon="12.531667000"><ele>74.4</ele><time>2013-07-16T20:07:40Z</time></trkpt>
<trkpt lat="57.079092000" lon="12.531906000"><ele>73.9</ele><time>2013-07-16T20:07:42Z</time></trkpt>
<trkpt lat="57.079070000" lon="12.532144000"><ele>73.4</ele><time>2013-07-16T20:07:44Z</time></trkpt>
<trkpt lat="57.079070000" lon="12.532382000"><ele>73.1</ele><time>2013-07-16T20:07:46Z</time></trkpt>
<trkpt lat="57.079090000" lon="12.532614000"><ele>72.8</ele><time>2013-07-16T20:07:48Z</time></trkpt>
<trkpt lat="57.079123000" lon="12.532838000"><ele>72.8</ele><time>2013-07-16T20:07:50Z</time></trkpt>
<trkpt lat="57.079159000" lon="12.533053000"><ele>72.9</ele><time>2013-07-16T20:07:52Z</time></trkpt>
<trkpt lat="57.079192000" lon="12.533258000"><ele>73.1</ele><time>2013-07-16T20:07:54Z</time></trkpt>
<trkpt lat="57.079230000" lon="12.533452000"><ele>73.4</ele><time>2013-07-16T20:07:56Z</time></trkpt>
<trkpt lat="57.079267000" lon="12.533649000"><ele>73.5</ele><time>2013-07-16T20:07:58Z</time></trkpt>
<trkpt lat="57.079308000" lon="12.533844000"><ele>73.6</ele><time>2013-07-16T20:08:00Z</time></trkpt>
<trkpt lat="57.079359000" lon="12.534035000"><ele>73.6</ele><time>2013-07-16T20:08:02Z</time></trkpt>
<trkpt lat="57.079424000" lon="12.534224000"><ele>73.7</ele><time>2013-07-16T20:08:04Z</time></trkpt>
<trkpt lat="57.079498000" lon="12.534399000"><ele>73.7</ele><time>2013-07-16T20:08:06Z</time></trkpt>
<trkpt lat="57.079579000" lon="12.534564000"><ele>73.8</ele><time>2013-07-16T20:08:08Z</time></trkpt>
<trkpt lat="57.079658000" lon="12.534722000"><ele>73.9</ele><time>2013-07-16T20:08:10Z</time></trkpt>
<trkpt lat="57.079740000" lon="12.534878000"><ele>74.0</ele><time>2013-07-16T20:08:12Z</time></trkpt>
<trkpt lat="57.079821000" lon="12.535030000"><ele>74.2</ele><time>2013-07-16T20:08:14Z</time></trkpt>
<trkpt lat="57.079900000" lon="12.535184000"><ele>74.3</ele><time>2013-07-16T20:08:16Z</time></trkpt>
<trkpt lat="57.079980000" lon="12.535339000"><ele>74.4</ele><time>2013-07-16T20:08:18Z</time></trkpt>
<trkpt lat="57.080060000" lon="12.535493000"><ele>74.5</ele><time>2013-07-16T20:08:20Z</time></trkpt>
<trkpt lat="57.080140000" lon="12.535652000"><ele>74.6</ele><time>2013-07-16T20:08:22Z</time></trkpt>
<trkpt lat="57.080223000" lon="12.535806000"><ele>74.8</ele><time>2013-07-16T20:08:24Z</time></trkpt>
<trkpt lat="57.080301000" lon="12.535960000"><ele>75.0</ele><time>2013-07-16T20:08:26Z</time></trkpt>
<trkpt lat="57.080380000" lon="12.536119000"><ele>75.2</ele><time>2013-07-16T20:08:28Z</time></trkpt>
<trkpt lat="57.080463000" lon="12.536283000"><ele>75.5</ele><time>2013-07-16T20:08:30Z</time></trkpt>
<trkpt lat="57.080550000" lon="12.536448000"><ele>75.7</ele><time>2013-07-16T20:08:32Z</time></trkpt>
<trkpt lat="57.080639000" lon="12.536615000"><ele>76.0</ele><time>2013-07-16T20:08:34Z</time></trkpt>
<trkpt lat="57.080727000" lon="12.536777000"><ele>76.2</ele><time>2013-07-16T20:08:36Z</time></trkpt>
<trkpt lat="57.080811000" lon="12.536939000"><ele>76.3</ele><time>2013-07-16T20:08:38Z</time></trkpt>
<trkpt lat="57.080893000" lon="12.537099000"><ele>76.4</ele><time>2013-07-16T20:08:40Z</time></trkpt>
<trkpt lat="57.080976000" lon="12.537259000"><ele>76.5</ele><time>2013-07-16T20:08:42Z</time></trkpt>
<trkpt lat="57.081054000" lon="12.537413000"><ele>76.6</ele><time>2013-07-16T20:08:44Z</time></trkpt>
<trkpt lat="57.081136000" lon="12.537570000"><ele>76.7</ele><time>2013-07-16T20:08:46Z</time></trkpt>
<trkpt lat="57.081220000" lon="12.537720000"><ele>76.7</ele><time>2013-07-16T20:08:48Z</time></trkpt>
<trkpt lat="57.081308000" lon="12.537874000"><ele>76.7</ele><time>2013-07-16T20:08:50Z</time></trkpt>
<trkpt lat="57.081389000" lon="12.538035000"><ele>76.6</ele><time>2013-07-16T20:08:52Z</time></trkpt>
<trkpt lat="57.081465000" lon="12.538185000"><ele>76.4</ele><time>2013-07-16T20:08:54Z</time></trkpt>
<trkpt lat="57.081541000" lon="12.538336000"><ele>76.3</ele><time>2013-07-16T20:08:56Z</time></trkpt>
<trkpt lat="57.081620000" lon="12.538484000"><ele>76.2</ele><time>2013-07-16T20:08:58Z</time></trkpt>
<trkpt lat="57.081699000" lon="12.538637000"><ele>76.2</ele><time>2013-07-16T20:09:00Z</time></trkpt>
<trkpt lat="57.081780000" lon="12.538793000"><ele>76.2</ele><time>2013-07-16T20:09:02Z</time></trkpt>
<trkpt lat="57.081865000" lon="12.538956000"><ele>76.2</ele><time>2013-07-16T20:09:04Z</time></trkpt>
<trkpt lat="57.081947000" lon="12.539120000"><ele>76.2</ele><time>2013-07-16T20:09:06Z</time></trkpt>
<trkpt lat="57.082029000" lon="12.539276000"><ele>76.2</ele><time>2013-07-16T20:09:08Z</time></trkpt>
<trkpt lat="57.082108000" lon="12.539432000"><ele>76.2</ele><time>2013-07-16T20:09:10Z</time></trkpt>
<trkpt lat="57.082190000" lon="12.539587000"><ele>76.1</ele><time>2013-07-16T20:09:12Z</time></trkpt>
<trkpt lat="57.082271000" lon="12.539745000"><ele>76.2</ele><time>2013-07-16T20:09:14Z</time></trkpt>
<trkpt lat="57.082351000" lon="12.539901000"><ele>76.2</ele><time>2013-07-16T20:09:16Z</time></trkpt>
<trkpt lat="57.082432000" lon="12.540057000"><ele>76.3</ele><time>2013-07-16T20:09:18Z</time></trkpt>
<trkpt lat="57.082513000" lon="12.540216000"><ele>76.3</ele><time>2013-07-16T20:09:20Z</time></trkpt>
<trkpt lat="57.082596000" lon="12.540375000"><ele>76.4</ele><time>2013-07-16T20:09:22Z</time></trkpt>
<trkpt lat="57.082684000" lon="12.540536000"><ele>76.4</ele><time>2013-07-16T20:09:24Z</time></trkpt>
<trkpt lat="57.082773000" lon="12.540694000"><ele>76.4</ele><time>2013-07-16T20:09:26Z</time></trkpt>
<trkpt lat="57.082858000" lon="12.540861000"><ele>76.4</ele><time>2013-07-16T20:09:28Z</time></trkpt>
<trkpt lat="57.082944000" lon="12.541030000"><ele>76.5</ele><time>2013-07-16T20:09:30Z</time></trkpt>
<trkpt lat="57.083030000" lon="12.541197000"><ele>76.5</ele><time>2013-07-16T20:09:32Z</time></trkpt>
<trkpt lat="57.083116000" lon="12.541361000"><ele>76.6</ele><time>2013-07-16T20:09:34Z</time></trkpt>
<trkpt lat="57.083199000" lon="12.541521000"><ele>76.7</ele><time>2013-07-16T20:09:36Z</time></trkpt>
<trkpt lat="57.083281000" lon="12.541679000"><ele>76.8</ele><time>2013-07-16T20:09:38Z</time></trkpt>
<trkpt lat="57.083365000" lon="12.541837000"><ele>76.9</ele><time>2013-07-16T20:09:40Z</time></trkpt>
<trkpt lat="57.083448000" lon="12.541999000"><ele>77.0</ele><time>2013-07-16T20:09:42Z</time></trkpt>
<trkpt lat="57.083532000" lon="12.542162000"><ele>77.2</ele><time>2013-07-16T20:09:44Z</time></trkpt>
<trkpt lat="57.083616000" lon="12.542325000"><ele>77.3</ele><time>2013-07-16T20:09:46Z</time></trkpt>
<trkpt lat="57.083702000" lon="12.542485000"><ele>77.5</ele><time>2013-07-16T20:09:48Z</time></trkpt>
<trkpt lat="57.083784000" lon="12.542642000"><ele>77.7</ele><time>2013-07-16T20:09:50Z</time></trkpt>
<trkpt lat="57.083864000" lon="12.542801000"><ele>77.9</ele><time>2013-07-16T20:09:52Z</time></trkpt>
<trkpt lat="57.083946000" lon="12.542958000"><ele>78.2</ele><time>2013-07-16T20:09:54Z</time></trkpt>
<trkpt lat="57.084025000" lon="12.543115000"><ele>78.5</ele><time>2013-07-16T20:09:56Z</time></trkpt>
<trkpt lat="57.084104000" lon="12.543267000"><ele>78.9</ele><time>2013-07-16T20:09:58Z</time></trkpt>
<trkpt lat="57.084180000" lon="12.543417000"><ele>79.4</ele><time>2013-07-16T20:10:00Z</time></trkpt>
<trkpt lat="57.084252000" lon="12.543551000"><ele>80.0</ele><time>2013-07-16T20:10:02Z</time></trkpt>
<trkpt lat="57.084325000" lon="12.543663000"><ele>80.6</ele><time>2013-07-16T20:10:04Z</time></trkpt>
<trkpt lat="57.084401000" lon="12.543761000"><ele>81.3</ele><time>2013-07-16T20:10:06Z</time></trkpt>
<trkpt lat="57.084476000" lon="12.543834000"><ele>82.1</ele><time>2013-07-16T20:10:08Z</time></trkpt>
<trkpt lat="57.084590000" lon="12.543913000"><ele>83.0</ele><time>2013-07-16T20:10:11Z</time></trkpt>
<trkpt lat="57.084700000" lon="12.543956000"><ele>83.8</ele><time>2013-07-16T20:10:14Z</time></trkpt>
<trkpt lat="57.084801000" lon="12.543983000"><ele>84.7</ele><time>2013-07-16T20:10:17Z</time></trkpt>
<trkpt lat="57.084903000" lon="12.543998000"><ele>85.5</ele><time>2013-07-16T20:10:20Z</time></trkpt>
<trkpt lat="57.085007000" lon="12.544006000"><ele>86.4</ele><time>2013-07-16T20:10:23Z</time></trkpt>
<trkpt lat="57.085105000" lon="12.544020000"><ele>87.3</ele><time>2013-07-16T20:10:26Z</time></trkpt>
<trkpt lat="57.085195000" lon="12.544040000"><ele>88.1</ele><time>2013-07-16T20:10:29Z</time></trkpt>
<trkpt lat="57.085281000" lon="12.544081000"><ele>88.8</ele><time>2013-07-16T20:10:32Z</time></trkpt>
<trkpt lat="57.085363000" lon="12.544144000"><ele>89.5</ele><time>2013-07-16T20:10:35Z</time></trkpt>
<trkpt lat="57.085443000" lon="12.544236000"><ele>90.1</ele><time>2013-07-16T20:10:38Z</time></trkpt>
<trkpt lat="57.085504000" lon="12.544345000"><ele>90.6</ele><time>2013-07-16T20:10:41Z</time></trkpt>
<trkpt lat="57.085554000" lon="12.544465000"><ele>91.0</ele><time>2013-07-16T20:10:44Z</time></trkpt>
<trkpt lat="57.085605000" lon="12.544597000"><ele>91.4</ele><time>2013-07-16T20:10:47Z</time></trkpt>
<trkpt lat="57.085663000" lon="12.544746000"><ele>91.8</ele><time>2013-07-16T20:10:50Z</time></trkpt>
<trkpt lat="57.085724000" lon="12.544877000"><ele>92.2</ele><time>2013-07-16T20:10:53Z</time></trkpt>
<trkpt lat="57.085782000" lon="12.544986000"><ele>92.6</ele><time>2013-07-16T20:10:56Z</time></trkpt>
<trkpt lat="57.085835000" lon="12.545107000"><ele>92.9</ele><time>2013-07-16T20:10:59Z</time></trkpt>
<trkpt lat="57.085890000" lon="12.545237000"><ele>93.2</ele><time>2013-07-16T20:11:02Z</time></trkpt>
<trkpt lat="57.085959000" lon="12.545364000"><ele>93.5</ele><time>2013-07-16T20:11:05Z</time></trkpt>
<trkpt lat="57.086018000" lon="12.545506000"><ele>93.8</ele><time>2013-07-16T20:11:08Z</time></trkpt>
<trkpt lat="57.086074000" lon="12.545661000"><ele>94.1</ele><time>2013-07-16T20:11:11Z</time></trkpt>
<trkpt lat="57.086125000" lon="12.545834000"><ele>94.5</ele><time>2013-07-16T20:11:14Z</time></trkpt>
<trkpt lat="57.086147000" lon="12.546034000"><ele>94.9</ele><time>2013-07-16T20:11:17Z</time></trkpt>
<trkpt lat="57.086142000" lon="12.546237000"><ele>95.3</ele><time>2013-07-16T20:11:20Z</time></trkpt>
<trkpt lat="57.086133000" lon="12.546441000"><ele>95.5</ele><time>2013-07-16T20:11:23Z</time></trkpt>
<trkpt lat="57.086122000" lon="12.546647000"><ele>95.8</ele><time>2013-07-16T20:11:26Z</time></trkpt>
<trkpt lat="57.086115000" lon="12.546869000"><ele>96.1</ele><time>2013-07-16T20:11:29Z</time></trkpt>
<trkpt lat="57.086111000" lon="12.547018000"><ele>96.4</ele><time>2013-07-16T20:11:31Z</time></trkpt>
<trkpt lat="57.086107000" lon="12.547169000"><ele>96.6</ele><time>2013-07-16T20:11:33Z</time></trkpt>
<trkpt lat="57.086100000" lon="12.547395000"><ele>96.9</ele><time>2013-07-16T20:11:36Z</time></trkpt>
<trkpt lat="57.086097000" lon="12.547556000"><ele>97.0</ele><time>2013-07-16T20:11:38Z</time></trkpt>
<trkpt lat="57.086094000" lon="12.547721000"><ele>97.2</ele><time>2013-07-16T20:11:40Z</time></trkpt>
<trkpt lat="57.086093000" lon="12.547885000"><ele>97.5</ele><time>2013-07-16T20:11:42Z</time></trkpt>
<trkpt lat="57.086088000" lon="12.548048000"><ele>97.7</ele><time>2013-07-16T20:11:44Z</time></trkpt>
<trkpt lat="57.086082000" lon="12.548211000"><ele>98.0</ele><time>2013-07-16T20:11:46Z</time></trkpt>
<trkpt lat="57.086070000" lon="12.548373000"><ele>98.2</ele><time>2013-07-16T20:11:48Z</time></trkpt>
<trkpt lat="57.086035000" lon="12.548528000"><ele>98.4</ele><time>2013-07-16T20:11:50Z</time></trkpt>
<trkpt lat="57.085985000" lon="12.548672000"><ele>98.6</ele><time>2013-07-16T20:11:52Z</time></trkpt>
<trkpt lat="57.085924000" lon="12.548808000"><ele>98.6</ele><time>2013-07-16T20:11:54Z</time></trkpt>
<trkpt lat="57.085868000" lon="12.548956000"><ele>98.7</ele><time>2013-07-16T20:11:56Z</time></trkpt>
<trkpt lat="57.085804000" lon="12.549113000"><ele>98.8</ele><time>2013-07-16T20:11:58Z</time></trkpt>
<trkpt lat="57.085749000" lon="12.549263000"><ele>98.7</ele><time>2013-07-16T20:12:00Z</time></trkpt>
<trkpt lat="57.085693000" lon="12.549418000"><ele>98.7</ele><time>2013-07-16T20:12:02Z</time></trkpt>
<trkpt lat="57.085636000" lon="12.549565000"><ele>98.5</ele><time>2013-07-16T20:12:04Z</time></trkpt>
<trkpt lat="57.085579000" lon="12.549704000"><ele>98.3</ele><time>2013-07-16T20:12:06Z</time></trkpt>
<trkpt lat="57.085519000" lon="12.549842000"><ele>98.1</ele><time>2013-07-16T20:12:08Z</time></trkpt>
<trkpt lat="57.085457000" lon="12.549992000"><ele>98.0</ele><time>2013-07-16T20:12:10Z</time></trkpt>
<trkpt lat="57.085404000" lon="12.550138000"><ele>97.8</ele><time>2013-07-16T20:12:12Z</time></trkpt>
<trkpt lat="57.085348000" lon="12.550285000"><ele>97.7</ele><time>2013-07-16T20:12:14Z</time></trkpt>
<trkpt lat="57.085293000" lon="12.550429000"><ele>97.6</ele><time>2013-07-16T20:12:16Z</time></trkpt>
<trkpt lat="57.085244000" lon="12.550582000"><ele>97.5</ele><time>2013-07-16T20:12:18Z</time></trkpt>
<trkpt lat="57.085211000" lon="12.550760000"><ele>97.4</ele><time>2013-07-16T20:12:20Z</time></trkpt>
<trkpt lat="57.085205000" lon="12.550960000"><ele>97.5</ele><time>2013-07-16T20:12:22Z</time></trkpt>
<trkpt lat="57.085228000" lon="12.551163000"><ele>97.5</ele><time>2013-07-16T20:12:24Z</time></trkpt>
<trkpt lat="57.085267000" lon="12.551367000"><ele>97.6</ele><time>2013-07-16T20:12:26Z</time></trkpt>
<trkpt lat="57.085306000" lon="12.551582000"><ele>97.8</ele><time>2013-07-16T20:12:28Z</time></trkpt>
<trkpt lat="57.085346000" lon="12.551803000"><ele>97.9</ele><time>2013-07-16T20:12:30Z</time></trkpt>
<trkpt lat="57.085390000" lon="12.552023000"><ele>98.0</ele><time>2013-07-16T20:12:32Z</time></trkpt>
<trkpt lat="57.085430000" lon="12.552240000"><ele>98.1</ele><time>2013-07-16T20:12:34Z</time></trkpt>
<trkpt lat="57.085466000" lon="12.552455000"><ele>98.1</ele><time>2013-07-16T20:12:36Z</time></trkpt>
<trkpt lat="57.085508000" lon="12.552679000"><ele>98.1</ele><time>2013-07-16T20:12:38Z</time></trkpt>
<trkpt lat="57.085555000" lon="12.552905000"><ele>98.1</ele><time>2013-07-16T20:12:40Z</time></trkpt>
<trkpt lat="57.085602000" lon="12.553133000"><ele>98.0</ele><time>2013-07-16T20:12:42Z</time></trkpt>
<trkpt lat="57.085652000" lon="12.553365000"><ele>97.8</ele><time>2013-07-16T20:12:44Z</time></trkpt>
<trkpt lat="57.085706000" lon="12.553602000"><ele>97.6</ele><time>2013-07-16T20:12:46Z</time></trkpt>
<trkpt lat="57.085767000" lon="12.553839000"><ele>97.2</ele><time>2013-07-16T20:12:48Z</time></trkpt>
<trkpt lat="57.085853000" lon="12.554070000"><ele>96.9</ele><time>2013-07-16T20:12:50Z</time></trkpt>
<trkpt lat="57.085966000" lon="12.554254000"><ele>96.5</ele><time>2013-07-16T20:12:52Z</time></trkpt>
<trkpt lat="57.086111000" lon="12.554358000"><ele>96.1</ele><time>2013-07-16T20:12:54Z</time></trkpt>
<trkpt lat="57.086269000" lon="12.554427000"><ele>95.7</ele><time>2013-07-16T20:12:56Z</time></trkpt>
<trkpt lat="57.086350000" lon="12.554460000"><ele>95.3</ele><time>2013-07-16T20:12:57Z</time></trkpt>
<trkpt lat="57.086430000" lon="12.554496000"><ele>94.8</ele><time>2013-07-16T20:12:58Z</time></trkpt>
<trkpt lat="57.086509000" lon="12.554534000"><ele>94.4</ele><time>2013-07-16T20:12:59Z</time></trkpt>
<trkpt lat="57.086648000" lon="12.554651000"><ele>94.0</ele><time>2013-07-16T20:13:01Z</time></trkpt>
<trkpt lat="57.086723000" lon="12.554723000"><ele>93.8</ele><time>2013-07-16T20:13:02Z</time></trkpt>
<trkpt lat="57.086804000" lon="12.554781000"><ele>93.7</ele><time>2013-07-16T20:13:03Z</time></trkpt>
<trkpt lat="57.086891000" lon="12.554836000"><ele>93.7</ele><time>2013-07-16T20:13:04Z</time></trkpt>
<trkpt lat="57.086966000" lon="12.554900000"><ele>93.8</ele><time>2013-07-16T20:13:05Z</time></trkpt>
<trkpt lat="57.087040000" lon="12.554964000"><ele>93.9</ele><time>2013-07-16T20:13:06Z</time></trkpt>
<trkpt lat="57.087186000" lon="12.555084000"><ele>94.1</ele><time>2013-07-16T20:13:08Z</time></trkpt>
<trkpt lat="57.087332000" lon="12.555182000"><ele>94.2</ele><time>2013-07-16T20:13:10Z</time></trkpt>
<trkpt lat="57.087472000" lon="12.555254000"><ele>94.3</ele><time>2013-07-16T20:13:12Z</time></trkpt>
<trkpt lat="57.087592000" lon="12.555334000"><ele>94.5</ele><time>2013-07-16T20:13:14Z</time></trkpt>
<trkpt lat="57.087712000" lon="12.555401000"><ele>94.6</ele><time>2013-07-16T20:13:16Z</time></trkpt>
<trkpt lat="57.087827000" lon="12.555466000"><ele>94.4</ele><time>2013-07-16T20:13:18Z</time></trkpt>
<trkpt lat="57.087940000" lon="12.555527000"><ele>94.0</ele><time>2013-07-16T20:13:20Z</time></trkpt>
<trkpt lat="57.088055000" lon="12.555584000"><ele>93.4</ele><time>2013-07-16T20:13:22Z</time></trkpt>
<trkpt lat="57.088182000" lon="12.555655000"><ele>92.9</ele><time>2013-07-16T20:13:24Z</time></trkpt>
<trkpt lat="57.088315000" lon="12.555704000"><ele>92.4</ele><time>2013-07-16T20:13:26Z</time></trkpt>
<trkpt lat="57.088453000" lon="12.555733000"><ele>91.9</ele><time>2013-07-16T20:13:28Z</time></trkpt>
<trkpt lat="57.088589000" lon="12.555793000"><ele>91.5</ele><time>2013-07-16T20:13:30Z</time></trkpt>
<trkpt lat="57.088723000" lon="12.555855000"><ele>91.0</ele><time>2013-07-16T20:13:32Z</time></trkpt>
<trkpt lat="57.088863000" lon="12.555946000"><ele>90.6</ele><time>2013-07-16T20:13:34Z</time></trkpt>
<trkpt lat="57.088993000" lon="12.556050000"><ele>90.1</ele><time>2013-07-16T20:13:36Z</time></trkpt>
<trkpt lat="57.089116000" lon="12.556128000"><ele>89.8</ele><time>2013-07-16T20:13:38Z</time></trkpt>
<trkpt lat="57.089244000" lon="12.556204000"><ele>89.9</ele><time>2013-07-16T20:13:40Z</time></trkpt>
<trkpt lat="57.089371000" lon="12.556287000"><ele>90.2</ele><time>2013-07-16T20:13:42Z</time></trkpt>
<trkpt lat="57.089492000" lon="12.556398000"><ele>90.6</ele><time>2013-07-16T20:13:44Z</time></trkpt>
<trkpt lat="57.089598000" lon="12.556550000"><ele>90.9</ele><time>2013-07-16T20:13:46Z</time></trkpt>
<trkpt lat="57.089680000" lon="12.556738000"><ele>91.1</ele><time>2013-07-16T20:13:48Z</time></trkpt>
<trkpt lat="57.089730000" lon="12.556947000"><ele>91.3</ele><time>2013-07-16T20:13:50Z</time></trkpt>
<trkpt lat="57.089752000" lon="12.557162000"><ele>91.4</ele><time>2013-07-16T20:13:52Z</time></trkpt>
<trkpt lat="57.089760000" lon="12.557360000"><ele>91.6</ele><time>2013-07-16T20:13:54Z</time></trkpt>
<trkpt lat="57.089750000" lon="12.557556000"><ele>91.9</ele><time>2013-07-16T20:13:56Z</time></trkpt>
<trkpt lat="57.089751000" lon="12.557741000"><ele>92.2</ele><time>2013-07-16T20:13:58Z</time></trkpt>
<trkpt lat="57.089755000" lon="12.557928000"><ele>92.4</ele><time>2013-07-16T20:14:00Z</time></trkpt>
<trkpt lat="57.089761000" lon="12.558113000"><ele>92.5</ele><time>2013-07-16T20:14:02Z</time></trkpt>
<trkpt lat="57.089783000" lon="12.558289000"><ele>92.6</ele><time>2013-07-16T20:14:04Z</time></trkpt>
<trkpt lat="57.089828000" lon="12.558451000"><ele>92.7</ele><time>2013-07-16T20:14:06Z</time></trkpt>
<trkpt lat="57.089880000" lon="12.558608000"><ele>92.8</ele><time>2013-07-16T20:14:08Z</time></trkpt>
<trkpt lat="57.089948000" lon="12.558761000"><ele>93.0</ele><time>2013-07-16T20:14:10Z</time></trkpt>
<trkpt lat="57.090015000" lon="12.558917000"><ele>93.3</ele><time>2013-07-16T20:14:12Z</time></trkpt>
<trkpt lat="57.090085000" lon="12.559073000"><ele>93.5</ele><time>2013-07-16T20:14:14Z</time></trkpt>
<trkpt lat="57.090147000" lon="12.559227000"><ele>93.8</ele><time>2013-07-16T20:14:16Z</time></trkpt>
<trkpt lat="57.090208000" lon="12.559379000"><ele>94.0</ele><time>2013-07-16T20:14:18Z</time></trkpt>
<trkpt lat="57.090268000" lon="12.559530000"><ele>94.3</ele><time>2013-07-16T20:14:20Z</time></trkpt>
<trkpt lat="57.090324000" lon="12.559664000"><ele>94.5</ele><time>2013-07-16T20:14:22Z</time></trkpt>
<trkpt lat="57.090385000" lon="12.559798000"><ele>94.7</ele><time>2013-07-16T20:14:24Z</time></trkpt>
<trkpt lat="57.090446000" lon="12.559924000"><ele>94.8</ele><time>2013-07-16T20:14:26Z</time></trkpt>
<trkpt lat="57.090504000" lon="12.560040000"><ele>95.0</ele><time>2013-07-16T20:14:28Z</time></trkpt>
<trkpt lat="57.090564000" lon="12.560171000"><ele>95.1</ele><time>2013-07-16T20:14:30Z</time></trkpt>
<trkpt lat="57.090641000" lon="12.560316000"><ele>95.1</ele><time>2013-07-16T20:14:32Z</time></trkpt>
<trkpt lat="57.090723000" lon="12.560494000"><ele>95.1</ele><time>2013-07-16T20:14:34Z</time></trkpt>
<trkpt lat="57.090809000" lon="12.560692000"><ele>95.1</ele><time>2013-07-16T20:14:36Z</time></trkpt>
<trkpt lat="57.090897000" lon="12.560891000"><ele>95.1</ele><time>2013-07-16T20:14:38Z</time></trkpt>
<trkpt lat="57.090985000" lon="12.561079000"><ele>95.1</ele><time>2013-07-16T20:14:40Z</time></trkpt>
<trkpt lat="57.091067000" lon="12.561260000"><ele>95.2</ele><time>2013-07-16T20:14:42Z</time></trkpt>
<trkpt lat="57.091146000" lon="12.561428000"><ele>95.3</ele><time>2013-07-16T20:14:44Z</time></trkpt>
<trkpt lat="57.091226000" lon="12.561599000"><ele>95.5</ele><time>2013-07-16T20:14:46Z</time></trkpt>
<trkpt lat="57.091306000" lon="12.561769000"><ele>95.7</ele><time>2013-07-16T20:14:48Z</time></trkpt>
<trkpt lat="57.091388000" lon="12.561930000"><ele>95.8</ele><time>2013-07-16T20:14:50Z</time></trkpt>
<trkpt lat="57.091467000" lon="12.562092000"><ele>95.9</ele><time>2013-07-16T20:14:52Z</time></trkpt>
<trkpt lat="57.091544000" lon="12.562250000"><ele>96.0</ele><time>2013-07-16T20:14:54Z</time></trkpt>
<trkpt lat="57.091625000" lon="12.562414000"><ele>95.9</ele><time>2013-07-16T20:14:56Z</time></trkpt>
<trkpt lat="57.091706000" lon="12.562581000"><ele>95.8</ele><time>2013-07-16T20:14:58Z</time></trkpt>
<trkpt lat="57.091792000" lon="12.562757000"><ele>95.6</ele><time>2013-07-16T20:15:00Z</time></trkpt>
<trkpt lat="57.091878000" lon="12.562945000"><ele>95.4</ele><time>2013-07-16T20:15:02Z</time></trkpt>
<trkpt lat="57.091963000" lon="12.563148000"><ele>95.2</ele><time>2013-07-16T20:15:04Z</time></trkpt>
<trkpt lat="57.092054000" lon="12.563356000"><ele>94.9</ele><time>2013-07-16T20:15:06Z</time></trkpt>
<trkpt lat="57.092149000" lon="12.563563000"><ele>94.7</ele><time>2013-07-16T20:15:08Z</time></trkpt>
<trkpt lat="57.092257000" lon="12.563747000"><ele>94.5</ele><time>2013-07-16T20:15:10Z</time></trkpt>
<trkpt lat="57.092372000" lon="12.563907000"><ele>94.4</ele><time>2013-07-16T20:15:12Z</time></trkpt>
<trkpt lat="57.092493000" lon="12.564030000"><ele>94.3</ele><time>2013-07-16T20:15:14Z</time></trkpt>
<trkpt lat="57.092617000" lon="12.564111000"><ele>94.2</ele><time>2013-07-16T20:15:16Z</time></trkpt>
<trkpt lat="57.092737000" lon="12.564166000"><ele>94.3</ele><time>2013-07-16T20:15:18Z</time></trkpt>
<trkpt lat="57.092861000" lon="12.564192000"><ele>94.4</ele><time>2013-07-16T20:15:20Z</time></trkpt>
<trkpt lat="57.092985000" lon="12.564181000"><ele>94.6</ele><time>2013-07-16T20:15:22Z</time></trkpt>
<trkpt lat="57.093108000" lon="12.564149000"><ele>94.9</ele><time>2013-07-16T20:15:24Z</time></trkpt>
<trkpt lat="57.093232000" lon="12.564100000"><ele>95.1</ele><time>2013-07-16T20:15:26Z</time></trkpt>
<trkpt lat="57.093355000" lon="12.564050000"><ele>95.2</ele><time>2013-07-16T20:15:28Z</time></trkpt>
<trkpt lat="57.093476000" lon="12.564009000"><ele>95.2</ele><time>2013-07-16T20:15:30Z</time></trkpt>
<trkpt lat="57.093593000" lon="12.563981000"><ele>95.2</ele><time>2013-07-16T20:15:32Z</time></trkpt>
<trkpt lat="57.093708000" lon="12.563969000"><ele>95.1</ele><time>2013-07-16T20:15:34Z</time></trkpt>
<trkpt lat="57.093830000" lon="12.563960000"><ele>95.1</ele><time>2013-07-16T20:15:36Z</time></trkpt>
<trkpt lat="57.093951000" lon="12.563938000"><ele>95.0</ele><time>2013-07-16T20:15:38Z</time></trkpt>
<trkpt lat="57.094074000" lon="12.563952000"><ele>94.8</ele><time>2013-07-16T20:15:40Z</time></trkpt>
<trkpt lat="57.094196000" lon="12.563939000"><ele>94.4</ele><time>2013-07-16T20:15:42Z</time></trkpt>
<trkpt lat="57.094313000" lon="12.563929000"><ele>94.1</ele><time>2013-07-16T20:15:44Z</time></trkpt>
<trkpt lat="57.094426000" lon="12.563892000"><ele>94.0</ele><time>2013-07-16T20:15:46Z</time></trkpt>
<trkpt lat="57.094550000" lon="12.563872000"><ele>93.9</ele><time>2013-07-16T20:15:48Z</time></trkpt>
<trkpt lat="57.094686000" lon="12.563860000"><ele>93.9</ele><time>2013-07-16T20:15:50Z</time></trkpt>
<trkpt lat="57.094826000" lon="12.563846000"><ele>94.1</ele><time>2013-07-16T20:15:52Z</time></trkpt>
<trkpt lat="57.094957000" lon="12.563810000"><ele>94.3</ele><time>2013-07-16T20:15:54Z</time></trkpt>
<trkpt lat="57.095080000" lon="12.563776000"><ele>94.5</ele><time>2013-07-16T20:15:56Z</time></trkpt>
<trkpt lat="57.095193000" lon="12.563758000"><ele>94.7</ele><time>2013-07-16T20:15:58Z</time></trkpt>
<trkpt lat="57.095303000" lon="12.563749000"><ele>94.8</ele><time>2013-07-16T20:16:00Z</time></trkpt>
<trkpt lat="57.095406000" lon="12.563750000"><ele>95.1</ele><time>2013-07-16T20:16:02Z</time></trkpt>
<trkpt lat="57.095503000" lon="12.563750000"><ele>95.4</ele><time>2013-07-16T20:16:04Z</time></trkpt>
<trkpt lat="57.095604000" lon="12.563753000"><ele>95.6</ele><time>2013-07-16T20:16:06Z</time></trkpt>
<trkpt lat="57.095710000" lon="12.563767000"><ele>95.7</ele><time>2013-07-16T20:16:08Z</time></trkpt>
<trkpt lat="57.095814000" lon="12.563792000"><ele>95.8</ele><time>2013-07-16T20:16:10Z</time></trkpt>
<trkpt lat="57.095925000" lon="12.563831000"><ele>95.7</ele><time>2013-07-16T20:16:12Z</time></trkpt>
<trkpt lat="57.096031000" lon="12.563858000"><ele>95.4</ele><time>2013-07-16T20:16:14Z</time></trkpt>
<trkpt lat="57.096144000" lon="12.563931000"><ele>95.1</ele><time>2013-07-16T20:16:17Z</time></trkpt>
<trkpt lat="57.096233000" lon="12.563985000"><ele>94.7</ele><time>2013-07-16T20:16:19Z</time></trkpt>
<trkpt lat="57.096334000" lon="12.564047000"><ele>94.2</ele><time>2013-07-16T20:16:21Z</time></trkpt>
<trkpt lat="57.096446000" lon="12.564098000"><ele>93.7</ele><time>2013-07-16T20:16:23Z</time></trkpt>
<trkpt lat="57.096540000" lon="12.564120000"><ele>93.3</ele><time>2013-07-16T20:16:25Z</time></trkpt>
<trkpt lat="57.096668000" lon="12.564083000"><ele>92.9</ele><time>2013-07-16T20:16:27Z</time></trkpt>
<trkpt lat="57.096805000" lon="12.563989000"><ele>92.5</ele><time>2013-07-16T20:16:29Z</time></trkpt>
<trkpt lat="57.096953000" lon="12.563878000"><ele>92.2</ele><time>2013-07-16T20:16:31Z</time></trkpt>
<trkpt lat="57.097098000" lon="12.563755000"><ele>92.0</ele><time>2013-07-16T20:16:33Z</time></trkpt>
<trkpt lat="57.097171000" lon="12.563687000"><ele>91.8</ele><time>2013-07-16T20:16:34Z</time></trkpt>
<trkpt lat="57.097310000" lon="12.563552000"><ele>91.8</ele><time>2013-07-16T20:16:36Z</time></trkpt>
<trkpt lat="57.097438000" lon="12.563428000"><ele>91.9</ele><time>2013-07-16T20:16:38Z</time></trkpt>
<trkpt lat="57.097559000" lon="12.563312000"><ele>92.0</ele><time>2013-07-16T20:16:40Z</time></trkpt>
<trkpt lat="57.097668000" lon="12.563197000"><ele>92.0</ele><time>2013-07-16T20:16:42Z</time></trkpt>
<trkpt lat="57.097775000" lon="12.563084000"><ele>92.1</ele><time>2013-07-16T20:16:44Z</time></trkpt>
<trkpt lat="57.097878000" lon="12.562973000"><ele>92.1</ele><time>2013-07-16T20:16:46Z</time></trkpt>
<trkpt lat="57.097976000" lon="12.562864000"><ele>92.0</ele><time>2013-07-16T20:16:48Z</time></trkpt>
<trkpt lat="57.098080000" lon="12.562765000"><ele>92.0</ele><time>2013-07-16T20:16:50Z</time></trkpt>
<trkpt lat="57.098183000" lon="12.562665000"><ele>91.9</ele><time>2013-07-16T20:16:52Z</time></trkpt>
<trkpt lat="57.098275000" lon="12.562576000"><ele>91.8</ele><time>2013-07-16T20:16:54Z</time></trkpt>
<trkpt lat="57.098381000" lon="12.562516000"><ele>91.7</ele><time>2013-07-16T20:16:56Z</time></trkpt>
<trkpt lat="57.098499000" lon="12.562486000"><ele>91.7</ele><time>2013-07-16T20:16:58Z</time></trkpt>
<trkpt lat="57.098625000" lon="12.562495000"><ele>91.7</ele><time>2013-07-16T20:17:00Z</time></trkpt>
<trkpt lat="57.098757000" lon="12.562540000"><ele>91.7</ele><time>2013-07-16T20:17:02Z</time></trkpt>
<trkpt lat="57.098882000" lon="12.562578000"><ele>91.8</ele><time>2013-07-16T20:17:04Z</time></trkpt>
<trkpt lat="57.099007000" lon="12.562632000"><ele>92.0</ele><time>2013-07-16T20:17:06Z</time></trkpt>
<trkpt lat="57.099138000" lon="12.562678000"><ele>92.2</ele><time>2013-07-16T20:17:08Z</time></trkpt>
<trkpt lat="57.099254000" lon="12.562749000"><ele>92.6</ele><time>2013-07-16T20:17:10Z</time></trkpt>
<trkpt lat="57.099371000" lon="12.562806000"><ele>92.8</ele><time>2013-07-16T20:17:12Z</time></trkpt>
<trkpt lat="57.099488000" lon="12.562862000"><ele>93.1</ele><time>2013-07-16T20:17:14Z</time></trkpt>
<trkpt lat="57.099602000" lon="12.562916000"><ele>93.4</ele><time>2013-07-16T20:17:16Z</time></trkpt>
<trkpt lat="57.099711000" lon="12.562969000"><ele>93.9</ele><time>2013-07-16T20:17:18Z</time></trkpt>
<trkpt lat="57.099819000" lon="12.563007000"><ele>94.4</ele><time>2013-07-16T20:17:20Z</time></trkpt>
<trkpt lat="57.099932000" lon="12.563072000"><ele>95.0</ele><time>2013-07-16T20:17:22Z</time></trkpt>
<trkpt lat="57.100043000" lon="12.563107000"><ele>95.6</ele><time>2013-07-16T20:17:24Z</time></trkpt>
<trkpt lat="57.100155000" lon="12.563114000"><ele>96.3</ele><time>2013-07-16T20:17:26Z</time></trkpt>
<trkpt lat="57.100264000" lon="12.563104000"><ele>96.9</ele><time>2013-07-16T20:17:28Z</time></trkpt>
<trkpt lat="57.100375000" lon="12.563084000"><ele>97.4</ele><time>2013-07-16T20:17:30Z</time></trkpt>
<trkpt lat="57.100483000" lon="12.563073000"><ele>97.8</ele><time>2013-07-16T20:17:32Z</time></trkpt>
<trkpt lat="57.100586000" lon="12.563034000"><ele>98.2</ele><time>2013-07-16T20:17:34Z</time></trkpt>
<trkpt lat="57.100693000" lon="12.563006000"><ele>98.5</ele><time>2013-07-16T20:17:36Z</time></trkpt>
<trkpt lat="57.100801000" lon="12.563000000"><ele>98.8</ele><time>2013-07-16T20:17:38Z</time></trkpt>
<trkpt lat="57.100906000" lon="12.562987000"><ele>98.9</ele><time>2013-07-16T20:17:40Z</time></trkpt>
<trkpt lat="57.101017000" lon="12.562974000"><ele>98.8</ele><time>2013-07-16T20:17:42Z</time></trkpt>
<trkpt lat="57.101121000" lon="12.562967000"><ele>98.7</ele><time>2013-07-16T20:17:44Z</time></trkpt>
<trkpt lat="57.101222000" lon="12.562951000"><ele>98.5</ele><time>2013-07-16T20:17:46Z</time></trkpt>
<trkpt lat="57.101325000" lon="12.562929000"><ele>98.3</ele><time>2013-07-16T20:17:48Z</time></trkpt>
<trkpt lat="57.101431000" lon="12.562912000"><ele>98.2</ele><time>2013-07-16T20:17:50Z</time></trkpt>
<trkpt lat="57.101535000" lon="12.562900000"><ele>98.2</ele><time>2013-07-16T20:17:52Z</time></trkpt>
<trkpt lat="57.101642000" lon="12.562886000"><ele>98.2</ele><time>2013-07-16T20:17:54Z</time></trkpt>
<trkpt lat="57.101754000" lon="12.562871000"><ele>98.2</ele><time>2013-07-16T20:17:56Z</time></trkpt>
<trkpt lat="57.101866000" lon="12.562849000"><ele>98.4</ele><time>2013-07-16T20:17:58Z</time></trkpt>
<trkpt lat="57.101977000" lon="12.562832000"><ele>98.5</ele><time>2013-07-16T20:18:00Z</time></trkpt>
<trkpt lat="57.102088000" lon="12.562813000"><ele>98.7</ele><time>2013-07-16T20:18:02Z</time></trkpt>
<trkpt lat="57.102196000" lon="12.562793000"><ele>98.9</ele><time>2013-07-16T20:18:04Z</time></trkpt>
<trkpt lat="57.102305000" lon="12.562775000"><ele>99.1</ele><time>2013-07-16T20:18:06Z</time></trkpt>
<trkpt lat="57.102408000" lon="12.562749000"><ele>99.4</ele><time>2013-07-16T20:18:08Z</time></trkpt>
<trkpt lat="57.102506000" lon="12.562719000"><ele>99.8</ele><time>2013-07-16T20:18:10Z</time></trkpt>
<trkpt lat="57.102605000" lon="12.562700000"><ele>100.1</ele><time>2013-07-16T20:18:12Z</time></trkpt>
<trkpt lat="57.102699000" lon="12.562676000"><ele>100.5</ele><time>2013-07-16T20:18:14Z</time></trkpt>
<trkpt lat="57.102791000" lon="12.562643000"><ele>100.7</ele><time>2013-07-16T20:18:16Z</time></trkpt>
<trkpt lat="57.102884000" lon="12.562611000"><ele>101.0</ele><time>2013-07-16T20:18:18Z</time></trkpt>
<trkpt lat="57.102975000" lon="12.562580000"><ele>101.2</ele><time>2013-07-16T20:18:20Z</time></trkpt>
<trkpt lat="57.103066000" lon="12.562556000"><ele>101.4</ele><time>2013-07-16T20:18:22Z</time></trkpt>
<trkpt lat="57.103155000" lon="12.562536000"><ele>101.7</ele><time>2013-07-16T20:18:24Z</time></trkpt>
<trkpt lat="57.103252000" lon="12.562524000"><ele>101.8</ele><time>2013-07-16T20:18:26Z</time></trkpt>
<trkpt lat="57.103344000" lon="12.562497000"><ele>102.0</ele><time>2013-07-16T20:18:28Z</time></trkpt>
<trkpt lat="57.103434000" lon="12.562473000"><ele>102.2</ele><time>2013-07-16T20:18:30Z</time></trkpt>
<trkpt lat="57.103528000" lon="12.562448000"><ele>102.4</ele><time>2013-07-16T20:18:32Z</time></trkpt>
<trkpt lat="57.103620000" lon="12.562420000"><ele>102.5</ele><time>2013-07-16T20:18:34Z</time></trkpt>
<trkpt lat="57.103714000" lon="12.562394000"><ele>102.7</ele><time>2013-07-16T20:18:36Z</time></trkpt>
<trkpt lat="57.103808000" lon="12.562365000"><ele>102.9</ele><time>2013-07-16T20:18:38Z</time></trkpt>
<trkpt lat="57.103903000" lon="12.562341000"><ele>103.1</ele><time>2013-07-16T20:18:40Z</time></trkpt>
<trkpt lat="57.103994000" lon="12.562316000"><ele>103.3</ele><time>2013-07-16T20:18:42Z</time></trkpt>
<trkpt lat="57.104087000" lon="12.562297000"><ele>103.5</ele><time>2013-07-16T20:18:44Z</time></trkpt>
<trkpt lat="57.104185000" lon="12.562274000"><ele>103.8</ele><time>2013-07-16T20:18:46Z</time></trkpt>
<trkpt lat="57.104279000" lon="12.562246000"><ele>104.1</ele><time>2013-07-16T20:18:48Z</time></trkpt>
<trkpt lat="57.104373000" lon="12.562219000"><ele>104.4</ele><time>2013-07-16T20:18:50Z</time></trkpt>
<trkpt lat="57.104466000" lon="12.562197000"><ele>104.8</ele><time>2013-07-16T20:18:52Z</time></trkpt>
<trkpt lat="57.104556000" lon="12.562171000"><ele>105.2</ele><time>2013-07-16T20:18:54Z</time></trkpt>
<trkpt lat="57.104641000" lon="12.562151000"><ele>105.6</ele><time>2013-07-16T20:18:56Z</time></trkpt>
<trkpt lat="57.104724000" lon="12.562132000"><ele>106.1</ele><time>2013-07-16T20:18:58Z</time></trkpt>
<trkpt lat="57.104807000" lon="12.562109000"><ele>106.5</ele><time>2013-07-16T20:19:00Z</time></trkpt>
<trkpt lat="57.104892000" lon="12.562078000"><ele>106.9</ele><time>2013-07-16T20:19:02Z</time></trkpt>
<trkpt lat="57.104977000" lon="12.562039000"><ele>107.3</ele><time>2013-07-16T20:19:04Z</time></trkpt>
<trkpt lat="57.105064000" lon="12.561999000"><ele>107.6</ele><time>2013-07-16T20:19:06Z</time></trkpt>
<trkpt lat="57.105144000" lon="12.561939000"><ele>108.0</ele><time>2013-07-16T20:19:08Z</time></trkpt>
<trkpt lat="57.105219000" lon="12.561860000"><ele>108.2</ele><time>2013-07-16T20:19:10Z</time></trkpt>
<trkpt lat="57.105285000" lon="12.561769000"><ele>108.4</ele><time>2013-07-16T20:19:12Z</time></trkpt>
<trkpt lat="57.105350000" lon="12.561674000"><ele>108.5</ele><time>2013-07-16T20:19:14Z</time></trkpt>
<trkpt lat="57.105438000" lon="12.561541000"><ele>108.6</ele><time>2013-07-16T20:19:17Z</time></trkpt>
<trkpt lat="57.105503000" lon="12.561447000"><ele>108.6</ele><time>2013-07-16T20:19:19Z</time></trkpt>
<trkpt lat="57.105573000" lon="12.561354000"><ele>108.5</ele><time>2013-07-16T20:19:21Z</time></trkpt>
<trkpt lat="57.105645000" lon="12.561257000"><ele>108.6</ele><time>2013-07-16T20:19:23Z</time></trkpt>
<trkpt lat="57.105718000" lon="12.561153000"><ele>108.5</ele><time>2013-07-16T20:19:25Z</time></trkpt>
<trkpt lat="57.105792000" lon="12.561053000"><ele>108.4</ele><time>2013-07-16T20:19:27Z</time></trkpt>
<trkpt lat="57.105858000" lon="12.560949000"><ele>108.4</ele><time>2013-07-16T20:19:29Z</time></trkpt>
<trkpt lat="57.105929000" lon="12.560851000"><ele>108.3</ele><time>2013-07-16T20:19:31Z</time></trkpt>
<trkpt lat="57.106001000" lon="12.560749000"><ele>108.3</ele><time>2013-07-16T20:19:33Z</time></trkpt>
<trkpt lat="57.106078000" lon="12.560651000"><ele>108.3</ele><time>2013-07-16T20:19:35Z</time></trkpt>
<trkpt lat="57.106151000" lon="12.560545000"><ele>108.3</ele><time>2013-07-16T20:19:37Z</time></trkpt>
<trkpt lat="57.106225000" lon="12.560432000"><ele>108.3</ele><time>2013-07-16T20:19:39Z</time></trkpt>
<trkpt lat="57.106306000" lon="12.560314000"><ele>108.1</ele><time>2013-07-16T20:19:41Z</time></trkpt>
<trkpt lat="57.106391000" lon="12.560204000"><ele>107.9</ele><time>2013-07-16T20:19:43Z</time></trkpt>
<trkpt lat="57.106465000" lon="12.560075000"><ele>107.7</ele><time>2013-07-16T20:19:45Z</time></trkpt>
<trkpt lat="57.106551000" lon="12.559954000"><ele>107.5</ele><time>2013-07-16T20:19:47Z</time></trkpt>
<trkpt lat="57.106643000" lon="12.559832000"><ele>107.3</ele><time>2013-07-16T20:19:49Z</time></trkpt>
<trkpt lat="57.106750000" lon="12.559720000"><ele>107.0</ele><time>2013-07-16T20:19:51Z</time></trkpt>
<trkpt lat="57.106847000" lon="12.559585000"><ele>106.7</ele><time>2013-07-16T20:19:53Z</time></trkpt>
<trkpt lat="57.106949000" lon="12.559450000"><ele>106.3</ele><time>2013-07-16T20:19:55Z</time></trkpt>
<trkpt lat="57.107048000" lon="12.559304000"><ele>106.0</ele><time>2013-07-16T20:19:57Z</time></trkpt>
<trkpt lat="57.107149000" lon="12.559167000"><ele>105.6</ele><time>2013-07-16T20:19:59Z</time></trkpt>
<trkpt lat="57.107248000" lon="12.559018000"><ele>105.2</ele><time>2013-07-16T20:20:01Z</time></trkpt>
<trkpt lat="57.107356000" lon="12.558870000"><ele>104.9</ele><time>2013-07-16T20:20:03Z</time></trkpt>
<trkpt lat="57.107463000" lon="12.558723000"><ele>104.6</ele><time>2013-07-16T20:20:05Z</time></trkpt>
<trkpt lat="57.107568000" lon="12.558578000"><ele>104.3</ele><time>2013-07-16T20:20:07Z</time></trkpt>
<trkpt lat="57.107671000" lon="12.558436000"><ele>104.1</ele><time>2013-07-16T20:20:09Z</time></trkpt>
<trkpt lat="57.107772000" lon="12.558292000"><ele>103.9</ele><time>2013-07-16T20:20:11Z</time></trkpt>
<trkpt lat="57.107881000" lon="12.558145000"><ele>103.8</ele><time>2013-07-16T20:20:13Z</time></trkpt>
<trkpt lat="57.107989000" lon="12.557997000"><ele>103.8</ele><time>2013-07-16T20:20:15Z</time></trkpt>
<trkpt lat="57.108095000" lon="12.557859000"><ele>103.8</ele><time>2013-07-16T20:20:17Z</time></trkpt>
<trkpt lat="57.108194000" lon="12.557726000"><ele>103.8</ele><time>2013-07-16T20:20:19Z</time></trkpt>
<trkpt lat="57.108290000" lon="12.557602000"><ele>103.8</ele><time>2013-07-16T20:20:21Z</time></trkpt>
<trkpt lat="57.108379000" lon="12.557472000"><ele>103.8</ele><time>2013-07-16T20:20:23Z</time></trkpt>
<trkpt lat="57.108469000" lon="12.557347000"><ele>103.8</ele><time>2013-07-16T20:20:25Z</time></trkpt>
<trkpt lat="57.108558000" lon="12.557225000"><ele>103.9</ele><time>2013-07-16T20:20:27Z</time></trkpt>
<trkpt lat="57.108640000" lon="12.557105000"><ele>104.0</ele><time>2013-07-16T20:20:29Z</time></trkpt>
<trkpt lat="57.108694000" lon="12.556972000"><ele>104.2</ele><time>2013-07-16T20:20:31Z</time></trkpt>
<trkpt lat="57.108747000" lon="12.556837000"><ele>104.6</ele><time>2013-07-16T20:20:33Z</time></trkpt>
<trkpt lat="57.108810000" lon="12.556737000"><ele>105.0</ele><time>2013-07-16T20:20:35Z</time></trkpt>
<trkpt lat="57.108850000" lon="12.556608000"><ele>105.4</ele><time>2013-07-16T20:20:37Z</time></trkpt>
<trkpt lat="57.108880000" lon="12.556440000"><ele>105.7</ele><time>2013-07-16T20:20:39Z</time></trkpt>
<trkpt lat="57.108956000" lon="12.556349000"><ele>106.2</ele><time>2013-07-16T20:20:41Z</time></trkpt>
<trkpt lat="57.109048000" lon="12.556263000"><ele>106.9</ele><time>2013-07-16T20:20:43Z</time></trkpt>
<trkpt lat="57.109104000" lon="12.556128000"><ele>107.7</ele><time>2013-07-16T20:20:45Z</time></trkpt>
<trkpt lat="57.109183000" lon="12.556054000"><ele>108.6</ele><time>2013-07-16T20:20:47Z</time></trkpt>
<trkpt lat="57.109256000" lon="12.555955000"><ele>109.5</ele><time>2013-07-16T20:20:49Z</time></trkpt>
<trkpt lat="57.109353000" lon="12.555907000"><ele>110.5</ele><time>2013-07-16T20:20:51Z</time></trkpt>
<trkpt lat="57.109449000" lon="12.555845000"><ele>111.5</ele><time>2013-07-16T20:20:53Z</time></trkpt>
<trkpt lat="57.109563000" lon="12.555813000"><ele>112.5</ele><time>2013-07-16T20:20:55Z</time></trkpt>
<trkpt lat="57.109666000" lon="12.555806000"><ele>113.5</ele><time>2013-07-16T20:20:57Z</time></trkpt>
<trkpt lat="57.109777000" lon="12.555796000"><ele>114.8</ele><time>2013-07-16T20:20:59Z</time></trkpt>
<trkpt lat="57.109890000" lon="12.555824000"><ele>116.2</ele><time>2013-07-16T20:21:01Z</time></trkpt>
<trkpt lat="57.109997000" lon="12.555849000"><ele>117.7</ele><time>2013-07-16T20:21:03Z</time></trkpt>
<trkpt lat="57.110097000" lon="12.555853000"><ele>119.1</ele><time>2013-07-16T20:21:05Z</time></trkpt>
<trkpt lat="57.110197000" lon="12.555909000"><ele>120.5</ele><time>2013-07-16T20:21:07Z</time></trkpt>
<trkpt lat="57.110310000" lon="12.555953000"><ele>121.8</ele><time>2013-07-16T20:21:10Z</time></trkpt>
<trkpt lat="57.110391000" lon="12.555968000"><ele>122.9</ele><time>2013-07-16T20:21:12Z</time></trkpt>
<trkpt lat="57.110496000" lon="12.555968000"><ele>123.6</ele><time>2013-07-16T20:21:15Z</time></trkpt>
<trkpt lat="57.110590000" lon="12.555975000"><ele>124.3</ele><time>2013-07-16T20:21:18Z</time></trkpt>
<trkpt lat="57.110682000" lon="12.555998000"><ele>124.8</ele><time>2013-07-16T20:21:20Z</time></trkpt>
<trkpt lat="57.110769000" lon="12.555970000"><ele>125.2</ele><time>2013-07-16T20:21:23Z</time></trkpt>
<trkpt lat="57.110852000" lon="12.555965000"><ele>125.6</ele><time>2013-07-16T20:21:26Z</time></trkpt>
<trkpt lat="57.110971000" lon="12.555924000"><ele>126.1</ele><time>2013-07-16T20:21:30Z</time></trkpt>
<trkpt lat="57.111060000" lon="12.555886000"><ele>126.4</ele><time>2013-07-16T20:21:32Z</time></trkpt>
<trkpt lat="57.111161000" lon="12.555837000"><ele>126.6</ele><time>2013-07-16T20:21:35Z</time></trkpt>
<trkpt lat="57.111248000" lon="12.555768000"><ele>126.8</ele><time>2013-07-16T20:21:38Z</time></trkpt>
<trkpt lat="57.111337000" lon="12.555711000"><ele>126.9</ele><time>2013-07-16T20:21:41Z</time></trkpt>
<trkpt lat="57.111420000" lon="12.555698000"><ele>126.9</ele><time>2013-07-16T20:21:43Z</time></trkpt>
<trkpt lat="57.111501000" lon="12.555676000"><ele>127.0</ele><time>2013-07-16T20:21:45Z</time></trkpt>
<trkpt lat="57.111589000" lon="12.555670000"><ele>126.8</ele><time>2013-07-16T20:21:47Z</time></trkpt>
<trkpt lat="57.111696000" lon="12.555621000"><ele>126.4</ele><time>2013-07-16T20:21:50Z</time></trkpt>
<trkpt lat="57.111785000" lon="12.555569000"><ele>126.0</ele><time>2013-07-16T20:21:53Z</time></trkpt>
<trkpt lat="57.111884000" lon="12.555497000"><ele>125.4</ele><time>2013-07-16T20:21:56Z</time></trkpt>
<trkpt lat="57.111962000" lon="12.555406000"><ele>124.8</ele><time>2013-07-16T20:21:59Z</time></trkpt>
<trkpt lat="57.112054000" lon="12.555300000"><ele>124.2</ele><time>2013-07-16T20:22:02Z</time></trkpt>
<trkpt lat="57.112155000" lon="12.555185000"><ele>123.7</ele><time>2013-07-16T20:22:05Z</time></trkpt>
<trkpt lat="57.112236000" lon="12.555018000"><ele>123.2</ele><time>2013-07-16T20:22:08Z</time></trkpt>
<trkpt lat="57.112321000" lon="12.554905000"><ele>122.9</ele><time>2013-07-16T20:22:11Z</time></trkpt>
<trkpt lat="57.112426000" lon="12.554822000"><ele>122.9</ele><time>2013-07-16T20:22:14Z</time></trkpt>
<trkpt lat="57.112506000" lon="12.554783000"><ele>122.7</ele><time>2013-07-16T20:22:16Z</time></trkpt>
<trkpt lat="57.112610000" lon="12.554734000"><ele>122.7</ele><time>2013-07-16T20:22:19Z</time></trkpt>
<trkpt lat="57.112726000" lon="12.554704000"><ele>122.9</ele><time>2013-07-16T20:22:22Z</time></trkpt>
<trkpt lat="57.112818000" lon="12.554702000"><ele>123.0</ele><time>2013-07-16T20:22:24Z</time></trkpt>
<trkpt lat="57.112928000" lon="12.554699000"><ele>122.9</ele><time>2013-07-16T20:22:26Z</time></trkpt>
<trkpt lat="57.113053000" lon="12.554704000"><ele>122.6</ele><time>2013-07-16T20:22:28Z</time></trkpt>
<trkpt lat="57.113188000" lon="12.554704000"><ele>122.2</ele><time>2013-07-16T20:22:30Z</time></trkpt>
<trkpt lat="57.113318000" lon="12.554714000"><ele>121.6</ele><time>2013-07-16T20:22:32Z</time></trkpt>
<trkpt lat="57.113453000" lon="12.554758000"><ele>120.9</ele><time>2013-07-16T20:22:34Z</time></trkpt>
<trkpt lat="57.113593000" lon="12.554852000"><ele>120.1</ele><time>2013-07-16T20:22:36Z</time></trkpt>
<trkpt lat="57.113674000" lon="12.554917000"><ele>119.5</ele><time>2013-07-16T20:22:37Z</time></trkpt>
<trkpt lat="57.113749000" lon="12.554977000"><ele>119.1</ele><time>2013-07-16T20:22:38Z</time></trkpt>
<trkpt lat="57.113832000" lon="12.555037000"><ele>118.5</ele><time>2013-07-16T20:22:39Z</time></trkpt>
<trkpt lat="57.113912000" lon="12.555089000"><ele>118.0</ele><time>2013-07-16T20:22:40Z</time></trkpt>
<trkpt lat="57.113995000" lon="12.555119000"><ele>117.5</ele><time>2013-07-16T20:22:41Z</time></trkpt>
<trkpt lat="57.114082000" lon="12.555123000"><ele>117.0</ele><time>2013-07-16T20:22:42Z</time></trkpt>
<trkpt lat="57.114171000" lon="12.555130000"><ele>116.7</ele><time>2013-07-16T20:22:43Z</time></trkpt>
<trkpt lat="57.114257000" lon="12.555133000"><ele>116.4</ele><time>2013-07-16T20:22:44Z</time></trkpt>
<trkpt lat="57.114340000" lon="12.555128000"><ele>116.3</ele><time>2013-07-16T20:22:45Z</time></trkpt>
<trkpt lat="57.114496000" lon="12.555116000"><ele>116.2</ele><time>2013-07-16T20:22:47Z</time></trkpt>
<trkpt lat="57.114639000" lon="12.555078000"><ele>116.3</ele><time>2013-07-16T20:22:49Z</time></trkpt>
<trkpt lat="57.114778000" lon="12.555055000"><ele>116.3</ele><time>2013-07-16T20:22:51Z</time></trkpt>
<trkpt lat="57.114909000" lon="12.555027000"><ele>116.5</ele><time>2013-07-16T20:22:53Z</time></trkpt>
<trkpt lat="57.115016000" lon="12.555002000"><ele>116.9</ele><time>2013-07-16T20:22:55Z</time></trkpt>
<trkpt lat="57.115115000" lon="12.555008000"><ele>117.3</ele><time>2013-07-16T20:22:57Z</time></trkpt>
<trkpt lat="57.115215000" lon="12.555054000"><ele>117.8</ele><time>2013-07-16T20:22:59Z</time></trkpt>
<trkpt lat="57.115296000" lon="12.555106000"><ele>118.3</ele><time>2013-07-16T20:23:01Z</time></trkpt>
<trkpt lat="57.115391000" lon="12.555132000"><ele>118.8</ele><time>2013-07-16T20:23:03Z</time></trkpt>
<trkpt lat="57.115485000" lon="12.555189000"><ele>119.2</ele><time>2013-07-16T20:23:05Z</time></trkpt>
<trkpt lat="57.115575000" lon="12.555270000"><ele>119.8</ele><time>2013-07-16T20:23:07Z</time></trkpt>
<trkpt lat="57.115663000" lon="12.555363000"><ele>120.4</ele><time>2013-07-16T20:23:09Z</time></trkpt>
<trkpt lat="57.115761000" lon="12.555458000"><ele>120.9</ele><time>2013-07-16T20:23:11Z</time></trkpt>
<trkpt lat="57.115844000" lon="12.555540000"><ele>121.4</ele><time>2013-07-16T20:23:13Z</time></trkpt>
<trkpt lat="57.115910000" lon="12.555627000"><ele>121.9</ele><time>2013-07-16T20:23:15Z</time></trkpt>
<trkpt lat="57.116006000" lon="12.555766000"><ele>122.3</ele><time>2013-07-16T20:23:18Z</time></trkpt>
<trkpt lat="57.116075000" lon="12.555871000"><ele>122.7</ele><time>2013-07-16T20:23:20Z</time></trkpt>
<trkpt lat="57.116137000" lon="12.555969000"><ele>123.3</ele><time>2013-07-16T20:23:22Z</time></trkpt>
<trkpt lat="57.116204000" lon="12.556069000"><ele>124.2</ele><time>2013-07-16T20:23:24Z</time></trkpt>
<trkpt lat="57.116272000" lon="12.556168000"><ele>125.2</ele><time>2013-07-16T20:23:26Z</time></trkpt>
<trkpt lat="57.116358000" lon="12.556315000"><ele>126.3</ele><time>2013-07-16T20:23:29Z</time></trkpt>
<trkpt lat="57.116446000" lon="12.556462000"><ele>127.4</ele><time>2013-07-16T20:23:32Z</time></trkpt>
<trkpt lat="57.116509000" lon="12.556597000"><ele>128.4</ele><time>2013-07-16T20:23:35Z</time></trkpt>
<trkpt lat="57.116578000" lon="12.556721000"><ele>129.2</ele><time>2013-07-16T20:23:38Z</time></trkpt>
<trkpt lat="57.116660000" lon="12.556850000"><ele>129.8</ele><time>2013-07-16T20:23:41Z</time></trkpt>
<trkpt lat="57.116716000" lon="12.557000000"><ele>130.2</ele><time>2013-07-16T20:23:45Z</time></trkpt>
<trkpt lat="57.116786000" lon="12.557135000"><ele>130.3</ele><time>2013-07-16T20:23:49Z</time></trkpt>
<trkpt lat="57.116859000" lon="12.557258000"><ele>130.3</ele><time>2013-07-16T20:23:52Z</time></trkpt>
<trkpt lat="57.116938000" lon="12.557390000"><ele>129.9</ele><time>2013-07-16T20:23:55Z</time></trkpt>
<trkpt lat="57.116992000" lon="12.557504000"><ele>129.6</ele><time>2013-07-16T20:23:57Z</time></trkpt>
<trkpt lat="57.117061000" lon="12.557612000"><ele>129.4</ele><time>2013-07-16T20:23:59Z</time></trkpt>
<trkpt lat="57.117140000" lon="12.557738000"><ele>129.2</ele><time>2013-07-16T20:24:02Z</time></trkpt>
<trkpt lat="57.117219000" lon="12.557822000"><ele>129.0</ele><time>2013-07-16T20:24:04Z</time></trkpt>
<trkpt lat="57.117285000" lon="12.557918000"><ele>128.8</ele><time>2013-07-16T20:24:06Z</time></trkpt>
<trkpt lat="57.117377000" lon="12.558073000"><ele>128.8</ele><time>2013-07-16T20:24:09Z</time></trkpt>
<trkpt lat="57.117441000" lon="12.558171000"><ele>129.1</ele><time>2013-07-16T20:24:11Z</time></trkpt>
<trkpt lat="57.117530000" lon="12.558296000"><ele>129.5</ele><time>2013-07-16T20:24:14Z</time></trkpt>
<trkpt lat="57.117612000" lon="12.558407000"><ele>130.1</ele><time>2013-07-16T20:24:17Z</time></trkpt>
<trkpt lat="57.117694000" lon="12.558500000"><ele>130.8</ele><time>2013-07-16T20:24:20Z</time></trkpt>
<trkpt lat="57.117781000" lon="12.558600000"><ele>131.8</ele><time>2013-07-16T20:24:23Z</time></trkpt>
<trkpt lat="57.117877000" lon="12.558701000"><ele>132.5</ele><time>2013-07-16T20:24:26Z</time></trkpt>
<trkpt lat="57.117971000" lon="12.558812000"><ele>133.1</ele><time>2013-07-16T20:24:29Z</time></trkpt>
<trkpt lat="57.118068000" lon="12.558924000"><ele>133.7</ele><time>2013-07-16T20:24:32Z</time></trkpt>
<trkpt lat="57.118165000" lon="12.559039000"><ele>133.6</ele><time>2013-07-16T20:24:35Z</time></trkpt>
<trkpt lat="57.118260000" lon="12.559154000"><ele>133.5</ele><time>2013-07-16T20:24:38Z</time></trkpt>
<trkpt lat="57.118355000" lon="12.559261000"><ele>133.3</ele><time>2013-07-16T20:24:41Z</time></trkpt>
<trkpt lat="57.118456000" lon="12.559373000"><ele>133.0</ele><time>2013-07-16T20:24:44Z</time></trkpt>
<trkpt lat="57.118524000" lon="12.559459000"><ele>132.5</ele><time>2013-07-16T20:24:46Z</time></trkpt>
<trkpt lat="57.118607000" lon="12.559553000"><ele>132.0</ele><time>2013-07-16T20:24:48Z</time></trkpt>
<trkpt lat="57.118688000" lon="12.559654000"><ele>131.5</ele><time>2013-07-16T20:24:50Z</time></trkpt>
<trkpt lat="57.118766000" lon="12.559740000"><ele>130.7</ele><time>2013-07-16T20:24:52Z</time></trkpt>
<trkpt lat="57.118845000" lon="12.559836000"><ele>129.9</ele><time>2013-07-16T20:24:54Z</time></trkpt>
<trkpt lat="57.118928000" lon="12.559932000"><ele>128.9</ele><time>2013-07-16T20:24:56Z</time></trkpt>
<trkpt lat="57.119019000" lon="12.560034000"><ele>127.8</ele><time>2013-07-16T20:24:58Z</time></trkpt>
<trkpt lat="57.119114000" lon="12.560147000"><ele>127.1</ele><time>2013-07-16T20:25:00Z</time></trkpt>
<trkpt lat="57.119217000" lon="12.560266000"><ele>126.5</ele><time>2013-07-16T20:25:02Z</time></trkpt>
<trkpt lat="57.119322000" lon="12.560393000"><ele>126.0</ele><time>2013-07-16T20:25:04Z</time></trkpt>
<trkpt lat="57.119442000" lon="12.560538000"><ele>125.4</ele><time>2013-07-16T20:25:06Z</time></trkpt>
<trkpt lat="57.119568000" lon="12.560682000"><ele>125.0</ele><time>2013-07-16T20:25:08Z</time></trkpt>
<trkpt lat="57.119695000" lon="12.560835000"><ele>124.5</ele><time>2013-07-16T20:25:10Z</time></trkpt>
<trkpt lat="57.119823000" lon="12.560986000"><ele>124.1</ele><time>2013-07-16T20:25:12Z</time></trkpt>
<trkpt lat="57.119957000" lon="12.561149000"><ele>123.8</ele><time>2013-07-16T20:25:14Z</time></trkpt>
<trkpt lat="57.120093000" lon="12.561313000"><ele>123.5</ele><time>2013-07-16T20:25:16Z</time></trkpt>
<trkpt lat="57.120162000" lon="12.561402000"><ele>123.3</ele><time>2013-07-16T20:25:17Z</time></trkpt>
<trkpt lat="57.120232000" lon="12.561489000"><ele>123.2</ele><time>2013-07-16T20:25:18Z</time></trkpt>
<trkpt lat="57.120305000" lon="12.561573000"><ele>123.0</ele><time>2013-07-16T20:25:19Z</time></trkpt>
<trkpt lat="57.120374000" lon="12.561660000"><ele>122.9</ele><time>2013-07-16T20:25:20Z</time></trkpt>
<trkpt lat="57.120448000" lon="12.561749000"><ele>122.9</ele><time>2013-07-16T20:25:21Z</time></trkpt>
<trkpt lat="57.120520000" lon="12.561830000"><ele>123.0</ele><time>2013-07-16T20:25:22Z</time></trkpt>
<trkpt lat="57.120591000" lon="12.561916000"><ele>123.1</ele><time>2013-07-16T20:25:23Z</time></trkpt>
<trkpt lat="57.120661000" lon="12.561999000"><ele>123.2</ele><time>2013-07-16T20:25:24Z</time></trkpt>
<trkpt lat="57.120730000" lon="12.562078000"><ele>123.2</ele><time>2013-07-16T20:25:25Z</time></trkpt>
<trkpt lat="57.120863000" lon="12.562226000"><ele>123.1</ele><time>2013-07-16T20:25:27Z</time></trkpt>
<trkpt lat="57.120983000" lon="12.562363000"><ele>123.0</ele><time>2013-07-16T20:25:29Z</time></trkpt>
<trkpt lat="57.121098000" lon="12.562505000"><ele>122.6</ele><time>2013-07-16T20:25:31Z</time></trkpt>
<trkpt lat="57.121228000" lon="12.562667000"><ele>122.3</ele><time>2013-07-16T20:25:33Z</time></trkpt>
<trkpt lat="57.121296000" lon="12.562756000"><ele>121.9</ele><time>2013-07-16T20:25:34Z</time></trkpt>
<trkpt lat="57.121365000" lon="12.562845000"><ele>121.4</ele><time>2013-07-16T20:25:35Z</time></trkpt>
<trkpt lat="57.121438000" lon="12.562936000"><ele>120.9</ele><time>2013-07-16T20:25:36Z</time></trkpt>
<trkpt lat="57.121511000" lon="12.563023000"><ele>120.3</ele><time>2013-07-16T20:25:37Z</time></trkpt>
<trkpt lat="57.121580000" lon="12.563113000"><ele>119.7</ele><time>2013-07-16T20:25:38Z</time></trkpt>
<trkpt lat="57.121650000" lon="12.563203000"><ele>119.2</ele><time>2013-07-16T20:25:39Z</time></trkpt>
<trkpt lat="57.121718000" lon="12.563295000"><ele>118.9</ele><time>2013-07-16T20:25:40Z</time></trkpt>
<trkpt lat="57.121788000" lon="12.563386000"><ele>118.7</ele><time>2013-07-16T20:25:41Z</time></trkpt>
<trkpt lat="57.121858000" lon="12.563472000"><ele>118.5</ele><time>2013-07-16T20:25:42Z</time></trkpt>
<trkpt lat="57.121926000" lon="12.563556000"><ele>118.6</ele><time>2013-07-16T20:25:43Z</time></trkpt>
<trkpt lat="57.122055000" lon="12.563721000"><ele>118.7</ele><time>2013-07-16T20:25:45Z</time></trkpt>
<trkpt lat="57.122183000" lon="12.563874000"><ele>118.9</ele><time>2013-07-16T20:25:47Z</time></trkpt>
<trkpt lat="57.122312000" lon="12.564010000"><ele>119.0</ele><time>2013-07-16T20:25:49Z</time></trkpt>
<trkpt lat="57.122443000" lon="12.564131000"><ele>119.1</ele><time>2013-07-16T20:25:51Z</time></trkpt>
<trkpt lat="57.122579000" lon="12.564231000"><ele>119.3</ele><time>2013-07-16T20:25:53Z</time></trkpt>
<trkpt lat="57.122723000" lon="12.564322000"><ele>119.4</ele><time>2013-07-16T20:25:55Z</time></trkpt>
<trkpt lat="57.122800000" lon="12.564370000"><ele>119.4</ele><time>2013-07-16T20:25:56Z</time></trkpt>
<trkpt lat="57.122952000" lon="12.564464000"><ele>119.5</ele><time>2013-07-16T20:25:58Z</time></trkpt>
<trkpt lat="57.123104000" lon="12.564553000"><ele>119.3</ele><time>2013-07-16T20:26:00Z</time></trkpt>
<trkpt lat="57.123185000" lon="12.564593000"><ele>119.1</ele><time>2013-07-16T20:26:01Z</time></trkpt>
<trkpt lat="57.123266000" lon="12.564640000"><ele>118.8</ele><time>2013-07-16T20:26:02Z</time></trkpt>
<trkpt lat="57.123356000" lon="12.564685000"><ele>118.4</ele><time>2013-07-16T20:26:03Z</time></trkpt>
<trkpt lat="57.123438000" lon="12.564734000"><ele>118.0</ele><time>2013-07-16T20:26:04Z</time></trkpt>
<trkpt lat="57.123519000" lon="12.564795000"><ele>117.5</ele><time>2013-07-16T20:26:05Z</time></trkpt>
<trkpt lat="57.123605000" lon="12.564874000"><ele>116.6</ele><time>2013-07-16T20:26:06Z</time></trkpt>
<trkpt lat="57.123692000" lon="12.564993000"><ele>116.0</ele><time>2013-07-16T20:26:07Z</time></trkpt>
<trkpt lat="57.123769000" lon="12.565157000"><ele>115.4</ele><time>2013-07-16T20:26:08Z</time></trkpt>
<trkpt lat="57.123821000" lon="12.565336000"><ele>114.7</ele><time>2013-07-16T20:26:09Z</time></trkpt>
<trkpt lat="57.123855000" lon="12.565527000"><ele>114.1</ele><time>2013-07-16T20:26:10Z</time></trkpt>
<trkpt lat="57.123836000" lon="12.565704000"><ele>113.6</ele><time>2013-07-16T20:26:11Z</time></trkpt>
<trkpt lat="57.123871000" lon="12.565856000"><ele>113.2</ele><time>2013-07-16T20:26:12Z</time></trkpt>
<trkpt lat="57.123918000" lon="12.566058000"><ele>112.9</ele><time>2013-07-16T20:26:14Z</time></trkpt>
<trkpt lat="57.124027000" lon="12.566123000"><ele>112.5</ele><time>2013-07-16T20:26:16Z</time></trkpt>
<trkpt lat="57.124125000" lon="12.566157000"><ele>112.2</ele><time>2013-07-16T20:26:18Z</time></trkpt>
<trkpt lat="57.124208000" lon="12.566195000"><ele>111.8</ele><time>2013-07-16T20:26:21Z</time></trkpt>
</trkseg>
</trk>
</gpx>
